Date StartTime U_cm/s V_cm/s W_cm/s Ustd_cm/s Vstd_cm/s Wstd_cm/s Uvar_(cm/s)^2 Vvar_(cm/s)^2 Wvar_(cm/s)^2 KE_(m/s)^2 TurbulentKE_(m/s)^2 HorizWindSpeed_cm/s FrictionSpeec_cm/s DragCoef SpeedOfSound_m/s SonicTemperature_C Pressure_mb 
08/21/2014  00:00:00     -268.369      -83.024      -13.826       91.763       70.288       44.639     8420.469     4940.340     1992.652        4.723        0.768      280.918       46.565        0.027      344.630       21.581      860.094
08/21/2014  00:01:00     -270.449      -11.000      -11.998      130.134       97.728       53.474    16934.871     9550.686     2859.479        5.137        1.467      270.673       70.078        0.067      344.591       21.517      860.104
08/21/2014  00:02:00     -224.690      -26.099      -14.230       90.828       70.372       46.178     8249.743     4952.171     2132.371        3.335        0.767      226.201       27.146        0.014      344.572       21.485      860.105
08/21/2014  00:03:00     -280.882      -87.906       -8.490       99.066       95.361       55.281     9814.127     9093.806     3055.986        5.432        1.098      294.316       57.777        0.039      344.577       21.490      860.110
08/21/2014  00:04:00     -341.424     -103.732       -3.011      104.585       93.367       53.719    10938.098     8717.314     2885.695        7.494        1.127      356.835       48.331        0.018      344.578       21.491      860.115
08/21/2014  00:05:00     -371.906       -2.810      -37.820      117.126      100.068       55.259    13718.398    10013.548     3053.539        8.326        1.339      371.917       55.256        0.022      344.618       21.563      860.130
08/21/2014  00:06:00     -374.679      -23.890      -31.383      127.591      138.222       64.410    16279.407    19105.389     4148.628        9.073        1.977      375.440       63.541        0.029      344.643       21.603      860.131
08/21/2014  00:07:00     -363.517      -51.434      -32.576      122.934       81.206       55.033    15112.843     6594.456     3028.636        8.029        1.237      367.137       62.244        0.029      344.683       21.672      860.154
08/21/2014  00:08:00     -339.982      -82.398      -14.443       99.080       73.111       50.328     9816.817     5345.159     2532.919        7.014        0.885      349.824       48.847        0.019      344.624       21.570      860.161
08/21/2014  00:09:00     -291.613      -63.299      -15.095      100.133       81.631       55.181    10026.539     6663.569     3044.981        5.450        0.987      298.404       50.287        0.028      344.591       21.515      860.181
08/21/2014  00:10:00     -321.846      -24.662      -30.968       92.508       71.390       44.351     8557.746     5096.509     1966.987        6.038        0.781      322.790       46.251        0.021      344.558       21.458      860.182
08/21/2014  00:11:00     -357.251      -35.676      -16.110      132.924      120.898       64.071    17668.875    14616.339     4105.119        8.277        1.820      359.028       69.186        0.037      344.591       21.515      860.199
08/21/2014  00:12:00     -291.974       -8.257      -22.582       89.267      103.696       48.013     7968.587    10752.790     2305.259        5.342        1.051      292.091       38.145        0.017      344.567       21.472      860.222
08/21/2014  00:13:00     -233.560      -42.304      -29.154       79.880      116.888       56.892     6380.890    13662.793     3236.667        4.023        1.164      237.360       27.257        0.013      344.677       21.662      860.235
08/21/2014  00:14:00     -136.516        9.004      -10.624       96.361       52.011       40.922     9285.426     2705.135     1674.651        1.625        0.683      136.812       45.187        0.109      344.591       21.519      860.256
08/21/2014  00:15:00     -214.850       61.307      -31.727       81.238      136.672       53.310     6599.595    18679.248     2841.949        3.952        1.406      223.426       41.577        0.035      344.632       21.587      860.269
08/21/2014  00:16:00     -183.191      -18.143      -21.301       65.874       64.286       48.533     4339.374     4132.632     2355.475        2.258        0.541      184.087       40.825        0.049      344.605       21.541      860.278
08/21/2014  00:17:00     -111.078       21.885      -13.372       62.154       42.586       26.633     3863.110     1813.605      709.303        0.969        0.319      113.213       17.546        0.024      344.610       21.551      860.290
08/21/2014  00:18:00     -191.719       63.825      -26.156      145.289      112.793       58.985    21109.018    12722.300     3479.175        3.940        1.866      202.064       72.817        0.130      344.677       21.662      860.297
08/21/2014  00:19:00     -132.832      -20.966       15.398       98.275       76.438       57.157     9658.033     5842.720     3266.901        1.854        0.938      134.477       58.517        0.189      344.657       21.631      860.295
08/21/2014  00:20:00     -245.138      -52.318      -17.341       78.754       73.686       54.411     6202.139     5429.697     2960.607        3.886        0.730      250.659       45.353        0.033      344.654       21.620      860.314
08/21/2014  00:21:00     -236.447      -49.562      -16.428      113.660      134.285       67.044    12918.670    18032.401     4494.928        4.703        1.772      241.585       57.218        0.056      344.637       21.593      860.323
08/21/2014  00:22:00     -210.971      -52.165      -33.360       78.701       62.578       49.883     6193.882     3915.957     2488.302        3.047        0.630      217.325       33.551        0.024      344.657       21.628      860.321
08/21/2014  00:23:00     -178.074       61.065      -25.710       76.771      113.245       57.803     5893.831    12824.405     3341.177        2.908        1.103      188.253       39.983        0.045      344.682       21.672      860.324
08/21/2014  00:24:00     -241.881       29.614      -23.409      137.483      129.776       58.132    18901.539    16841.859     3379.339        4.952        1.956      243.687       68.457        0.079      344.671       21.652      860.322
08/21/2014  00:25:00     -188.329      -24.635      -13.216      114.716       85.216       46.660    13159.735     7261.794     2177.172        2.942        1.130      189.933       44.074        0.054      344.610       21.550      860.329
08/21/2014  00:26:00     -147.538      -28.860       -9.211       79.457       81.526       40.213     6313.396     6646.443     1617.109        1.863        0.729      150.334       21.419        0.020      344.580       21.498      860.325
08/21/2014  00:27:00     -157.131      -57.561        0.023       73.470       61.152       39.953     5397.821     3739.512     1596.220        1.937        0.537      167.342       31.541        0.036      344.640       21.599      860.315
08/21/2014  00:28:00     -254.584       -2.442      -42.156      107.895      132.642       62.450    11641.336    17593.918     3900.046        4.986        1.657      254.596       51.893        0.042      344.669       21.648      860.304
08/21/2014  00:29:00     -300.607      -92.731      -15.689      100.201       71.785       46.294    10040.274     5153.113     2143.180        5.827        0.867      314.585       42.045        0.018      344.659       21.629      860.299
08/21/2014  00:30:00     -224.840      -52.488      -18.808       82.223       69.914       46.130     6760.623     4887.982     2127.940        3.372        0.689      230.886       27.878        0.015      344.624       21.571      860.298
08/21/2014  00:31:00     -234.556      -53.076      -15.991      114.242       72.798       44.969    13051.127     5299.546     2022.244        3.923        1.019      240.486       30.612        0.016      344.609       21.545      860.296
08/21/2014  00:32:00     -186.450      -34.660      -18.317      106.175       81.887       45.137    11273.195     6705.523     2037.319        2.815        1.001      189.644       52.040        0.075      344.591       21.517      860.292
08/21/2014  00:33:00     -236.812      -60.605       -3.845      179.297      113.725       68.453    32147.557    12933.397     4685.874        5.476        2.488      244.444       77.746        0.101      344.624       21.570      860.271
08/21/2014  00:34:00     -350.312      -67.519      -35.592      108.089      101.249       60.179    11683.237    10251.383     3621.533        7.704        1.278      356.759       55.164        0.024      344.714       21.725      860.257
08/21/2014  00:35:00     -262.630     -121.394       -9.868      145.104       90.995       62.123    21055.193     8280.010     3859.325        5.849        1.660      289.329       44.674        0.024      344.717       21.730      860.234
08/21/2014  00:36:00     -282.989     -110.370      -12.640      110.184       73.209       56.201    12140.521     5359.543     3158.507        5.654        1.033      303.751       58.166        0.037      344.738       21.766      860.250
08/21/2014  00:37:00     -375.541     -116.510      -31.038      124.414      121.662       73.103    15478.903    14801.661     5344.041        9.559        1.781      393.199       71.598        0.033      344.764       21.811      860.253
08/21/2014  00:38:00     -325.250      -93.104      -19.302      133.396      124.654       69.562    17794.626    15538.566     4838.855        7.649        1.909      338.314       67.923        0.040      344.767       21.815      860.237
08/21/2014  00:39:00     -279.270      -71.560       -7.131      166.859      102.093       60.158    27841.939    10423.068     3619.023        6.252        2.094      288.292       76.645        0.071      344.736       21.762      860.230
08/21/2014  00:40:00     -312.891      -58.073       -6.286      184.178      124.233       73.165    33921.674    15433.952     5353.138        7.800        2.735      318.234       83.957        0.070      344.750       21.788      860.229
08/21/2014  00:41:00     -405.970      -32.482      -34.075      141.989       99.893       66.888    20160.778     9978.605     4474.063       10.081        1.731      407.267       58.949        0.021      344.801       21.875      860.228
08/21/2014  00:42:00     -506.321      -17.209      -63.750      123.635      146.529       46.647    15285.648    21470.620     2175.942       14.982        1.947      506.614       34.778        0.005      344.907       22.056      860.228
08/21/2014  00:43:00     -427.762        8.349      -35.582      128.657       92.545       56.173    16552.501     8564.520     3155.420       10.629        1.414      427.844       60.895        0.020      344.857       21.969      860.242
08/21/2014  00:44:00     -299.747      -69.510        5.010      194.963      109.317       77.956    38010.618    11950.112     6077.072        7.536        2.802      307.701       97.760        0.101      344.821       21.908      860.237
08/21/2014  00:45:00     -336.649      -56.937      -22.668      124.758       98.776       59.753    15564.529     9756.796     3570.405        7.298        1.445      341.430       57.151        0.028      344.806       21.882      860.251
08/21/2014  00:46:00     -413.617      -83.325      -35.734      102.088      107.701       61.480    10421.984    11599.434     3779.770       10.254        1.290      421.926       56.868        0.018      344.819       21.904      860.252
08/21/2014  00:47:00     -334.189      -62.753      -15.524      123.134      118.329       62.244    15162.063    14001.641     3874.287        7.444        1.652      340.030       62.454        0.034      344.777       21.833      860.249
08/21/2014  00:48:00     -327.560       -3.367      -32.965      135.429      113.417       71.860    18340.902    12863.462     5163.839        7.237        1.818      327.578       68.267        0.043      344.738       21.765      860.252
08/21/2014  00:49:00     -354.748      -50.764      -17.028      126.433      137.535       65.115    15985.419    18915.884     4239.981        8.392        1.957      358.362       64.975        0.033      344.730       21.751      860.260
08/21/2014  00:50:00     -290.812      -91.720      -11.073       94.976       75.815       45.784     9020.443     5747.871     2096.187        5.498        0.843      304.933       32.279        0.011      344.692       21.688      860.264
08/21/2014  00:51:00     -417.244       -5.663      -33.606      159.489      132.211       54.498    25436.829    17479.872     2969.978       11.056        2.294      417.283       69.665        0.028      344.717       21.729      860.266
08/21/2014  00:52:00     -282.176      -76.585      -17.003      143.576       98.348       55.032    20614.166     9672.259     3028.510        5.954        1.666      292.384       55.262        0.036      344.668       21.645      860.273
08/21/2014  00:53:00     -350.860      -45.210      -28.758      131.007      118.752       53.081    17162.870    14101.931     2817.543        8.002        1.704      353.760       49.566        0.020      344.708       21.714      860.278
08/21/2014  00:54:00     -265.651      -73.498       -7.395      215.329      113.169       73.229    46366.643    12807.316     5362.465        7.027        3.227      275.631       92.866        0.114      344.675       21.659      860.303
08/21/2014  00:55:00     -354.321      -23.134      -24.333      141.173      109.670       66.759    19929.886    12027.544     4456.807        8.154        1.821      355.076       76.486        0.046      344.687       21.677      860.320
08/21/2014  00:56:00     -346.136      -77.684      -20.370      117.846       90.347       54.911    13887.762     8162.561     3015.178        7.566        1.253      354.746       52.870        0.022      344.679       21.664      860.338
08/21/2014  00:57:00     -349.850      -33.789      -27.105      140.558      101.618       59.713    19756.476    10326.241     3565.698        7.895        1.682      351.478       67.967        0.037      344.661       21.633      860.363
08/21/2014  00:58:00     -455.047       -0.454      -44.411      109.037       85.849       60.571    11889.153     7370.001     3668.871       11.598        1.146      455.047       52.014        0.013      344.688       21.681      860.363
08/21/2014  00:59:00     -310.662      -80.328       -3.264      131.081      106.750       60.324    17182.333    11395.489     3638.999        6.759        1.611      320.879       61.167        0.036      344.640       21.598      860.389
08/21/2014  01:00:00     -302.315      -81.502      -10.833      126.097      124.087       61.770    15900.406    15397.673     3815.530        6.663        1.756      313.109       69.500        0.049      344.626       21.575      860.401
08/21/2014  01:01:00     -220.210      -90.500       -9.748      140.982      107.262       62.890    19875.882    11505.083     3955.147        4.605        1.767      238.081       68.056        0.082      344.618       21.562      860.392
08/21/2014  01:02:00     -402.386     -118.446      -13.702      130.771      126.573       70.371    17100.971    16020.707     4952.092       10.710        1.904      419.457       71.537        0.029      344.619       21.563      860.397
08/21/2014  01:03:00     -408.305     -109.962      -25.839      125.200      137.053       66.562    15674.968    18783.511     4430.469       10.917        1.944      422.853       61.657        0.021      344.658       21.630      860.397
08/21/2014  01:04:00     -338.155      -17.574      -36.038      136.467      114.313       66.861    18623.189    13067.495     4470.437        7.605        1.808      338.612       71.472        0.045      344.611       21.550      860.407
08/21/2014  01:05:00     -397.996      -51.518      -22.728      138.950      120.574       66.408    19307.088    14538.209     4409.979        9.991        1.913      401.316       69.413        0.030      344.601       21.533      860.412
08/21/2014  01:06:00     -407.855       24.938      -21.530      138.957      127.916       55.964    19309.163    16362.504     3131.970       10.311        1.940      408.617       43.621        0.011      344.622       21.567      860.426
08/21/2014  01:07:00     -359.519       11.378      -21.485      141.734      113.181       59.743    20088.659    12809.833     3569.195        8.315        1.823      359.699       61.363        0.029      344.628       21.578      860.429
08/21/2014  01:08:00     -304.547     -118.295      -14.208      101.738      108.226       48.705    10350.675    11712.789     2372.189        6.569        1.222      326.715       40.592        0.015      344.605       21.539      860.438
08/21/2014  01:09:00     -385.784     -123.494      -34.531      144.049      127.733       64.422    20750.237    16315.655     4150.206       10.324        2.061      405.068       60.946        0.023      344.632       21.584      860.432
08/21/2014  01:10:00     -372.797      -93.729      -21.970      165.204      130.495       76.127    27292.316    17028.885     5795.325        9.917        2.506      384.399       84.651        0.048      344.607       21.543      860.429
08/21/2014  01:11:00     -375.272        5.899      -20.056      128.233       98.605       69.194    16443.709     9723.017     4787.784        8.610        1.548      375.318       69.948        0.035      344.598       21.527      860.433
08/21/2014  01:12:00     -339.933     -103.130      -22.060       94.220       94.696       55.606     8877.481     8967.320     3091.975        7.380        1.047      355.232       50.536        0.020      344.542       21.430      860.438
08/21/2014  01:13:00     -357.837      -72.671       -8.745      125.485      116.966       60.811    15746.597    13680.950     3697.942        8.326        1.656      365.142       52.790        0.021      344.550       21.444      860.454
08/21/2014  01:14:00     -455.779      -64.596      -41.033      140.094       96.718       68.992    19626.429     9354.358     4759.854       12.366        1.687      460.334       68.846        0.022      344.585       21.504      860.456
08/21/2014  01:15:00     -330.443      -72.038      -22.512      125.300       95.846       53.327    15700.061     9186.360     2843.746        7.130        1.387      338.204       60.754        0.032      344.570       21.478      860.468
08/21/2014  01:16:00     -180.281      -82.270       -6.660      108.864       76.390       52.688    11851.475     5835.488     2776.043        2.988        1.023      198.166       56.765        0.082      344.501       21.361      860.458
08/21/2014  01:17:00     -335.876      -68.790      -13.781       98.799       99.146       65.265     9761.337     9829.857     4259.499        7.079        1.193      342.848       56.266        0.027      344.550       21.446      860.451
08/21/2014  01:18:00     -446.888        5.523      -40.921      122.308      120.799       59.416    14959.139    14592.371     3530.251       11.724        1.654      446.922       58.323        0.017      344.574       21.487      860.446
08/21/2014  01:19:00     -345.335       -8.000      -33.119      167.484      119.420       64.163    28050.904    14261.069     4116.891        8.341        2.321      345.428       67.094        0.038      344.571       21.481      860.434
08/21/2014  01:20:00     -378.625      -51.511      -28.992      133.800      132.827       58.497    17902.384    17642.881     3421.855        9.290        1.948      382.113       54.611        0.020      344.570       21.480      860.430
08/21/2014  01:21:00     -420.143       17.933      -44.480       97.077      115.814       54.225     9423.868    13412.892     2940.311       10.229        1.289      420.526       51.353        0.015      344.570       21.478      860.453
08/21/2014  01:22:00     -286.194      -33.432      -19.001      115.206      106.722       50.261    13272.470    11389.481     2526.158        5.528        1.359      288.140       49.653        0.030      344.509       21.374      860.465
08/21/2014  01:23:00     -288.326      -34.240      -23.770      135.223      112.271       62.329    18285.232    12604.689     3884.959        5.982        1.739      290.352       68.062        0.055      344.532       21.414      860.477
08/21/2014  01:24:00     -343.801      -42.169      -19.021      136.153      135.644       69.436    18537.593    18399.361     4821.336        8.104        2.088      346.377       71.756        0.043      344.546       21.438      860.469
08/21/2014  01:25:00     -349.167      -52.651      -35.310       78.158       99.452       52.436     6108.698     9890.610     2749.556        7.234        0.937      353.115       46.848        0.018      344.530       21.409      860.491
08/21/2014  01:26:00     -282.998     -104.243      -25.842      113.684       93.595       51.902    12924.019     8760.029     2693.783        5.800        1.219      301.586       46.729        0.024      344.494       21.350      860.489
08/21/2014  01:27:00     -268.880      -29.203      -24.911      134.912      108.673       58.734    18201.313    11809.764     3449.659        5.361        1.673      270.462       59.470        0.048      344.501       21.361      860.486
08/21/2014  01:28:00     -302.539       -5.119      -20.021      152.099      112.483       67.985    23134.204    12652.496     4622.006        6.617        2.020      302.583       63.387        0.044      344.477       21.319      860.501
08/21/2014  01:29:00     -335.612      -77.140      -17.317      143.925      147.619       68.642    20714.385    21791.242     4711.769        8.304        2.361      344.363       59.022        0.029      344.521       21.396      860.503
08/21/2014  01:30:00     -241.000     -118.222      -19.873      133.168       93.587       60.809    17733.700     8758.453     3697.687        5.132        1.509      268.435       61.104        0.052      344.529       21.408      860.503
08/21/2014  01:31:00     -309.765     -105.125       -6.756      143.798      108.555       61.835    20677.750    11784.158     3823.594        7.166        1.814      327.117       75.294        0.053      344.543       21.434      860.509
08/21/2014  01:32:00     -244.243      -74.572      -10.378      122.991      101.727       52.823    15126.727    10348.379     2790.311        4.679        1.413      255.373       59.328        0.054      344.508       21.374      860.508
08/21/2014  01:33:00     -297.754      -75.503      -15.012       96.851      111.850       55.617     9380.144    12510.477     3093.287        5.978        1.249      307.177       54.760        0.032      344.492       21.346      860.524
08/21/2014  01:34:00     -279.946      -54.701      -17.131      141.538       94.775       56.626    20033.108     8982.353     3206.479        5.693        1.611      285.240       68.919        0.058      344.471       21.310      860.537
08/21/2014  01:35:00     -223.281      -54.569      -10.262       87.249      107.208       49.650     7612.449    11493.601     2465.100        3.725        1.079      229.853       36.562        0.025      344.478       21.322      860.541
08/21/2014  01:36:00     -286.198      -66.902       -7.794      121.652       83.741       52.910    14799.169     7012.583     2799.467        5.552        1.231      293.913       56.511        0.037      344.467       21.302      860.543
08/21/2014  01:37:00     -326.203     -104.929      -25.871       97.045      111.961       48.294     9417.720    12535.231     2332.352        7.118        1.214      342.663       48.176        0.020      344.519       21.393      860.547
08/21/2014  01:38:00     -240.607      -96.741       -1.096       85.481      111.817       56.650     7306.924    12503.142     3209.247        4.513        1.151      259.327       50.101        0.037      344.464       21.297      860.553
08/21/2014  01:39:00     -318.928      -35.038      -16.574      142.055      111.236       73.288    20179.523    12373.433     5371.118        7.056        1.896      320.847       78.401        0.060      344.473       21.313      860.555
08/21/2014  01:40:00     -293.246      -75.069      -17.977      112.516       88.178       51.541    12659.960     7775.347     2656.482        5.752        1.155      302.702       58.086        0.037      344.470       21.309      860.563
08/21/2014  01:41:00     -291.180      -91.667      -25.253       86.090       84.410       57.368     7411.463     7125.034     3291.111        5.582        0.891      305.268       38.120        0.016      344.454       21.279      860.557
08/21/2014  01:42:00     -276.799      -86.907      -20.138       79.367       84.060       45.730     6299.134     7066.162     2091.254        5.001        0.773      290.122       42.442        0.021      344.438       21.253      860.552
08/21/2014  01:43:00     -328.613     -148.114      -15.592      115.542       93.372       55.573    13349.884     8718.423     3088.332        7.766        1.258      360.450       48.232        0.018      344.441       21.259      860.559
08/21/2014  01:44:00     -315.565      -64.548      -27.205       78.008       70.661       39.670     6085.188     4992.968     1573.745        5.857        0.633      322.099        7.834        0.001      344.435       21.246      860.555
08/21/2014  01:45:00     -463.770       87.877      -58.141      107.634      103.419       56.748    11585.019    10695.496     3220.337       12.584        1.275      472.022       43.421        0.008      344.506       21.369      860.559
08/21/2014  01:46:00     -230.216      -71.945       -6.176      130.325       88.355       51.326    16984.660     7806.687     2634.337        4.281        1.371      241.196       55.460        0.053      344.403       21.192      860.583
08/21/2014  01:47:00     -121.137       34.398      -10.165      101.609       73.286       41.933    10324.474     5370.910     1758.408        1.670        0.873      125.926       35.299        0.079      344.386       21.166      860.611
08/21/2014  01:48:00     -111.831      118.039       -9.902       57.706       75.950       40.280     3329.937     5768.446     1622.511        1.863        0.536      162.602       44.208        0.074      344.346       21.098      860.639
08/21/2014  01:49:00      -54.439      110.005       -8.234       45.861       37.751       28.819     2103.217     1425.166      830.532        0.974        0.218      122.738       19.505        0.025      344.327       21.067      860.658
08/21/2014  01:50:00      -64.838      141.856      -24.631       57.797       47.849       30.094     3340.525     2289.531      905.654        1.573        0.327      155.972       20.468        0.017      344.315       21.045      860.670
08/21/2014  01:51:00      -20.033      177.029      -26.124       29.326       33.089       21.145      860.012     1094.901      447.101        1.741        0.120      178.159       16.133        0.008      344.246       20.928      860.663
08/21/2014  01:52:00      -24.414      219.361      -35.157       37.771       49.481       21.797     1426.675     2448.321      475.116        2.715        0.218      220.715       16.268        0.005      344.159       20.777      860.661
08/21/2014  01:53:00      -66.938      202.313      -24.343       35.324       53.593       25.288     1247.776     2872.200      639.492        2.538        0.238      213.099       21.784        0.010      344.065       20.618      860.667
08/21/2014  01:54:00      -43.204      194.350      -31.807       54.768       58.047       27.715     2999.499     3369.511      768.147        2.389        0.357      199.095       26.430        0.018      344.058       20.604      860.689
08/21/2014  01:55:00      -64.546      222.772      -29.145       44.700       51.144       28.945     1998.122     2615.675      837.813        3.005        0.273      231.934       16.986        0.005      344.014       20.529      860.717
08/21/2014  01:56:00      -40.419      281.884      -36.468       44.524       78.286       26.672     1982.403     6128.704      711.414        4.562        0.441      284.767       27.011        0.009      343.927       20.379      860.727
08/21/2014  01:57:00     -154.466      318.428      -46.354      106.780      105.798       57.720    11401.925    11193.119     3331.638        7.666        1.296      353.915       57.813        0.027      343.700       19.992      860.740
08/21/2014  01:58:00     -153.352      305.226      -43.042       71.971      113.094       47.567     5179.843    12790.363     2262.639        6.938        1.012      341.584       47.725        0.020      343.608       19.835      860.754
08/21/2014  01:59:00     -190.757      236.005      -41.953       95.515       91.586       60.789     9123.068     8388.046     3695.350        5.752        1.060      303.458       60.946        0.040      343.569       19.770      860.765
08/21/2014  02:00:00     -141.092      313.744      -46.359       84.497      138.668       58.108     7139.801    19228.853     3376.538        7.511        1.487      344.009       59.050        0.029      343.557       19.748      860.749
08/21/2014  02:01:00      -98.945      255.371      -28.139       82.122      124.255       49.308     6743.975    15439.290     2431.307        5.020        1.231      273.870       48.886        0.032      343.547       19.733      860.747
08/21/2014  02:02:00      -88.898      337.768      -49.230       63.442       96.382       47.670     4024.932     9289.418     2272.386        7.000        0.779      349.271       41.008        0.014      343.551       19.739      860.755
08/21/2014  02:03:00     -117.579      281.021      -37.587       77.131      114.772       46.958     5949.129    13172.703     2205.078        5.776        1.066      304.627       41.868        0.019      343.489       19.634      860.755
08/21/2014  02:04:00      -85.369      219.243      -32.618       76.328       81.934       47.472     5826.025     6713.117     2253.632        3.560        0.740      235.277       53.719        0.052      343.561       19.756      860.758
08/21/2014  02:05:00      -79.585      235.594      -22.858       66.704       64.294       41.020     4449.486     4133.770     1682.676        3.631        0.513      248.673       32.365        0.017      343.530       19.702      860.759
08/21/2014  02:06:00     -105.099      107.524      -22.065       55.985       51.891       32.932     3134.332     2692.702     1084.529        1.500        0.346      150.357       25.948        0.030      343.509       19.671      860.780
08/21/2014  02:07:00     -142.783      104.264      -25.739       69.159       60.495       36.397     4783.016     3659.656     1324.729        2.084        0.488      176.799       38.804        0.048      343.515       19.679      860.791
08/21/2014  02:08:00     -118.510      171.652      -29.377       55.618       53.387       38.526     3093.353     2850.203     1484.229        2.590        0.371      208.588       39.472        0.036      343.506       19.662      860.811
08/21/2014  02:09:00      -91.532      190.841      -28.249       76.564       75.772       33.330     5862.113     5741.400     1110.884        2.915        0.636      211.657       22.779        0.012      343.565       19.764      860.811
08/21/2014  02:10:00     -134.964      146.988      -34.207       59.757       63.101       35.089     3570.852     3981.775     1231.215        2.489        0.439      199.551       34.489        0.030      343.617       19.854      860.822
08/21/2014  02:11:00     -123.441       44.980      -20.774       62.383       74.544       30.380     3891.590     5556.758      922.951        1.403        0.519      131.381       35.856        0.074      343.566       19.767      860.846
08/21/2014  02:12:00      -95.803       74.275      -12.803       40.864       72.251       30.908     1669.907     5220.193      955.277        1.135        0.392      121.223       29.881        0.061      343.523       19.694      860.835
08/21/2014  02:13:00      -92.077       26.311      -12.603       53.241       73.574       30.272     2834.641     5413.113      916.372        0.924        0.458       95.763       28.230        0.087      343.526       19.698      860.841
08/21/2014  02:14:00      -74.149      114.532      -21.011       73.776      149.453       47.570     5442.931    22336.180     2262.945        2.454        1.502      136.440       62.762        0.212      343.503       19.660      860.834
08/21/2014  02:15:00     -138.520      215.635      -41.436       95.353       88.499       52.265     9092.258     7832.107     2731.605        4.353        0.983      256.293       41.850        0.027      343.431       19.536      860.822
08/21/2014  02:16:00     -131.533      175.357      -32.876       81.625       77.387       46.957     6662.645     5988.815     2204.958        3.199        0.743      219.206       52.017        0.056      343.482       19.622      860.811
08/21/2014  02:17:00     -175.942      144.558      -33.466       73.732       78.546       42.582     5436.464     6169.550     1813.197        3.319        0.671      227.712       49.411        0.047      343.521       19.687      860.832
08/21/2014  02:18:00     -177.688      184.256      -40.993       71.202       75.086       40.041     5069.657     5637.909     1603.316        3.975        0.616      255.975       18.531        0.005      343.512       19.671      860.840
08/21/2014  02:19:00     -180.601      121.936      -27.406      118.822      160.972       70.287    14118.679    25912.124     4940.298        4.659        2.249      217.911       71.332        0.107      343.442       19.554      860.837
08/21/2014  02:20:00     -198.984      195.772      -42.059      102.604      108.996       58.627    10527.582    11880.042     3437.109        5.276        1.292      279.144       67.497        0.058      343.416       19.508      860.817
08/21/2014  02:21:00     -144.451      243.259      -50.467      113.425      119.315       54.965    12865.131    14236.105     3021.124        5.635        1.506      282.915       62.106        0.048      343.497       19.647      860.807
08/21/2014  02:22:00     -147.403      186.194      -34.280       89.012       88.241       50.624     7923.085     7786.519     2562.824        3.792        0.914      237.478       53.824        0.051      343.405       19.491      860.810
08/21/2014  02:23:00     -166.485      216.185      -43.766       75.787      102.553       52.224     5743.696    10517.196     2727.337        4.767        0.949      272.861       43.255        0.025      343.473       19.606      860.778
08/21/2014  02:24:00     -177.761      185.733      -42.941       86.896      112.051       56.051     7550.892    12555.442     3141.761        4.559        1.162      257.091       50.481        0.039      343.491       19.636      860.770
08/21/2014  02:25:00     -248.984      200.303      -48.171       73.512      113.209       49.033     5403.962    12816.203     2404.272        6.253        1.031      319.553       49.473        0.024      343.485       19.627      860.770
08/21/2014  02:26:00     -175.695      186.098      -34.100       84.015      107.196       62.648     7058.529    11491.013     3924.779        4.456        1.124      255.932       55.786        0.048      343.430       19.533      860.761
08/21/2014  02:27:00     -176.696      165.454      -32.814       81.103      145.914       56.821     6577.765    21290.889     3228.661        4.538        1.555      242.067       49.543        0.042      343.420       19.517      860.763
08/21/2014  02:28:00     -166.558      268.651      -37.704       75.379       97.494       54.107     5682.009     9505.120     2927.583        5.972        0.906      316.093       51.087        0.026      343.496       19.644      860.762
08/21/2014  02:29:00     -132.349      172.605      -30.165       69.101       90.429       40.241     4774.925     8177.319     1619.340        3.139        0.729      217.506       39.242        0.033      343.538       19.718      860.759
08/21/2014  02:30:00     -138.115      148.332      -29.998       70.907       61.079       35.721     5027.744     3730.653     1276.000        2.600        0.502      202.677       38.960        0.037      343.565       19.763      860.798
08/21/2014  02:31:00     -161.001      258.585      -50.119       72.631       68.211       42.257     5275.263     4652.742     1785.628        5.350        0.586      304.610       34.226        0.013      343.588       19.800      860.790
08/21/2014  02:32:00      -96.885      278.755      -26.071       66.035       96.475       50.050     4360.680     9307.446     2504.976        5.197        0.809      295.112       46.603        0.025      343.532       19.707      860.769
08/21/2014  02:33:00     -126.667      177.021      -33.542       61.618       66.251       41.979     3796.742     4389.140     1762.240        2.923        0.497      217.672       39.230        0.032      343.647       19.902      860.793
08/21/2014  02:34:00      -98.197       63.879      -17.695       53.677       48.975       25.414     2881.215     2398.512      645.864        0.998        0.296      117.146       15.551        0.018      343.598       19.822      860.809
08/21/2014  02:35:00      -45.615      150.437       -7.597       65.188       96.205       39.139     4249.413     9255.381     1531.830        1.990        0.752      157.200       47.070        0.090      343.490       19.637      860.803
08/21/2014  02:36:00     -132.225      193.277      -32.139       49.623       81.816       42.462     2462.421     6693.812     1802.981        3.341        0.548      234.178       37.691        0.026      343.484       19.625      860.808
08/21/2014  02:37:00     -101.264      136.830      -28.247       48.677       62.929       32.418     2369.402     3960.096     1050.943        1.858        0.369      170.226       21.659        0.016      343.492       19.642      860.822
08/21/2014  02:38:00      -78.468      122.602      -17.528       51.499       60.397       31.648     2652.140     3647.810     1001.579        1.440        0.365      145.562       26.372        0.033      343.446       19.563      860.822
08/21/2014  02:39:00      -78.347       87.541      -18.260       33.187       64.133       31.225     1101.354     4113.030      975.000        1.016        0.309      117.481       22.856        0.038      343.411       19.503      860.833
08/21/2014  02:40:00      -77.869       46.660      -14.578       32.041       24.026       18.568     1026.596      577.249      344.782        0.520        0.097       90.779       19.863        0.048      343.432       19.538      860.855
08/21/2014  02:41:00      -71.424       85.216      -19.601       40.168       53.428       26.404     1613.485     2854.568      697.194        0.896        0.258      111.189       32.293        0.084      343.348       19.397      860.870
08/21/2014  02:42:00     -138.125      130.197      -37.974       43.989       55.774       32.108     1935.033     3110.725     1030.938        2.177        0.304      189.815       27.715        0.021      343.426       19.526      860.874
08/21/2014  02:43:00      -77.679      113.145      -13.361       48.948       50.144       28.001     2395.918     2514.457      784.042        1.235        0.285      137.244       25.722        0.035      343.432       19.540      860.883
08/21/2014  02:44:00      -81.551      140.955      -24.601       59.170       42.522       27.092     3501.055     1808.130      733.958        1.658        0.302      162.846       29.594        0.033      343.452       19.573      860.887
08/21/2014  02:45:00      -84.318      102.254      -16.051       40.833       38.447       30.945     1667.325     1478.192      957.597        1.096        0.205      132.535       28.405        0.046      343.480       19.621      860.888
08/21/2014  02:46:00      -67.708       72.974      -15.163       29.455       29.474       23.867      867.603      868.708      569.625        0.622        0.115       99.547       15.100        0.023      343.388       19.464      860.899
08/21/2014  02:47:00      -90.762       79.959      -17.497       63.329       48.743       26.458     4010.621     2375.844      700.034        1.101        0.354      120.959       34.601        0.082      343.351       19.399      860.915
08/21/2014  02:48:00     -166.662      106.388      -22.291       67.308       56.020       39.142     4530.362     3138.221     1532.088        2.439        0.460      197.723       28.966        0.021      343.400       19.482      860.934
08/21/2014  02:49:00      -79.682      104.876      -18.005       31.924       41.559       25.824     1019.131     1727.187      666.862        1.054        0.171      131.712       22.651        0.030      343.346       19.392      860.938
08/21/2014  02:50:00      -59.418      117.285      -10.788       39.347       57.568       26.464     1548.155     3314.081      700.345        1.148        0.278      131.477       21.956        0.028      343.366       19.427      860.937
08/21/2014  02:51:00      -61.721      149.982      -15.805       34.288       49.118       29.393     1175.638     2412.585      863.925        1.550        0.223      162.186       26.988        0.028      343.336       19.376      860.931
08/21/2014  02:52:00      -45.554       32.821       -7.878       23.688       27.413       16.352      561.119      751.451      267.376        0.240        0.079       56.146        9.901        0.031      343.305       19.324      860.943
08/21/2014  02:53:00      -31.789       89.838      -13.711       21.805       25.607       16.591      475.460      655.718      275.267        0.534        0.070       95.296       12.593        0.017      343.304       19.322      860.952
08/21/2014  02:54:00      -50.220       29.281       -9.460       22.896       27.548       19.323      524.208      758.891      373.379        0.256        0.083       58.133       15.375        0.070      343.223       19.184      860.981
08/21/2014  02:55:00      -36.780      -17.226       -2.035       40.201       52.871       23.560     1616.153     2795.292      555.064        0.331        0.248       40.614       19.171        0.223      343.297       19.307      861.005
08/21/2014  02:56:00       -1.349      -61.617      -13.354       31.881       46.286       21.284     1016.406     2142.433      453.008        0.379        0.181       61.632       21.564        0.122      343.353       19.403      861.018
08/21/2014  02:57:00       -9.943      -35.757      -18.263       18.892       52.971       17.723      356.902     2805.940      314.119        0.259        0.174       37.113       18.546        0.250      343.283       19.286      861.028
08/21/2014  02:58:00       52.043      -79.986      -12.560       55.926       54.600       44.953     3127.741     2981.198     2020.731        0.870        0.406       95.427       34.340        0.129      343.304       19.321      861.030
08/21/2014  02:59:00       42.263       17.831       42.299       39.997       37.989       38.054     1599.736     1443.144     1448.126        0.419        0.225       45.870       24.391        0.283      343.228       19.191      861.038
08/21/2014  03:00:00       37.015      -65.199       -3.570       28.637       57.639       31.226      820.065     3322.301      975.049        0.537        0.256       74.973       37.609        0.252      343.301       19.316      861.050
08/21/2014  03:01:00      -24.177      -33.613       -7.466       37.424       35.858       21.319     1400.561     1285.804      454.489        0.245        0.157       41.405       25.160        0.369      343.499       19.655      861.065
08/21/2014  03:02:00        1.108        6.926       30.452       18.696       18.269       29.541      349.557      333.748      872.655        0.127        0.078        7.014       20.374        8.438      343.399       19.482      861.070
08/21/2014  03:03:00      -32.699      -14.418       -8.591       37.752       35.199       20.186     1425.214     1238.936      407.462        0.221        0.154       35.736       19.004        0.283      343.449       19.568      861.082
08/21/2014  03:04:00     -107.849       60.596      -12.218       66.836       65.944       51.889     4467.116     4348.580     2692.463        1.348        0.575      123.707       46.517        0.141      343.494       19.643      861.085
08/21/2014  03:05:00     -202.810       80.855      -12.796       99.893       46.766       41.519     9978.513     2187.015     1723.839        3.086        0.694      218.333       41.809        0.037      343.544       19.727      861.096
08/21/2014  03:06:00      -82.108       53.367      -22.216      104.703       62.926       28.610    10962.667     3959.635      818.520        1.291        0.787       97.927       38.011        0.151      343.559       19.756      861.091
08/21/2014  03:07:00      -95.438       37.301       -8.666       81.437      101.105       41.253     6631.907    10222.167     1701.778        1.456        0.928      102.469       31.507        0.095      343.412       19.505      861.072
08/21/2014  03:08:00     -118.922      154.652      -32.810       68.071       61.770       38.395     4633.653     3815.541     1474.176        2.453        0.496      195.089       43.493        0.050      343.341       19.381      861.086
08/21/2014  03:09:00      -84.034      111.883      -15.608       33.945       63.865       25.126     1152.270     4078.711      631.337        1.284        0.293      139.927       22.331        0.025      343.252       19.231      861.078
08/21/2014  03:10:00      -68.334       46.119       -9.751       27.290       28.488       21.922      744.730      811.563      480.564        0.446        0.102       82.441        8.976        0.012      343.257       19.242      861.069
08/21/2014  03:11:00     -120.063      109.586      -15.984       41.364       68.943       30.850     1710.955     4753.184      951.720        1.705        0.371      162.555       20.637        0.016      343.212       19.164      861.076
08/21/2014  03:12:00      -71.909        7.899      -11.312       42.638       29.964       22.307     1818.000      897.865      497.615        0.429        0.161       72.341       14.317        0.039      343.238       19.208      861.085
08/21/2014  03:13:00     -102.594       40.638      -20.194       47.874       38.323       22.712     2291.909     1468.686      515.843        0.843        0.214      110.349       19.129        0.030      343.275       19.273      861.094
08/21/2014  03:14:00      -54.845       45.852       -6.013       31.503       40.546       20.177      992.469     1643.947      407.116        0.409        0.152       71.487       14.518        0.041      343.208       19.157      861.092
08/21/2014  03:15:00     -101.895       44.138       -4.125       79.509       62.059       45.123     6321.662     3851.313     2036.103        1.228        0.610      111.044       51.406        0.214      343.243       19.218      861.090
08/21/2014  03:16:00      -86.477       -4.361       -8.211       52.172       46.759       21.548     2721.950     2186.358      464.302        0.647        0.269       86.587       20.108        0.054      343.175       19.103      861.094
08/21/2014  03:17:00      -85.012       13.636      -14.067       47.824       31.369       25.518     2287.117      984.022      651.169        0.577        0.196       86.099       23.471        0.074      343.116       19.001      861.094
08/21/2014  03:18:00      -65.103       -2.171        5.202       48.736       32.161       22.512     2375.234     1034.299      506.810        0.409        0.196       65.139       23.485        0.130      343.031       18.856      861.091
08/21/2014  03:19:00      -41.629       63.289       -4.414       26.828       40.020       15.975      719.762     1601.561      255.192        0.417        0.129       75.753        6.760        0.008      343.170       19.093      861.077
08/21/2014  03:20:00       -6.515       68.670        4.027       20.812       22.597       13.738      433.119      510.616      188.742        0.295        0.057       68.978        8.859        0.016      343.240       19.211      861.068
08/21/2014  03:21:00      -51.690       68.979       -6.492       28.560       24.443       22.426      815.683      597.461      502.937        0.469        0.096       86.197       17.015        0.039      343.154       19.065      861.067
08/21/2014  03:22:00      -32.916       33.289       -6.434       48.849       24.361       17.934     2386.217      593.482      321.620        0.277        0.165       46.815       19.137        0.167      343.163       19.080      861.073
08/21/2014  03:23:00       10.380       11.236        2.432        9.700        9.292        9.557       94.092       86.349       91.331        0.026        0.014       15.297        6.461        0.178      343.211       19.162      861.071
08/21/2014  03:24:00       -1.532       74.854      -12.910       20.544       25.882       15.002      422.043      669.874      225.057        0.354        0.066       74.870       14.479        0.037      343.150       19.059      861.098
08/21/2014  03:25:00      -24.625      110.587      -19.104       29.662       45.517       15.073      879.811     2071.789      227.181        0.819        0.159      113.295       16.272        0.021      343.083       18.944      861.123
08/21/2014  03:26:00      -43.926      119.433      -12.982       32.083       44.791       21.283     1029.296     2006.248      452.958        0.992        0.174      127.255       17.079        0.018      343.103       18.980      861.144
08/21/2014  03:27:00      -96.154       91.805      -24.011       40.428       30.463       21.983     1634.428      927.994      483.263        1.065        0.152      132.943       21.944        0.027      343.197       19.139      861.161
08/21/2014  03:28:00      -93.513       51.593      -16.243       51.196       36.042       24.949     2620.985     1298.995      622.457        0.811        0.227      106.801       26.146        0.060      343.203       19.147      861.169
08/21/2014  03:29:00      -91.677        9.138      -11.699       31.096       23.009       16.677      966.978      529.433      278.136        0.520        0.089       92.131       14.476        0.025      343.155       19.067      861.187
08/21/2014  03:30:00      -80.475       14.275       -8.515       32.960       24.751       15.156     1086.330      612.609      229.690        0.434        0.096       81.731       13.679        0.028      343.081       18.941      861.195
08/21/2014  03:31:00      -80.325      -35.963       -1.513       33.362       26.538       19.773     1112.993      704.288      390.966        0.498        0.110       88.009       19.590        0.050      342.949       18.716      861.182
08/21/2014  03:32:00      -31.778      -17.244       -8.892       19.745       20.735        8.818      389.865      429.950       77.765        0.114        0.045       36.155        9.763        0.073      342.993       18.792      861.166
08/21/2014  03:33:00        8.749       20.164        7.762       27.066       27.802       24.767      732.585      772.941      613.414        0.133        0.106       21.981       19.592        0.794      342.952       18.721      861.159
08/21/2014  03:34:00       55.899       51.481       14.417       17.368       15.437       14.099      301.651      238.299      198.782        0.336        0.037       75.993       10.980        0.021      342.975       18.761      861.164
08/21/2014  03:35:00       14.963       -8.048      -12.524       13.746       23.311        8.057      188.944      543.395       64.912        0.062        0.040       16.990        8.393        0.244      342.946       18.712      861.186
08/21/2014  03:36:00      -55.543      -27.110       -6.301       40.362       22.242       11.011     1629.131      494.703      121.239        0.305        0.112       61.807       12.587        0.041      343.031       18.856      861.198
08/21/2014  03:37:00      -31.821      -26.834       -5.882       35.337       20.620       12.574     1248.706      425.185      158.101        0.180        0.092       41.625       12.403        0.089      342.890       18.617      861.208
08/21/2014  03:38:00      -40.660      -18.624       -3.184       12.698       15.110        6.492      161.246      228.327       42.148        0.122        0.022       44.723        5.197        0.014      342.916       18.658      861.199
08/21/2014  03:39:00        1.726       20.975        6.940       22.185       14.283        9.674      492.153      204.006       93.594        0.064        0.039       21.046       11.519        0.300      342.855       18.558      861.189
08/21/2014  03:40:00       40.682       33.357        8.844       13.971       11.565       10.743      195.191      133.747      115.411        0.165        0.022       52.609        1.088        0.000      342.895       18.624      861.184
08/21/2014  03:41:00       21.660       54.766       -0.841       30.114       35.931       15.663      906.852     1291.010      245.338        0.296        0.122       58.894       19.808        0.113      343.025       18.844      861.177
08/21/2014  03:42:00       24.567       77.628       -9.645       20.958       25.315       15.807      439.218      640.841      249.876        0.403        0.066       81.423       17.438        0.046      342.887       18.611      861.170
08/21/2014  03:43:00       58.377       39.958       -7.127       31.839       22.715       17.316     1013.717      515.987      299.856        0.344        0.091       70.743       14.139        0.040      342.768       18.410      861.165
08/21/2014  03:44:00      100.814       44.637        4.886       22.235       21.981       22.584      494.408      483.146      510.035        0.683        0.074      110.254       13.142        0.014      342.772       18.416      861.167
08/21/2014  03:45:00       69.532       36.160       -5.815       24.437       18.863       17.776      597.143      355.815      315.989        0.372        0.063       78.373        9.083        0.013      342.691       18.277      861.175
08/21/2014  03:46:00       47.317       27.719        0.241       20.827       17.164       13.101      433.759      294.592      171.645        0.195        0.045       54.838       10.877        0.039      342.670       18.243      861.181
08/21/2014  03:47:00       31.768       43.094        2.071       22.271       32.152       16.555      495.979     1033.738      274.056        0.234        0.090       53.538       16.652        0.097      342.770       18.412      861.197
08/21/2014  03:48:00       56.758       38.160       13.506       29.168       22.679       21.326      850.745      514.334      454.815        0.334        0.091       68.394       14.672        0.046      342.996       18.797      861.215
08/21/2014  03:49:00       29.752       28.545        2.029       24.562       17.430       16.579      603.305      303.818      274.872        0.144        0.059       41.231        9.894        0.058      343.073       18.929      861.228
08/21/2014  03:50:00       35.005       29.056       11.971       20.894       14.808       12.988      436.572      219.282      168.698        0.152        0.041       45.493        9.883        0.047      343.153       19.065      861.233
08/21/2014  03:51:00       31.791       34.263        7.096       23.656       21.727       14.419      559.607      472.072      207.898        0.174        0.062       46.740       13.523        0.084      343.070       18.923      861.228
08/21/2014  03:52:00       26.858       33.943       -0.226       18.856       19.801       15.185      355.553      392.098      230.587        0.143        0.049       43.284       12.266        0.080      343.016       18.831      861.231
08/21/2014  03:53:00       17.185       23.265        0.279       22.608       22.815       16.983      511.132      520.527      288.413        0.108        0.066       28.923       16.476        0.324      342.941       18.702      861.224
08/21/2014  03:54:00       28.038       19.829        2.891       18.066       16.049       15.743      326.369      257.563      247.840        0.101        0.042       34.341        9.259        0.073      342.917       18.663      861.217
08/21/2014  03:55:00       52.667       26.695       11.811       12.371        9.241       10.806      153.047       85.400      116.766        0.199        0.018       59.046        5.715        0.009      342.961       18.737      861.207
08/21/2014  03:56:00       44.603       33.342       11.228        9.160       14.484        9.035       83.906      209.782       81.639        0.180        0.019       55.688        7.513        0.018      342.940       18.702      861.210
08/21/2014  03:57:00       36.421       13.108       -1.113        7.983        9.527        9.068       63.724       90.756       82.223        0.087        0.012       38.708        4.643        0.014      342.914       18.656      861.216
08/21/2014  03:58:00       23.718       15.716        5.046       19.531       11.083       11.564      381.454      122.822      133.735        0.074        0.032       28.452        8.667        0.093      342.870       18.583      861.221
08/21/2014  03:59:00       17.697       20.982       -1.318       15.790        8.891        7.806      249.311       79.044       60.937        0.057        0.019       27.449        7.377        0.072      342.897       18.629      861.221
08/21/2014  04:00:00       13.871       11.729        3.602       13.717       21.073        8.253      188.148      444.058       68.107        0.052        0.035       18.165        7.750        0.182      342.862       18.569      861.224
08/21/2014  04:01:00       53.179       31.496       12.663       16.924       13.649       10.768      286.423      186.307      115.956        0.228        0.029       61.806       11.077        0.032      342.909       18.649      861.214
08/21/2014  04:02:00       72.523       23.231       11.593       25.570       16.031       15.181      653.838      256.986      230.472        0.354        0.057       76.153       14.520        0.036      342.839       18.528      861.209
08/21/2014  04:03:00       48.692       31.041       25.746       28.608       15.076       17.669      818.395      227.293      312.187        0.268        0.068       57.745       13.209        0.052      342.867       18.577      861.217
08/21/2014  04:04:00       30.865       35.596       32.818       19.171       21.569       22.603      367.511      465.237      510.905        0.232        0.067       47.113       18.920        0.161      342.784       18.437      861.227
08/21/2014  04:05:00       52.012       56.804       43.439       25.748       18.443       19.905      662.940      340.155      396.203        0.461        0.070       77.019       15.483        0.040      342.812       18.483      861.229
08/21/2014  04:06:00       59.780       51.240       39.577       26.796       18.412       19.012      718.025      338.990      361.464        0.459        0.071       78.735       11.269        0.020      342.813       18.484      861.237
08/21/2014  04:07:00       37.850       29.120        9.196       32.828       20.607       12.430     1077.659      424.643      154.503        0.201        0.083       47.756       11.756        0.061      342.600       18.124      861.251
08/21/2014  04:08:00       35.399       41.451       -3.193       14.180       18.280       11.383      201.074      334.150      129.582        0.182        0.033       54.510        9.744        0.032      342.529       18.003      861.265
08/21/2014  04:09:00       22.039       44.822        0.588       16.506       26.371       13.314      272.441      695.414      177.269        0.182        0.057       49.947       11.989        0.058      342.605       18.131      861.284
08/21/2014  04:10:00       20.873       75.213       -8.815       15.389       17.719        8.643      236.809      313.976       74.697        0.340        0.031       78.056        4.587        0.003      342.742       18.365      861.296
08/21/2014  04:11:00       21.337      101.420      -12.856       11.782       12.972        5.483      138.813      168.282       30.068        0.562        0.017      103.640        4.427        0.002      342.856       18.557      861.299
08/21/2014  04:12:00       29.726       88.658      -12.534       18.415       32.950       17.983      339.121     1085.690      323.401        0.532        0.087       93.509       19.093        0.042      342.773       18.417      861.298
08/21/2014  04:13:00       29.049       41.153       -7.428       23.727       31.944       19.449      562.966     1020.405      378.245        0.228        0.098       50.373       18.401        0.133      342.703       18.300      861.291
08/21/2014  04:14:00       28.416       36.585       -0.020       22.398       20.817       15.967      501.667      433.338      254.961        0.167        0.059       46.324       12.134        0.069      342.783       18.433      861.291
08/21/2014  04:15:00       17.619       32.696        0.990       21.473       19.556       16.375      461.075      382.455      268.132        0.125        0.056       37.141        5.999        0.026      342.780       18.429      861.295
08/21/2014  04:16:00        9.974       43.248       -9.515       16.520       19.248        8.649      272.898      370.493       74.810        0.139        0.036       44.384        7.677        0.030      342.842       18.534      861.304
08/21/2014  04:17:00      -20.292       34.507       -7.094       20.328       31.235        6.889      413.227      975.613       47.452        0.154        0.072       40.032        9.768        0.060      342.879       18.598      861.312
08/21/2014  04:18:00      -63.564      -10.603       -5.217       12.998        9.846        8.068      168.944       96.944       65.098        0.226        0.017       64.442        7.957        0.015      342.561       18.058      861.317
08/21/2014  04:19:00      -52.359      -19.670       -7.456       14.475       12.705       12.273      209.518      161.408      150.620        0.185        0.026       55.932        4.700        0.007      342.492       17.940      861.320
08/21/2014  04:20:00      -75.440      -41.657       -8.224       18.156       18.591       11.164      329.632      345.623      124.643        0.415        0.040       86.177        6.299        0.005      342.348       17.695      861.318
08/21/2014  04:21:00      -86.567      -31.371       -9.092       13.257       12.353        8.579      175.755      152.594       73.595        0.448        0.020       92.076        3.849        0.002      342.278       17.575      861.314
08/21/2014  04:22:00      -58.447      -41.760       -1.492       20.704       17.836       11.104      428.656      318.129      123.293        0.302        0.044       71.833       10.855        0.023      342.348       17.696      861.308
08/21/2014  04:23:00      -40.870      -44.908       -6.125       12.736       14.084        9.266      162.215      198.350       85.859        0.209        0.022       60.721        7.729        0.016      342.469       17.900      861.305
08/21/2014  04:24:00      -31.595      -18.365        7.950       24.181       11.854       11.920      584.740      140.514      142.080        0.113        0.043       36.545        7.230        0.039      342.399       17.780      861.312
08/21/2014  04:25:00      -64.826      -28.865       -8.517        8.891        8.771       10.417       79.044       76.924      108.519        0.269        0.013       70.962        5.064        0.005      342.454       17.876      861.326
08/21/2014  04:26:00      -43.011      -25.650       -1.442       14.382       11.498       10.888      206.852      132.195      118.552        0.148        0.023       50.079        6.931        0.019      342.399       17.784      861.335
08/21/2014  04:27:00      -20.180      -17.333        4.367       16.635       12.014        9.812      276.729      144.331       96.284        0.062        0.026       26.602        7.675        0.083      342.347       17.689      861.333
08/21/2014  04:28:00      -31.543      -20.417        0.733       18.796       11.675        9.170      353.273      136.297       84.091        0.099        0.029       37.574        8.736        0.054      342.381       17.750      861.336
08/21/2014  04:29:00      -17.101      -38.976       -6.368       15.136       13.909        8.876      229.103      193.470       78.781        0.118        0.025       42.563        6.836        0.026      342.484       17.926      861.339
08/21/2014  04:30:00      -17.241      -19.822       -2.451       11.977       12.520        7.912      143.457      156.755       62.603        0.053        0.018       26.271        7.347        0.078      342.525       17.997      861.347
08/21/2014  04:31:00      -41.200      -16.478       -4.055        9.868       10.657        5.545       97.381      113.581       30.742        0.111        0.012       44.373        4.241        0.009      342.442       17.855      861.361
08/21/2014  04:32:00      -58.783      -14.508       -9.076        6.650        6.482        6.206       44.228       42.015       38.509        0.194        0.006       60.546        3.366        0.003      342.404       17.790      861.375
08/21/2014  04:33:00      -59.225       -9.570      -10.768        8.431       12.259        7.772       71.079      150.273       60.405        0.200        0.014       59.993        4.056        0.005      342.328       17.660      861.385
08/21/2014  04:34:00      -66.168      -11.492       -9.364        8.495       14.238        9.431       72.165      202.708       88.939        0.248        0.018       67.158        3.782        0.003      342.261       17.546      861.392
08/21/2014  04:35:00      -81.233       -8.443      -13.492       12.517       10.346        8.172      156.680      107.031       66.778        0.359        0.017       81.670        5.212        0.004      342.249       17.526      861.397
08/21/2014  04:36:00      -87.013      -12.816      -12.643       18.296       14.899       11.462      334.730      221.975      131.375        0.429        0.034       87.952       10.214        0.013      342.179       17.409      861.389
08/21/2014  04:37:00      -75.047       -8.475       -8.669       14.753       18.577       12.791      217.660      345.089      163.609        0.325        0.036       75.524        7.124        0.009      342.072       17.225      861.386
08/21/2014  04:38:00      -77.946        2.409       -6.625       15.460       15.072       11.863      239.000      227.156      140.722        0.337        0.030       77.983        8.295        0.011      342.073       17.228      861.382
08/21/2014  04:39:00      -89.019        9.979       -8.538       12.037       15.700       10.885      144.898      246.504      118.490        0.430        0.025       89.576        6.626        0.005      342.136       17.333      861.390
08/21/2014  04:40:00      -88.317       -5.286       -9.211       15.601       17.950       13.391      243.396      322.188      179.324        0.433        0.037       88.475        9.971        0.013      341.914       16.957      861.405
08/21/2014  04:41:00      -73.214       -8.812      -10.296       18.270       17.845       11.809      333.797      318.432      139.459        0.317        0.040       73.742       11.836        0.026      341.767       16.708      861.413
08/21/2014  04:42:00      -43.152      -11.192       -6.545       19.277       15.333       14.170      371.620      235.111      200.787        0.142        0.040       44.580       12.914        0.084      341.826       16.808      861.423
08/21/2014  04:43:00      -42.322       -1.166      -13.767       28.760       19.757       11.912      827.115      390.334      141.889        0.167        0.068       42.339        9.462        0.050      341.942       17.004      861.430
08/21/2014  04:44:00      -75.400       10.477       -5.835       21.002       17.316       13.584      441.088      299.828      184.518        0.338        0.046       76.124       11.281        0.022      341.962       17.040      861.435
08/21/2014  04:45:00      -66.788        8.943       -6.328       16.906       18.711       13.668      285.820      350.084      186.828        0.270        0.041       67.384        6.868        0.010      341.948       17.015      861.430
08/21/2014  04:46:00      -87.185       26.929      -11.549       29.814       24.170       18.272      888.885      584.173      333.881        0.513        0.090       91.249       16.779        0.034      342.105       17.281      861.428
08/21/2014  04:47:00      -82.464       26.563       -7.125       23.239       17.194       16.084      540.053      295.638      258.707        0.433        0.055       86.637        9.900        0.013      342.138       17.338      861.418
08/21/2014  04:48:00      -74.890       -7.027       -8.477       21.600       21.618       11.736      466.545      467.317      137.730        0.340        0.054       75.219        8.266        0.012      342.082       17.241      861.414
08/21/2014  04:49:00      -76.245      -23.273      -12.704       12.951       17.136        9.088      167.733      293.646       82.590        0.353        0.027       79.718        5.778        0.005      341.885       16.907      861.416
08/21/2014  04:50:00      -56.507      -30.172      -11.420       27.560       18.810       11.393      759.552      353.804      129.790        0.274        0.062       64.058        8.615        0.018      341.814       16.790      861.421
08/21/2014  04:51:00      -93.177      -37.753       -6.079       21.455       24.534       16.662      460.327      601.933      277.619        0.574        0.067      100.535        9.811        0.010      341.915       16.960      861.427
08/21/2014  04:52:00      -67.814       -8.461       -5.861       16.086       18.382       13.989      258.769      337.903      195.683        0.275        0.040       68.339       10.712        0.025      342.032       17.157      861.426
08/21/2014  04:53:00      -94.453       -9.315       -9.403       37.771       16.773       12.786     1426.660      281.338      163.482        0.548        0.094       94.911       15.019        0.025      342.108       17.286      861.425
08/21/2014  04:54:00      -95.598      -23.729       -5.588       29.068       17.270       17.415      844.960      298.265      303.286        0.559        0.072       98.499       11.421        0.013      342.002       17.108      861.425
08/21/2014  04:55:00      -65.105      -14.095       -2.572       24.620       28.020       14.480      606.141      785.129      209.684        0.302        0.080       66.614       10.921        0.027      341.801       16.765      861.434
08/21/2014  04:56:00      -94.642        5.774       -3.610       32.158       18.813       14.038     1034.144      353.945      197.070        0.529        0.079       94.818       16.577        0.031      341.837       16.826      861.435
08/21/2014  04:57:00      -79.073        0.565       -2.175       39.847       24.937       19.302     1587.756      621.862      372.549        0.442        0.129       79.075       18.364        0.054      341.773       16.719      861.431
08/21/2014  04:58:00      -87.192      -11.112        1.582       29.058       23.865       17.146      844.394      569.537      293.976        0.472        0.085       87.897       13.063        0.022      341.919       16.965      861.422
08/21/2014  04:59:00      -73.096       -5.605       -2.879       23.032       17.734       10.119      530.456      314.507      102.385        0.316        0.047       73.310       12.075        0.027      342.058       17.201      861.417
08/21/2014  05:00:00      -52.406       -5.969       -3.556       35.429       11.981       13.380     1255.219      143.540      179.037        0.219        0.079       52.745       18.346        0.121      342.093       17.261      861.414
08/21/2014  05:01:00      -22.396       -7.938        0.543       18.968       12.702        5.950      359.775      161.341       35.397        0.056        0.028       23.761        6.648        0.078      342.086       17.250      861.410
08/21/2014  05:02:00       -8.730      -12.819       -0.430        8.226        6.794        5.253       67.665       46.159       27.596        0.019        0.007       15.509        4.468        0.083      342.140       17.339      861.401
08/21/2014  05:03:00       -3.752      -22.248       -1.269        8.913        7.186        5.083       79.442       51.645       25.833        0.033        0.008       22.563        3.201        0.020      342.246       17.524      861.398
08/21/2014  05:04:00      -28.155      -13.699       -5.323        8.000        5.418        4.300       64.002       29.353       18.490        0.056        0.006       31.311        3.361        0.012      342.206       17.450      861.408
08/21/2014  05:05:00      -43.879      -21.956       -6.598        6.398        6.451        3.814       40.934       41.614       14.548        0.127        0.005       49.065        2.149        0.002      342.180       17.410      861.405
08/21/2014  05:06:00      -59.210      -27.297       -9.354        7.719        7.873        6.736       59.581       61.979       45.371        0.225        0.008       65.199        1.918        0.001      342.105       17.279      861.406
08/21/2014  05:07:00      -50.083      -15.040       -5.220        9.770        8.915        6.023       95.450       79.472       36.273        0.149        0.011       52.292        4.300        0.007      342.075       17.229      861.401
08/21/2014  05:08:00      -47.979      -11.363       -6.774       10.055        6.681        6.041      101.102       44.630       36.490        0.133        0.009       49.306        4.558        0.009      342.046       17.182      861.408
08/21/2014  05:09:00      -52.325       -7.596       -8.110       16.660       10.294        7.648      277.569      105.975       58.496        0.165        0.022       52.873        4.113        0.006      342.058       17.202      861.409
08/21/2014  05:10:00      -53.943       -8.503       -4.816       18.016       15.319       10.258      324.564      234.674      105.228        0.183        0.033       54.609       10.616        0.038      342.067       17.217      861.406
08/21/2014  05:11:00      -57.580      -18.908       -5.871       11.174        9.870        6.455      124.853       97.420       41.672        0.199        0.013       60.605        4.060        0.004      342.230       17.493      861.402
08/21/2014  05:12:00      -41.579       -5.038       -4.037       19.036        9.221        6.926      362.378       85.027       47.969        0.113        0.025       41.883        8.343        0.040      342.082       17.242      861.403
08/21/2014  05:13:00      -58.734        1.453       -6.032       15.948        9.852        6.989      254.325       97.059       48.850        0.194        0.020       58.752        6.807        0.013      342.183       17.414      861.402
08/21/2014  05:14:00      -46.300        0.339       -4.369       11.720        6.045        5.638      137.354       36.545       31.787        0.118        0.010       46.302        5.534        0.014      342.206       17.455      861.401
08/21/2014  05:15:00      -62.744       15.562       -5.330       10.793       12.326        6.497      116.485      151.930       42.214        0.226        0.016       64.645        3.779        0.003      342.109       17.290      861.397
08/21/2014  05:16:00      -42.655        6.247      -12.917       14.342       14.382        8.698      205.699      206.847       75.656        0.126        0.024       43.110        7.421        0.030      342.260       17.545      861.388
08/21/2014  05:17:00      -20.856        0.322       -2.681        6.643       10.244        4.514       44.136      104.936       20.378        0.031        0.008       20.859        2.671        0.016      342.027       17.149      861.378
08/21/2014  05:18:00      -26.019       -1.227       -1.882       13.281        7.012        5.220      176.395       49.164       27.250        0.047        0.013       26.048        5.598        0.046      342.060       17.205      861.372
08/21/2014  05:19:00      -12.355        0.697       -4.317       12.958        9.355        4.940      167.915       87.514       24.400        0.023        0.014       12.375        3.353        0.073      342.040       17.172      861.364
08/21/2014  05:20:00      -28.350      -12.302       -3.932       29.774       10.476        8.940      886.505      109.757       79.920        0.102        0.054       30.904       13.098        0.180      342.137       17.337      861.365
08/21/2014  05:21:00      -57.718      -11.531      -11.908       13.771       12.292        6.332      189.632      151.099       40.091        0.199        0.019       58.858        6.634        0.013      341.724       16.635      861.373
08/21/2014  05:22:00      -61.462      -10.400      -11.056       18.034       15.814        9.815      325.214      250.098       96.333        0.234        0.034       62.335        5.468        0.008      341.812       16.786      861.380
08/21/2014  05:23:00      -40.699       -8.438       -9.355       18.323       18.394       11.924      335.743      338.336      142.187        0.132        0.041       41.564        9.591        0.053      341.649       16.509      861.375
08/21/2014  05:24:00      -40.561        1.578       -8.546        8.490        8.053        4.373       72.084       64.846       19.125        0.094        0.008       40.592        3.368        0.007      342.036       17.162      861.377
08/21/2014  05:25:00      -67.610      -23.105       -9.836       14.896       14.641        9.755      221.877      214.362       95.165        0.287        0.027       71.449        5.737        0.006      341.852       16.852      861.373
08/21/2014  05:26:00      -64.907      -24.611       -7.812       11.684       14.139       10.333      136.523      199.905      106.779        0.266        0.022       69.416        8.351        0.014      341.563       16.362      861.368
08/21/2014  05:27:00      -58.025      -24.916       -4.886       16.008       11.085        8.261      256.247      122.887       68.242        0.223        0.022       63.148        7.373        0.014      341.568       16.369      861.368
08/21/2014  05:28:00      -31.207       -7.524       -4.168        9.792        9.453        6.053       95.885       89.366       36.636        0.063        0.011       32.101        2.780        0.007      341.676       16.552      861.374
08/21/2014  05:29:00      -46.950       -1.710      -10.500       11.103        7.065        6.682      123.281       49.915       44.652        0.127        0.011       46.981        5.601        0.014      341.737       16.658      861.382
08/21/2014  05:30:00      -73.802       -6.674       -9.666       27.622       15.003        9.034      763.001      225.079       81.605        0.333        0.053       74.103        5.915        0.006      341.674       16.551      861.385
08/21/2014  05:31:00      -84.610      -46.052       -7.893       21.878       17.986       13.264      478.637      323.495      175.943        0.516        0.049       96.331        4.294        0.002      341.574       16.379      861.382
08/21/2014  05:32:00      -95.198      -41.587       -1.709       31.398       23.132       16.855      985.847      535.090      284.094        0.630        0.090      103.885       15.290        0.022      341.527       16.302      861.383
08/21/2014  05:33:00     -127.894      -41.026       -9.406       13.582       15.161       12.128      184.473      229.868      147.092        0.934        0.028      134.313        7.586        0.003      341.553       16.345      861.382
08/21/2014  05:34:00     -113.075      -32.511       -3.739       27.206       26.178       16.551      740.177      685.309      273.944        0.778        0.085      117.656       13.479        0.013      341.466       16.197      861.378
08/21/2014  05:35:00     -139.032      -61.900       -2.786       30.098       36.405       20.119      905.896     1325.332      404.769        1.290        0.132      152.189       17.515        0.013      341.558       16.353      861.378
08/21/2014  05:36:00     -108.182      -50.888       -6.119       29.209       19.096       19.428      853.140      364.663      377.446        0.796        0.080      119.553       18.285        0.023      341.588       16.405      861.389
08/21/2014  05:37:00      -44.125      -26.892       11.221       42.023       24.744       19.500     1765.892      612.241      380.239        0.278        0.138       51.674       21.672        0.176      341.626       16.468      861.386
08/21/2014  05:38:00      -68.690      -73.607        5.460       36.984       33.829       21.182     1367.782     1144.421      448.666        0.656        0.148      100.679       21.042        0.044      341.657       16.522      861.390
08/21/2014  05:39:00      -65.423      -63.130        0.943       37.630       34.352       20.819     1416.001     1180.076      433.451        0.565        0.151       90.915       18.167        0.040      341.703       16.599      861.382
08/21/2014  05:40:00     -124.609      -90.888        2.226       51.645       41.531       22.444     2667.256     1724.842      503.718        1.434        0.245      154.233       23.833        0.024      341.723       16.634      861.373
08/21/2014  05:41:00      -88.947      -64.876        1.323       55.065       36.647       26.494     3032.200     1343.035      701.937        0.860        0.254      110.093       31.179        0.080      341.679       16.560      861.377
08/21/2014  05:42:00      -47.050      -50.362        4.426       40.961       27.439       17.165     1677.791      752.872      294.652        0.375        0.136       68.921       18.666        0.073      341.724       16.636      861.377
08/21/2014  05:43:00      -29.032      -62.457        6.597       26.340       23.018       21.291      693.771      529.815      453.317        0.323        0.084       68.874       18.710        0.074      341.809       16.780      861.371
08/21/2014  05:44:00       -1.787      -15.763      -15.759       15.148       20.885        8.345      229.448      436.175       69.646        0.062        0.037       15.864        7.072        0.199      341.848       16.845      861.364
08/21/2014  05:45:00      -17.680       -2.798       -2.467        9.801        8.555        6.043       96.054       73.185       36.519        0.027        0.010       17.900        3.378        0.036      341.767       16.708      861.359
08/21/2014  05:46:00      -29.670      -17.952       -2.652       14.323       13.898        5.927      205.145      193.167       35.128        0.082        0.022       34.678        5.047        0.021      341.807       16.777      861.362
08/21/2014  05:47:00      -24.245      -28.382       -0.590       17.032       14.258       10.667      290.080      203.295      113.788        0.100        0.030       37.328       10.055        0.073      341.793       16.753      861.368
08/21/2014  05:48:00      -17.634      -17.757        4.816       27.034       16.083       14.727      730.825      258.648      216.897        0.093        0.060       25.025       12.883        0.265      341.733       16.652      861.366
08/21/2014  05:49:00       -5.258      -26.778        5.785       16.181       18.012       12.365      261.835      324.423      152.896        0.076        0.037       27.290        9.974        0.134      341.678       16.557      861.376
08/21/2014  05:50:00      -32.480      -58.057        7.062       30.472       35.179       13.755      928.549     1237.538      189.204        0.341        0.118       66.525       18.191        0.075      341.851       16.851      861.403
08/21/2014  05:51:00      -36.675      -73.815       -1.169       23.210       31.219       15.416      538.694      974.657      237.658        0.427        0.088       82.424       13.412        0.026      341.904       16.940      861.416
08/21/2014  05:52:00      -66.145     -104.298       -1.461       29.113       49.469       17.450      847.571     2447.171      304.495        0.943        0.180      123.504       13.964        0.013      341.887       16.912      861.428
08/21/2014  05:53:00      -61.289      -60.364        4.029       44.093       22.240       22.295     1944.206      494.625      497.069        0.518        0.147       86.024       25.682        0.089      341.743       16.669      861.434
08/21/2014  05:54:00     -104.200      -72.855       -3.081       42.328       31.033       20.584     1791.648      963.055      423.698        0.968        0.159      127.143       18.886        0.022      341.660       16.526      861.435
08/21/2014  05:55:00      -95.951      -62.949       -4.176       33.671       21.053       17.255     1133.739      443.231      297.738        0.753        0.094      114.757        9.560        0.007      341.627       16.471      861.445
08/21/2014  05:56:00     -119.068      -89.055       -7.041       38.620       31.483       19.438     1491.527      991.177      377.836        1.251        0.143      148.688       22.149        0.022      341.625       16.465      861.451
08/21/2014  05:57:00     -118.485      -81.081       -2.740       38.285       27.108       16.675     1465.773      734.829      278.068        1.155        0.124      143.571       11.345        0.006      341.650       16.509      861.452
08/21/2014  05:58:00      -97.246      -73.130        2.283       47.831       31.166       20.577     2287.791      971.314      423.418        0.925        0.184      121.675       17.660        0.021      341.556       16.349      861.459
08/21/2014  05:59:00      -80.329      -75.592        1.348       34.368       39.567       22.942     1181.153     1565.573      526.325        0.772        0.164      110.304       22.046        0.040      341.560       16.358      861.475
08/21/2014  06:00:00     -107.848      -72.828        0.491       44.392       30.259       27.189     1970.666      915.609      739.258        1.028        0.181      130.135       20.910        0.026      341.594       16.414      861.476
08/21/2014  06:01:00     -105.171      -86.090        4.761       46.022       35.043       24.351     2118.037     1227.986      592.960        1.122        0.197      135.913       25.456        0.035      341.613       16.447      861.473
08/21/2014  06:02:00      -94.508      -76.260       -4.145       36.864       33.507       22.313     1358.981     1122.697      497.888        0.887        0.149      121.439       22.106        0.033      341.546       16.334      861.459
08/21/2014  06:03:00      -83.242      -53.966        2.787       27.491       38.136       18.241      755.746     1454.367      332.729        0.620        0.127       99.205       15.670        0.025      341.565       16.364      861.463
08/21/2014  06:04:00      -77.790      -59.972        0.439       37.962       24.718       21.093     1441.118      610.986      444.923        0.607        0.125       98.223       21.704        0.049      341.521       16.290      861.452
08/21/2014  06:05:00     -103.398      -77.908       -2.291       24.699       27.505       17.756      610.052      756.504      315.284        0.922        0.084      129.463       16.513        0.016      341.494       16.243      861.459
08/21/2014  06:06:00     -105.214      -69.160       -6.764       35.331       27.799       19.496     1248.315      772.777      380.098        0.915        0.120      125.909       12.278        0.010      341.515       16.279      861.461
08/21/2014  06:07:00      -89.836      -38.743       -6.898       33.981       30.685       18.839     1154.675      941.590      354.919        0.603        0.123       97.834       15.528        0.025      341.383       16.058      861.460
08/21/2014  06:08:00      -92.819      -20.848       -2.802       27.287       24.327       17.747      744.569      591.808      314.958        0.535        0.083       95.132       12.328        0.017      341.232       15.804      861.468
08/21/2014  06:09:00      -75.710      -11.029       -4.001       33.127       23.649       15.976     1097.399      559.261      255.233        0.389        0.096       76.509       16.238        0.045      341.168       15.693      861.474
08/21/2014  06:10:00      -90.647      -27.949        0.591       26.035       16.960       14.969      677.809      287.648      224.080        0.509        0.059       94.858       15.138        0.025      341.180       15.714      861.476
08/21/2014  06:11:00      -69.583      -53.937       -2.581       34.784       18.446       16.960     1209.953      340.245      287.638        0.480        0.092       88.040       14.936        0.029      341.238       15.812      861.478
08/21/2014  06:12:00      -73.761      -61.873       -6.577       41.556       30.734       18.784     1726.915      944.584      352.822        0.617        0.151       96.275       17.708        0.034      341.234       15.804      861.492
08/21/2014  06:13:00      -97.216     -102.817        0.007       54.094       40.720       29.398     2926.149     1658.156      864.259        1.273        0.272      141.500       26.216        0.034      341.339       15.983      861.503
08/21/2014  06:14:00     -119.816      -59.343        2.712       35.834       20.522       19.013     1284.048      421.133      361.484        0.998        0.103      133.706       13.673        0.010      341.293       15.906      861.506
08/21/2014  06:15:00     -119.156      -32.537       -0.060       36.506       34.137       19.221     1332.682     1165.366      369.463        0.906        0.143      123.519       19.123        0.024      341.231       15.801      861.507
08/21/2014  06:16:00     -147.867      -22.934      -14.166       26.910       20.291       16.726      724.160      411.745      279.749        1.200        0.071      149.635       10.951        0.005      341.050       15.493      861.525
08/21/2014  06:17:00     -139.999      -21.747       -7.157       27.754       30.021       20.407      770.310      901.232      416.432        1.111        0.104      141.678       13.609        0.009      340.976       15.369      861.535
08/21/2014  06:18:00     -123.373      -30.310      -10.395       37.380       26.753       14.531     1397.302      715.714      211.161        0.929        0.116      127.042       11.975        0.009      340.955       15.333      861.539
08/21/2014  06:19:00     -137.888      -30.588      -16.864       15.127       14.025       14.379      228.838      196.690      206.749        1.043        0.032      141.240        8.374        0.004      341.123       15.617      861.545
08/21/2014  06:20:00     -131.174      -28.979      -17.696       12.138        9.880        8.805      147.330       97.624       77.527        0.934        0.016      134.337        6.046        0.002      341.141       15.648      861.555
08/21/2014  06:21:00     -107.884      -37.696       -7.831       19.306       16.404       13.703      372.703      269.099      187.765        0.698        0.041      114.280        7.928        0.005      341.122       15.615      861.562
08/21/2014  06:22:00     -114.910      -58.872       -5.813       21.921       23.155       14.610      480.515      536.170      213.460        0.897        0.062      129.113       13.757        0.011      341.189       15.729      861.572
08/21/2014  06:23:00      -76.459      -43.740        5.729       47.219       26.565       23.565     2229.608      705.719      555.315        0.564        0.175       88.086       24.412        0.077      341.197       15.744      861.586
08/21/2014  06:24:00     -107.529      -45.663       -9.582       22.058       25.272       14.402      486.543      638.662      207.407        0.754        0.067      116.823       12.842        0.012      341.220       15.783      861.612
08/21/2014  06:25:00     -100.324      -44.791      -15.027       44.704       38.748       13.828     1998.446     1501.392      191.214        0.799        0.185      109.869        6.881        0.004      341.110       15.594      861.636
08/21/2014  06:26:00      -82.093        1.522       -9.440       41.822       33.833       21.309     1749.051     1144.694      454.057        0.509        0.167       82.107       21.623        0.069      341.177       15.709      861.651
08/21/2014  06:27:00      -77.039       26.484       -0.016       44.022       31.713       22.956     1937.971     1005.693      526.997        0.505        0.174       81.464       18.084        0.049      341.315       15.942      861.663
08/21/2014  06:28:00      -60.622       24.777      -14.139       20.099       33.047       13.896      403.972     1092.122      193.101        0.309        0.084       65.490       12.783        0.038      341.404       16.092      861.676
08/21/2014  06:29:00      -50.692      -16.907       -0.549       36.257       30.883       18.328     1314.568      953.762      335.920        0.273        0.130       53.437       10.351        0.038      341.284       15.890      861.695
08/21/2014  06:30:00       11.781      -23.119       11.083       18.183       19.400       17.520      330.630      376.341      306.967        0.090        0.051       25.947       11.227        0.187      341.146       15.657      861.715
08/21/2014  06:31:00       14.819      -28.737       -5.290       20.111       15.424       17.237      404.466      237.889      297.117        0.101        0.047       32.333        9.493        0.086      341.088       15.558      861.741
08/21/2014  06:32:00       -8.263      -27.160       11.966       31.130       18.533       21.584      969.054      343.460      465.856        0.136        0.089       28.390       18.144        0.408      340.974       15.366      861.752
08/21/2014  06:33:00      -59.101      -48.134       -5.605       28.378       20.534       12.556      805.310      421.658      157.655        0.361        0.069       76.222       10.219        0.018      340.898       15.234      861.762
08/21/2014  06:34:00      -32.473      -33.129       -1.545       24.022       13.362       13.343      577.075      178.541      178.031        0.154        0.047       46.390       13.234        0.081      341.005       15.419      861.764
08/21/2014  06:35:00      -34.619      -28.519        5.106       31.523       17.287       13.792      993.678      298.835      190.222        0.176        0.074       44.853       14.605        0.106      341.077       15.541      861.784
08/21/2014  06:36:00      -37.616      -29.450        2.067       16.862       14.487        8.567      284.325      209.861       73.399        0.143        0.028       47.773        5.455        0.013      341.279       15.881      861.801
08/21/2014  06:37:00      -67.485      -50.268       -2.431       35.496       18.400       15.463     1259.939      338.550      239.103        0.446        0.092       84.149        9.481        0.013      341.226       15.791      861.832
08/21/2014  06:38:00      -66.922      -34.241       -2.506       38.748       18.524       16.860     1501.409      343.146      284.271        0.389        0.106       75.173       20.603        0.075      341.233       15.803      861.847
08/21/2014  06:39:00      -64.014      -33.699      -10.054       19.116       19.795       13.488      365.431      391.856      181.916        0.314        0.047       72.342        5.534        0.006      341.311       15.935      861.854
08/21/2014  06:40:00      -74.705      -43.314      -10.782       19.123       13.951        9.869      365.695      194.629       97.393        0.412        0.033       86.353        8.388        0.009      341.410       16.102      861.863
08/21/2014  06:41:00     -109.644      -29.504       -5.868       27.073       18.004       18.664      732.941      324.146      348.333        0.717        0.070      113.545       13.084        0.013      341.296       15.910      861.871
08/21/2014  06:42:00     -128.322      -23.461      -17.478       14.977       11.249        9.095      224.320      126.538       82.723        0.888        0.022      130.449        6.515        0.002      341.169       15.695      861.882
08/21/2014  06:43:00      -91.866      -31.771      -10.730       15.798       14.058       10.154      249.577      197.619      103.099        0.506        0.028       97.205        8.486        0.008      341.160       15.679      861.888
08/21/2014  06:44:00      -77.640      -44.139       -6.423       12.837       12.205        4.814      164.790      148.952       23.172        0.418        0.017       89.310        2.923        0.001      341.208       15.761      861.897
08/21/2014  06:45:00      -17.581      -14.192        6.534       21.582       12.786        9.486      465.782      163.471       89.989        0.064        0.036       22.595        7.672        0.115      341.282       15.886      861.902
08/21/2014  06:46:00      -30.605      -65.676        3.770       17.915       14.921        9.780      320.962      222.629       95.656        0.295        0.032       72.457        7.071        0.010      341.448       16.166      861.904
08/21/2014  06:47:00      -50.744      -77.782        1.700       25.198       31.954       20.390      634.924     1021.037      415.753        0.535        0.104       92.871       11.868        0.016      341.518       16.286      861.915
08/21/2014  06:48:00      -35.604      -44.341        8.254       38.338       28.405       22.215     1469.790      806.842      493.527        0.304        0.139       56.866       16.396        0.083      341.446       16.163      861.935
08/21/2014  06:49:00      -94.257      -43.262        3.333       48.973       19.881       19.655     2398.404      395.243      386.318        0.697        0.159      103.711       23.829        0.053      341.352       16.005      861.947
08/21/2014  06:50:00     -130.429      -36.645      -13.726       31.129       34.209       21.361      968.994     1170.252      456.302        1.057        0.130      135.479       21.515        0.025      341.239       15.814      861.959
08/21/2014  06:51:00      -41.325      -34.137        4.366       43.393       15.041       17.509     1882.949      226.244      306.560        0.265        0.121       53.601       18.171        0.115      341.211       15.767      861.957
08/21/2014  06:52:00      -26.146      -21.868        1.565       14.953       11.824       12.038      223.594      139.797      144.904        0.084        0.025       34.086        9.737        0.082      341.260       15.850      861.944
08/21/2014  06:53:00      -45.029      -30.194       -7.625       21.442       18.267       16.565      459.765      333.688      274.392        0.203        0.053       54.215       14.971        0.076      341.377       16.047      861.934
08/21/2014  06:54:00     -122.775      -38.239      -13.517       32.309       21.818       14.093     1043.891      476.005      198.599        0.922        0.086      128.592       14.300        0.012      341.243       15.821      861.943
08/21/2014  06:55:00     -161.790      -73.025       -5.344       28.914       29.875       17.636      836.044      892.533      311.035        1.679        0.102      177.507       11.197        0.004      341.189       15.730      861.956
08/21/2014  06:56:00     -134.406      -64.293       -6.597       35.162       24.099       16.586     1236.335      580.743      275.105        1.217        0.105      148.992       15.868        0.011      341.152       15.666      861.946
08/21/2014  06:57:00      -87.098      -41.421        1.406       45.736       36.684       22.084     2091.825     1345.713      487.709        0.661        0.196       96.446       21.922        0.052      341.242       15.820      861.929
08/21/2014  06:58:00      -38.456      -47.936        5.171       27.839       20.644       19.674      775.012      426.186      387.067        0.270        0.079       61.455       16.094        0.069      341.285       15.892      861.920
08/21/2014  06:59:00      -71.037      -46.834        1.682       15.325       17.012       13.886      234.859      289.411      192.827        0.398        0.036       85.086       10.363        0.015      341.301       15.917      861.922
08/21/2014  07:00:00      -84.533      -62.913       -5.176       21.619       19.500       14.370      467.393      380.240      206.509        0.609        0.053      105.374       11.784        0.013      341.323       15.955      861.929
08/21/2014  07:01:00     -108.500      -50.557       -2.205       24.595       23.719       16.065      604.907      562.604      258.072        0.788        0.071      119.701       14.817        0.015      341.296       15.911      861.953
08/21/2014  07:02:00      -62.158      -37.150        1.887       40.642       22.737       16.324     1651.801      516.953      266.485        0.384        0.122       72.413       20.016        0.076      341.295       15.909      861.976
08/21/2014  07:03:00      -42.397      -64.445        1.301       24.497       36.957       20.335      600.083     1365.826      413.509        0.417        0.119       77.140       22.800        0.087      341.371       16.038      861.972
08/21/2014  07:04:00      -18.466      -42.310       -5.183       27.241       16.622       11.676      742.087      276.287      136.328        0.166        0.058       46.164        8.108        0.031      341.415       16.111      861.977
08/21/2014  07:05:00      -36.324      -56.035       -1.851       18.001       24.552       15.568      324.037      602.778      242.375        0.282        0.058       66.779       10.947        0.027      341.410       16.102      861.986
08/21/2014  07:06:00      -53.534      -10.736       -2.870       10.058       14.824        9.139      101.162      219.765       83.525        0.170        0.020       54.600        8.069        0.022      341.413       16.109      861.993
08/21/2014  07:07:00      -17.187      -10.568       -0.798       13.041       13.481        9.268      170.065      181.748       85.898        0.042        0.022       20.176        8.028        0.158      341.515       16.280      862.007
08/21/2014  07:08:00      -22.419       13.981        5.637       10.208       10.133       12.603      104.208      102.680      158.833        0.055        0.018       26.421        5.593        0.045      341.558       16.353      862.010
08/21/2014  07:09:00      -30.491       -5.567        3.049       22.356       13.575       10.657      499.798      184.275      113.573        0.088        0.040       30.995        9.013        0.085      341.509       16.271      862.028
08/21/2014  07:10:00      -47.087      -21.597        1.880       22.456       17.121       13.327      504.287      293.145      177.619        0.183        0.049       51.804       11.089        0.046      341.487       16.232      862.057
08/21/2014  07:11:00      -81.015      -35.599       -8.854       26.003       19.258       18.002      676.147      370.856      324.068        0.464        0.069       88.491       15.130        0.029      341.409       16.101      862.067
08/21/2014  07:12:00      -73.766      -41.302        3.389       29.247       44.154       24.866      855.362     1949.612      618.307        0.529        0.171       84.542       26.888        0.101      341.386       16.062      862.087
08/21/2014  07:13:00      -22.073      -34.059        4.704       24.787       29.340       16.776      614.375      860.853      281.446        0.171        0.088       40.587       12.191        0.090      341.499       16.255      862.093
08/21/2014  07:14:00      -59.200      -59.320        1.402       37.854       21.769       16.495     1432.892      473.869      272.085        0.460        0.109       83.806       11.145        0.018      341.449       16.169      862.101
08/21/2014  07:15:00      -25.631      -36.199       -0.407       27.149       18.181       15.463      737.058      330.556      239.096        0.164        0.065       44.355       14.231        0.103      341.637       16.489      862.110
08/21/2014  07:16:00      -39.833      -54.374       -3.340       23.065       35.950       20.753      532.003     1292.419      430.689        0.340        0.113       67.403       23.878        0.125      341.535       16.314      862.123
08/21/2014  07:17:00      -49.484      -75.091       -4.668       28.579       22.774       17.139      816.767      518.649      293.750        0.487        0.081       89.929       12.880        0.021      341.480       16.221      862.135
08/21/2014  07:18:00      -35.032      -62.156        3.455       26.466       27.672       10.567      700.445      765.729      111.661        0.334        0.079       71.348        9.816        0.019      341.515       16.281      862.143
08/21/2014  07:19:00      -36.788      -63.915        2.794       23.492       30.246       19.668      551.895      914.810      386.816        0.365        0.093       73.746       17.978        0.059      341.576       16.384      862.154
08/21/2014  07:20:00      -23.246      -48.483       -1.373       19.031       22.082       11.341      362.176      487.601      128.613        0.194        0.049       53.767        8.542        0.025      341.596       16.417      862.158
08/21/2014  07:21:00      -39.796      -47.057       -5.526       11.479       14.093       11.930      131.769      198.622      142.323        0.215        0.024       61.629        6.401        0.011      341.591       16.410      862.166
08/21/2014  07:22:00      -42.470       -6.286        0.451        6.655       14.379        7.472       44.288      206.759       55.836        0.108        0.015       42.933        6.329        0.022      341.629       16.472      862.161
08/21/2014  07:23:00      -45.053       -5.820       -2.974       12.831       13.857       11.398      164.625      192.007      129.924        0.128        0.024       45.428        8.137        0.032      341.682       16.566      862.173
08/21/2014  07:24:00      -20.789        2.356       10.404       17.199       11.464       12.918      295.820      131.433      166.883        0.057        0.030       20.922       10.058        0.231      341.980       17.070      862.173
08/21/2014  07:25:00       -9.627      -23.002        6.688       15.702       21.089       15.307      246.548      444.725      234.309        0.080        0.046       24.935       16.515        0.439      341.969       17.052      862.184
08/21/2014  07:26:00      -13.968      -26.039       -4.604       12.235       15.307       11.990      149.707      234.310      143.753        0.071        0.026       29.549        6.940        0.055      341.718       16.625      862.189
08/21/2014  07:27:00        0.857       -5.795       13.033       15.911        9.799       16.242      253.161       96.014      263.814        0.041        0.031        5.858       10.319        3.103      342.100       17.274      862.201
08/21/2014  07:28:00      -22.860      -25.234       -5.220       14.935       27.093        7.464      223.053      734.049       55.718        0.110        0.051       34.049        7.001        0.042      341.847       16.845      862.206
08/21/2014  07:29:00      -40.501      -45.161       -2.056       25.076       25.915       13.240      628.829      671.576      175.311        0.258        0.074       60.662       15.508        0.065      341.838       16.828      862.219
08/21/2014  07:30:00      -37.467      -37.963       -9.941       18.049       16.695       13.493      325.774      278.707      182.065        0.186        0.039       53.338        6.458        0.015      341.845       16.840      862.226
08/21/2014  07:31:00      -15.048      -30.659        2.158        8.643        9.440        9.716       74.707       89.116       94.407        0.071        0.013       34.153        5.877        0.030      341.831       16.818      862.240
08/21/2014  07:32:00      -25.584      -16.496        1.608       15.929       17.173       10.073      253.743      294.897      101.459        0.079        0.033       30.441        9.001        0.087      341.884       16.906      862.251
08/21/2014  07:33:00      -37.297      -17.570       -6.038        9.260       11.868       16.295       85.755      140.847      265.523        0.111        0.025       41.228        7.234        0.031      341.913       16.956      862.261
08/21/2014  07:34:00      -32.723      -24.559       -6.306        9.420       18.736       10.721       88.738      351.050      114.947        0.113        0.028       40.914       11.686        0.082      341.921       16.968      862.265
08/21/2014  07:35:00      -31.844      -38.550       -4.854        9.289        9.768        8.474       86.289       95.409       71.815        0.139        0.013       50.001        3.318        0.004      341.924       16.976      862.277
08/21/2014  07:36:00      -10.237      -18.594       14.592        9.319       13.662       10.807       86.845      186.649      116.786        0.053        0.020       21.226        6.020        0.080      342.209       17.458      862.287
08/21/2014  07:37:00      -29.508      -21.064       -1.364        4.975        7.137        5.923       24.749       50.938       35.077        0.071        0.006       36.255        2.854        0.006      342.071       17.226      862.293
08/21/2014  07:38:00      -35.527       -2.854       -3.307        9.375        9.810        6.405       87.881       96.237       41.018        0.075        0.011       35.642        3.431        0.009      342.049       17.189      862.302
08/21/2014  07:39:00      -36.406        6.744       -6.677       12.086        9.328        7.030      146.075       87.006       49.423        0.085        0.014       37.025        5.512        0.022      342.039       17.171      862.302
08/21/2014  07:40:00      -40.928       -2.710       -2.799        8.826        8.986       10.037       77.904       80.751      100.738        0.097        0.013       41.018        4.305        0.011      342.089       17.255      862.309
08/21/2014  07:41:00      -36.741        8.612       -6.222        7.427        6.818        8.201       55.166       46.479       67.259        0.082        0.008       37.737        4.244        0.013      342.113       17.298      862.303
08/21/2014  07:42:00      -22.075       10.274       -0.863        7.521       13.111        7.767       56.569      171.905       60.332        0.044        0.014       24.349        4.186        0.030      342.284       17.585      862.299
08/21/2014  07:43:00      -39.687       -1.590       -1.446       14.202       11.904       11.578      201.700      141.702      134.046        0.103        0.024       39.719        8.575        0.047      342.208       17.457      862.293
08/21/2014  07:44:00      -39.657       -2.975       -6.804       16.758       14.111       10.611      280.840      199.120      112.585        0.111        0.030       39.769       10.305        0.067      342.247       17.523      862.292
08/21/2014  07:45:00      -38.002      -16.273       -3.713       18.741       12.361        8.436      351.228      152.801       71.174        0.115        0.029       41.339        3.283        0.006      342.326       17.657      862.296
08/21/2014  07:46:00      -55.099       -9.306       -4.696       11.477       13.943        8.695      131.724      194.402       75.603        0.177        0.020       55.879        6.312        0.013      342.249       17.524      862.296
08/21/2014  07:47:00      -42.122       -2.947       -2.402        6.582        6.267        7.739       43.327       39.280       59.886        0.097        0.007       42.225        5.397        0.016      342.273       17.567      862.305
08/21/2014  07:48:00      -21.787       -0.069        2.180        7.545        5.384        8.257       56.934       28.987       68.175        0.032        0.008       21.787        4.285        0.039      342.413       17.807      862.304
08/21/2014  07:49:00      -27.533        5.084       -6.192        5.190        6.246        4.715       26.936       39.008       22.228        0.046        0.004       27.998        2.870        0.011      342.341       17.683      862.303
08/21/2014  07:50:00      -26.693      -12.493       -4.988        7.529       15.731        7.654       56.685      247.450       58.586        0.063        0.018       29.471        3.255        0.012      342.393       17.770      862.310
08/21/2014  07:51:00      -39.617      -32.573       -3.167       11.720        9.075        7.149      137.367       82.348       51.108        0.146        0.014       51.289        3.958        0.006      342.428       17.832      862.323
08/21/2014  07:52:00      -32.804      -24.625       -4.268       17.576       19.722        9.510      308.904      388.955       90.439        0.124        0.039       41.018       10.298        0.063      342.536       18.015      862.324
08/21/2014  07:53:00      -48.719      -25.086       -4.610       15.634        9.982        7.586      244.422       99.643       57.541        0.171        0.020       54.798        8.373        0.023      342.497       17.947      862.335
08/21/2014  07:54:00      -20.933      -27.832       -0.240        9.885        9.582        7.936       97.710       91.806       62.982        0.073        0.013       34.826        6.475        0.035      342.504       17.959      862.347
08/21/2014  07:55:00      -19.017      -36.025       -7.202        8.103        7.241        7.618       65.665       52.432       58.028        0.094        0.009       40.736        4.834        0.014      342.446       17.863      862.347
08/21/2014  07:56:00      -28.240      -18.998       -7.935       10.944       15.493       12.207      119.768      240.047      149.010        0.087        0.025       34.036        9.468        0.077      342.523       17.993      862.341
08/21/2014  07:57:00      -33.509        1.554        2.200        8.849       17.716        8.260       78.298      313.867       68.220        0.080        0.023       33.545        4.382        0.017      342.556       18.047      862.344
08/21/2014  07:58:00      -32.564      -48.777       -0.095        8.350       20.437        5.583       69.725      417.668       31.167        0.198        0.026       58.648        3.568        0.004      342.521       17.988      862.347
08/21/2014  07:59:00      -53.178      -41.365       -0.007       24.668       29.726       12.137      608.500      883.632      147.314        0.309        0.082       67.372       10.755        0.025      342.598       18.120      862.347
08/21/2014  08:00:00      -45.299      -46.330        3.424       22.666       20.122       16.329      513.734      404.884      266.628        0.270        0.059       64.796       15.712        0.059      342.617       18.151      862.350
08/21/2014  08:01:00      -56.385       14.403       -2.129       11.475       11.238        7.015      131.681      126.289       49.204        0.185        0.015       58.195        3.075        0.003      342.605       18.131      862.342
08/21/2014  08:02:00      -25.371       -8.594       -1.213       22.427       23.933       12.250      502.991      572.797      150.068        0.097        0.061       26.787        6.332        0.056      342.844       18.539      862.345
08/21/2014  08:03:00      -31.668      -48.099        4.069       19.204       16.943       13.684      368.810      287.061      187.251        0.209        0.042       57.588       13.473        0.055      342.661       18.227      862.355
08/21/2014  08:04:00      -68.505      -56.722       -7.501       20.248       21.864       17.099      409.989      478.029      292.360        0.457        0.059       88.940       12.829        0.021      342.660       18.224      862.347
08/21/2014  08:05:00      -73.336      -64.374       -5.017       32.112       26.143       21.675     1031.197      683.453      469.822        0.587        0.109       97.582       18.985        0.038      342.665       18.234      862.347
08/21/2014  08:06:00      -60.581      -65.891       -4.764       25.596       20.557       11.946      655.148      422.576      142.702        0.463        0.061       89.508       10.791        0.015      342.645       18.200      862.344
08/21/2014  08:07:00      -59.698      -68.510      -10.091       14.144       19.476        8.158      200.059      379.329       66.550        0.450        0.032       90.871        6.575        0.005      342.661       18.224      862.335
08/21/2014  08:08:00      -59.871      -67.212       -6.138       28.398       21.688       18.090      806.440      470.361      327.259        0.487        0.080       90.011       17.817        0.039      342.728       18.339      862.328
08/21/2014  08:09:00      -64.154      -72.537       -0.337       28.408       31.906       19.234      807.023     1017.991      369.964        0.579        0.110       96.836       17.683        0.033      342.768       18.410      862.329
08/21/2014  08:10:00      -28.730      -79.812       -5.884       17.182       26.066       12.857      295.236      679.426      165.292        0.418        0.057       84.826       13.324        0.025      342.763       18.400      862.328
08/21/2014  08:11:00      -11.373      -55.295       -0.344       22.263       16.807       16.047      495.658      282.487      257.498        0.211        0.052       56.452        6.170        0.012      342.808       18.477      862.320
08/21/2014  08:12:00      -25.340      -30.593        0.558       16.722       29.303       13.293      279.609      858.657      176.697        0.145        0.066       39.725       15.203        0.146      342.848       18.545      862.315
08/21/2014  08:13:00      -41.769      -30.293       -3.677       18.021       18.059       11.108      324.740      326.112      123.384        0.172        0.039       51.597        9.300        0.032      342.970       18.753      862.320
08/21/2014  08:14:00      -11.435      -26.428        7.587       21.186       20.561       15.778      448.827      422.753      248.959        0.100        0.056       28.796       12.954        0.202      343.085       18.947      862.321
08/21/2014  08:15:00      -45.961      -45.651       -0.518       41.148       14.357       13.322     1693.191      206.134      177.485        0.314        0.104       64.780       16.109        0.062      342.908       18.646      862.319
08/21/2014  08:16:00      -88.467      -34.739        3.383       32.049       39.993       17.185     1027.122     1599.459      295.336        0.598        0.146       95.044       17.485        0.034      342.917       18.662      862.321
08/21/2014  08:17:00      -52.427      -12.832        5.258       32.261       26.773       21.903     1040.747      716.800      479.727        0.259        0.112       53.974       17.830        0.109      343.151       19.062      862.331
08/21/2014  08:18:00      -21.967      -37.455       11.074       13.033       10.787       12.920      169.848      116.356      166.917        0.123        0.023       43.422        9.891        0.052      342.937       18.695      862.340
08/21/2014  08:19:00      -31.840      -50.451        1.927       19.780       28.017       11.811      391.235      784.959      139.498        0.244        0.066       59.658       10.008        0.028      342.936       18.694      862.348
08/21/2014  08:20:00      -15.724      -61.823        0.327       21.499       24.551       18.685      462.205      602.764      349.138        0.274        0.071       63.792        6.836        0.011      342.911       18.652      862.345
08/21/2014  08:21:00      -15.594      -96.571        1.411       15.890       17.073       10.067      252.495      291.472      101.352        0.511        0.032       97.822        5.072        0.003      342.848       18.544      862.349
08/21/2014  08:22:00      -24.716      -55.973        4.296       16.717       32.574       18.787      279.450     1061.074      352.940        0.273        0.085       61.187       18.870        0.095      343.055       18.898      862.346
08/21/2014  08:23:00      -36.726      -73.120       -0.731       33.043       27.789       15.745     1091.836      772.209      247.920        0.440        0.106       81.825       16.515        0.041      342.950       18.719      862.346
08/21/2014  08:24:00      -53.192      -76.030       -7.105       31.342       24.357       13.431      982.347      593.272      180.384        0.521        0.088       92.790        9.138        0.010      342.919       18.667      862.346
08/21/2014  08:25:00      -54.657      -51.184        1.288       29.108       23.872       20.121      847.281      569.885      404.846        0.372        0.091       74.881       19.458        0.068      343.094       18.964      862.340
08/21/2014  08:26:00      -34.929      -85.286        1.799       26.294       23.247       15.576      691.363      540.446      242.622        0.499        0.074       92.162       15.673        0.029      342.940       18.702      862.342
08/21/2014  08:27:00      -47.618      -59.379       -8.143       22.646       17.695       14.871      512.819      313.112      221.158        0.345        0.052       76.114       12.125        0.025      342.934       18.691      862.344
08/21/2014  08:28:00      -38.905      -33.693        3.549       22.307       14.165       13.256      497.608      200.651      175.732        0.177        0.044       51.467        9.047        0.031      343.021       18.840      862.345
08/21/2014  08:29:00      -55.252      -62.042        0.323       29.225       32.747       17.350      854.082     1072.346      301.030        0.456        0.111       83.078       21.335        0.066      343.079       18.941      862.356
08/21/2014  08:30:00      -43.983      -64.857       -2.421       20.371       20.112       15.046      414.966      404.488      226.393        0.360        0.052       78.364        8.783        0.013      343.030       18.856      862.358
08/21/2014  08:31:00      -12.344      -75.957        1.337       26.863       38.150       14.501      721.616     1455.437      210.290        0.415        0.119       76.953        5.219        0.005      343.000       18.805      862.357
08/21/2014  08:32:00      -63.909     -105.443        2.471       43.750       52.719       26.925     1914.082     2779.334      724.946        1.031        0.271      123.299       25.459        0.043      343.091       18.959      862.358
08/21/2014  08:33:00      -20.596     -104.046        1.279       27.646       26.434       18.045      764.297      698.748      325.622        0.652        0.089      106.065       12.436        0.014      343.031       18.856      862.352
08/21/2014  08:34:00       -5.577      -79.140      -11.638       11.510       12.777       15.157      132.476      163.251      229.739        0.348        0.026       79.336        8.310        0.011      343.043       18.877      862.346
08/21/2014  08:35:00      -42.158      -67.078       -2.615       28.965       24.292       19.806      838.985      590.091      392.262        0.405        0.091       79.226       12.760        0.026      343.174       19.101      862.343
08/21/2014  08:36:00      -42.805      -60.989       -4.048       28.354       37.846       22.518      803.937     1432.337      507.082        0.416        0.137       74.511       20.955        0.079      343.211       19.162      862.343
08/21/2014  08:37:00      -25.116      -73.850        0.097       26.247       23.015       18.379      688.887      529.694      337.804        0.382        0.078       78.004       13.200        0.029      343.130       19.023      862.359
08/21/2014  08:38:00      -35.725      -28.228        4.945       38.288       22.493       20.380     1465.993      505.942      415.348        0.224        0.119       45.531       16.268        0.128      343.292       19.300      862.359
08/21/2014  08:39:00      -32.806      -64.045       -4.904       20.177       31.498       16.785      407.123      992.111      281.732        0.344        0.084       71.958       17.338        0.058      343.150       19.059      862.364
08/21/2014  08:40:00      -38.683      -37.409       -3.605       20.703       21.431       15.794      428.625      459.269      249.460        0.202        0.057       53.812        7.703        0.020      343.286       19.291      862.371
08/21/2014  08:41:00      -43.616      -17.435        4.221       26.001       20.161       14.665      676.036      406.463      215.050        0.176        0.065       46.972       13.738        0.086      343.517       19.685      862.375
08/21/2014  08:42:00      -60.079      -28.648       -0.360       26.620       21.923       13.669      708.632      480.617      186.852        0.290        0.069       66.560       11.468        0.030      343.374       19.439      862.386
08/21/2014  08:43:00       -5.895       10.313       17.644       19.559       13.992       16.973      382.561      195.788      288.085        0.066        0.043       11.879        9.523        0.643      344.287       20.998      862.389
08/21/2014  08:44:00      -21.992        4.064       -0.063        9.699       12.457        9.546       94.067      155.176       91.124        0.042        0.017       22.364        3.239        0.021      343.600       19.827      862.400
08/21/2014  08:45:00      -51.305        9.036      -10.774       10.741       10.953        8.947      115.363      119.962       80.056        0.157        0.016       52.095        4.892        0.009      343.341       19.388      862.398
08/21/2014  08:46:00      -10.885        9.732       10.740       15.823       16.994       15.955      250.374      288.808      254.576        0.056        0.040       14.601       10.007        0.470      344.106       20.691      862.394
08/21/2014  08:47:00      -53.219        5.447        3.983       23.700       18.311       18.179      561.709      335.309      330.462        0.205        0.061       53.497        7.781        0.021      343.743       20.071      862.393
08/21/2014  08:48:00      -27.008      -34.235       19.111       22.173       27.975       21.936      491.636      782.594      481.193        0.201        0.088       43.606       17.549        0.162      343.939       20.404      862.377
08/21/2014  08:49:00      -38.949       -1.787        0.857       25.469       18.258       12.652      648.694      333.350      160.066        0.133        0.057       38.990       10.983        0.079      343.711       20.014      862.368
08/21/2014  08:50:00      -17.304       32.320       37.271       33.304       28.027       27.562     1109.172      785.516      759.691        0.269        0.133       36.661       17.459        0.227      344.040       20.577      862.352
08/21/2014  08:51:00      -24.537      -36.588       -0.646       31.033       33.629       24.873      963.038     1130.893      618.663        0.233        0.136       44.054       12.644        0.082      343.744       20.072      862.332
08/21/2014  08:52:00      -44.845      -29.552        4.994       46.235       35.237       26.553     2137.714     1241.636      705.066        0.350        0.204       53.707       27.462        0.261      343.710       20.014      862.319
08/21/2014  08:53:00      -62.696      -46.753        3.124       39.978       20.369       20.878     1598.209      414.907      435.904        0.429        0.122       78.209       22.956        0.086      343.510       19.673      862.316
08/21/2014  08:54:00      -19.481       -2.250       10.816       23.708       13.757       18.143      562.063      189.245      329.174        0.079        0.054       19.611       17.007        0.752      344.360       21.125      862.306
08/21/2014  08:55:00      -24.533       -9.267       15.081       35.557       20.217       17.188     1264.307      408.742      295.412        0.144        0.098       26.225       21.905        0.698      344.260       20.955      862.290
08/21/2014  08:56:00        2.014        3.830       22.963       29.349       23.891       23.099      861.367      570.772      533.578        0.126        0.098        4.328       16.960       15.357      344.387       21.170      862.283
08/21/2014  08:57:00      -45.508       -7.642       20.455       20.630       27.927       19.347      425.614      779.903      374.320        0.206        0.079       46.145       21.217        0.211      343.874       20.293      862.293
08/21/2014  08:58:00       -2.910       -2.990        9.096       35.027       31.184       26.263     1226.920      972.422      689.732        0.149        0.144        4.172       21.608       26.821      344.179       20.813      862.288
08/21/2014  08:59:00       -5.868        2.349       44.710       29.904       33.375       29.582      894.229     1113.870      875.067        0.246        0.144        6.321       24.177       14.629      344.664       21.644      862.284
08/21/2014  09:00:00       11.731       38.633       60.688       39.754       51.820       35.087     1580.344     2685.324     1231.099        0.540        0.275       40.374       29.863        0.547      344.666       21.647      862.287
08/21/2014  09:01:00       15.680       57.597       72.745       31.675       35.520       18.966     1003.282     1261.696      359.720        0.574        0.131       59.693       19.262        0.104      344.432       21.246      862.296
08/21/2014  09:02:00        5.430      -16.244       39.497       21.857       66.206       46.104      477.718     4383.249     2125.572        0.442        0.349       17.128       52.420        9.367      344.481       21.331      862.299
08/21/2014  09:03:00       13.955       -9.991       21.624       35.578       45.729       35.055     1265.830     2091.135     1228.836        0.267        0.229       17.163       28.985        2.852      344.562       21.469      862.309
08/21/2014  09:04:00       -8.372        4.202       40.458       22.560       29.189       25.696      508.963      852.010      660.279        0.187        0.101        9.367       22.165        5.599      344.917       22.077      862.309
08/21/2014  09:05:00      -74.732      -63.960       -6.119       39.026       32.420       27.550     1523.040     1051.025      758.986        0.652        0.167       98.365       15.175        0.024      343.965       20.449      862.310
08/21/2014  09:06:00      -56.035      -61.797       -7.865       27.290       16.225       14.875      744.759      263.252      221.262        0.412        0.061       83.420        5.508        0.004      343.624       19.863      862.319
08/21/2014  09:07:00      -43.124      -10.703        2.690       12.320       13.242        9.062      151.773      175.340       82.112        0.120        0.020       44.432        7.283        0.027      343.748       20.078      862.311
08/21/2014  09:08:00      -21.873        6.833        6.489       23.070       11.761       20.133      532.248      138.328      405.320        0.082        0.054       22.915       12.067        0.277      344.244       20.926      862.315
08/21/2014  09:09:00      -61.081      -19.164       -3.185       31.811       27.905       21.501     1011.912      778.694      462.293        0.318        0.113       64.017       16.180        0.064      344.001       20.510      862.316
08/21/2014  09:10:00      -27.134      -34.378        1.665       39.971       36.633       24.170     1597.673     1341.954      584.185        0.272        0.176       43.797       22.058        0.254      344.341       21.091      862.323
08/21/2014  09:11:00      -43.110      -35.879        0.126       21.180       30.536       14.789      448.611      932.449      218.717        0.237        0.080       56.087        5.682        0.010      343.927       20.385      862.328
08/21/2014  09:12:00        7.604       11.398       25.208       37.655       21.937       28.373     1417.883      481.252      805.011        0.176        0.135       13.702        8.037        0.344      344.860       21.980      862.322
08/21/2014  09:13:00      -31.755      -35.588       21.147       33.575       35.419       25.160     1127.279     1254.488      633.020        0.287        0.151       47.696       21.108        0.196      344.549       21.447      862.326
08/21/2014  09:14:00      -17.039       16.627       38.389       21.366       29.553       34.470      456.499      873.383     1188.202        0.228        0.126       23.807       13.907        0.341      345.042       22.292      862.322
08/21/2014  09:15:00      -12.340      -55.342       16.502       37.378       59.457       26.647     1397.111     3535.104      710.087        0.456        0.282       56.701       21.990        0.150      344.457       21.290      862.313
08/21/2014  09:16:00        3.368      -62.640       27.130       35.323       79.921       55.425     1247.737     6387.335     3071.973        0.769        0.535       62.730       60.257        0.923      344.526       21.408      862.314
08/21/2014  09:17:00        7.649       49.567       66.271       23.984       47.699       33.224      575.243     2275.211     1103.854        0.543        0.198       50.153       33.435        0.444      344.490       21.346      862.307
08/21/2014  09:18:00       28.572       27.604       63.580       44.014       41.971       31.133     1937.266     1761.604      969.282        0.514        0.233       39.728       21.759        0.300      344.905       22.057      862.311
08/21/2014  09:19:00       15.676      -26.011       42.391       52.376       63.002       45.139     2743.232     3969.290     2037.551        0.573        0.438       30.370       43.918        2.091      344.807       21.890      862.295
08/21/2014  09:20:00       62.067       98.020       86.409       59.669       50.415       44.998     3560.349     2541.673     2024.849        1.453        0.406      116.018       36.943        0.101      344.389       21.173      862.297
08/21/2014  09:21:00       75.142       35.933       65.567       44.052       33.073       33.402     1940.621     1093.856     1115.703        0.769        0.208       83.291       19.391        0.054      344.341       21.090      862.293
08/21/2014  09:22:00       58.349      -73.880       16.765       41.759       86.932       32.256     1743.849     7557.131     1040.430        0.974        0.517       94.143       40.080        0.181      344.348       21.104      862.277
08/21/2014  09:23:00       45.127      -32.699       25.560       44.059       72.049       41.316     1941.159     5191.117     1707.002        0.630        0.442       55.729       32.809        0.347      344.689       21.685      862.275
08/21/2014  09:24:00       17.566      -21.005       20.411       33.388       33.896       32.648     1114.764     1148.927     1065.887        0.225        0.166       27.382       22.269        0.661      344.997       22.213      862.277
08/21/2014  09:25:00       25.673     -108.947        4.268       50.706       71.364       38.687     2571.148     5092.798     1496.663        1.085        0.458      111.931       41.710        0.139      344.786       21.852      862.286
08/21/2014  09:26:00       30.209       47.046       86.787       47.039       41.870       31.490     2212.656     1753.111      991.599        0.781        0.248       55.910       18.374        0.108      344.743       21.780      862.297
08/21/2014  09:27:00       41.314        1.814       32.663       40.084       55.130       36.545     1606.766     3039.315     1335.558        0.438        0.299       41.354       36.088        0.762      344.804       21.882      862.299
08/21/2014  09:28:00       28.425      -39.464       41.052       47.749       62.498       35.925     2279.973     3905.984     1290.574        0.576        0.374       48.635       27.355        0.316      344.973       22.172      862.295
08/21/2014  09:29:00       -8.149        6.934       62.084       50.937       65.563       34.839     2594.545     4298.550     1213.745        0.604        0.405       10.700       40.696       14.466      345.130       22.441      862.294
08/21/2014  09:30:00       17.536       -0.105       66.814       66.071      103.935       64.691     4365.340    10802.382     4184.870        1.206        0.968       17.536       72.488       17.087      344.945       22.123      862.300
08/21/2014  09:31:00      104.158       99.904       95.868       71.290       64.051       52.754     5082.289     4102.566     2783.005        2.099        0.598      144.325       47.650        0.109      344.438       21.256      862.300
08/21/2014  09:32:00       57.338       35.528       72.592       64.994       53.009       52.377     4224.210     2809.958     2743.361        0.980        0.489       67.453       45.692        0.459      344.631       21.588      862.311
08/21/2014  09:33:00       14.944      -15.263       54.329       34.208       65.147       42.060     1170.188     4244.163     1769.046        0.529        0.359       21.361       43.287        4.106      345.168       22.508      862.303
08/21/2014  09:34:00       58.766        7.929       72.977       46.166       75.047       51.854     2131.330     5631.979     2688.854        0.964        0.523       59.298       54.701        0.851      344.881       22.015      862.298
08/21/2014  09:35:00       15.584       15.456       60.894       34.925       40.710       30.574     1219.749     1657.279      934.763        0.400        0.191       21.949       28.504        1.686      345.192       22.546      862.294
08/21/2014  09:36:00       31.513      -56.329       31.792       48.004       70.430       49.418     2304.346     4960.330     2442.178        0.744        0.485       64.544       50.570        0.614      345.181       22.528      862.300
08/21/2014  09:37:00       -2.179       26.518       59.413       19.495       29.657       18.017      380.066      879.529      324.598        0.291        0.079       26.608       11.865        0.199      345.273       22.686      862.295
08/21/2014  09:38:00       31.303       29.309       25.545       34.462       25.531       15.537     1187.634      651.840      241.394        0.229        0.104       42.882        6.879        0.026      344.997       22.213      862.300
08/21/2014  09:39:00       34.438      -27.703       23.962       35.812       44.802       37.874     1282.486     2007.201     1434.443        0.362        0.236       44.198       35.056        0.629      345.151       22.478      862.303
08/21/2014  09:40:00       57.430      -28.266       15.505       57.079       70.835       56.397     3258.057     5017.595     3180.601        0.789        0.573       64.010       58.977        0.849      345.018       22.249      862.303
08/21/2014  09:41:00        4.898       18.104       62.775       31.422       51.575       38.211      987.332     2659.949     1460.100        0.470        0.255       18.755       37.738        4.049      345.395       22.895      862.299
08/21/2014  09:42:00       58.653       14.896       51.332       43.817       62.841       48.369     1919.903     3949.000     2339.557        0.725        0.410       60.515       42.183        0.486      345.222       22.600      862.304
08/21/2014  09:43:00       -5.785       33.740       85.148       40.592       41.544       27.967     1647.745     1725.918      782.153        0.629        0.208       34.232       23.813        0.484      345.826       23.635      862.316
08/21/2014  09:44:00       21.865      -47.921       28.769       57.615       53.611       45.604     3319.509     2874.141     2079.682        0.594        0.414       52.674       42.296        0.645      345.213       22.584      862.314
08/21/2014  09:45:00        3.948       26.006       64.662       28.093       38.913       31.660      789.198     1514.226     1002.346        0.409        0.165       26.304       24.759        0.886      345.661       23.352      862.323
08/21/2014  09:46:00        1.042       26.935       70.617       38.458       55.843       35.328     1478.982     3118.483     1248.055        0.578        0.292       26.955       34.955        1.682      345.714       23.442      862.326
08/21/2014  09:47:00       17.978       25.870       48.127       39.460       49.426       40.503     1557.112     2442.967     1640.518        0.447        0.282       31.504       36.694        1.357      345.391       22.890      862.335
08/21/2014  09:48:00       15.458      -61.680       22.106       34.453       79.866       43.524     1187.001     6378.608     1894.353        0.699        0.473       63.587       37.636        0.350      345.270       22.679      862.338
08/21/2014  09:49:00       -4.597       16.258       49.882       21.776       38.113       34.539      474.200     1452.564     1192.941        0.295        0.156       16.896       30.001        3.153      345.425       22.947      862.335
08/21/2014  09:50:00      -34.506      -38.359        7.606       26.859       36.230       25.368      721.394     1312.599      643.535        0.270        0.134       51.595       10.088        0.038      345.131       22.442      862.341
08/21/2014  09:51:00      -54.420       13.238       26.329       41.433       29.760       28.708     1716.664      885.676      824.153        0.363        0.171       56.007       28.815        0.265      345.063       22.328      862.332
08/21/2014  09:52:00      -10.312       17.012       27.247       54.284       22.650       40.638     2946.788      513.029     1651.462        0.312        0.256       19.894       39.109        3.865      345.414       22.928      862.334
08/21/2014  09:53:00       24.197       20.621       27.960       19.106       16.624       22.094      365.031      276.374      488.133        0.146        0.056       31.792        7.820        0.061      345.282       22.701      862.343
08/21/2014  09:54:00       77.498       48.485       12.746       43.744       40.564       24.466     1913.523     1645.428      598.594        0.634        0.208       91.415       13.266        0.021      345.026       22.264      862.344
08/21/2014  09:55:00       83.070       55.249       21.749       52.625       41.728       36.711     2769.389     1741.267     1347.670        0.814        0.293       99.765       32.972        0.109      345.135       22.451      862.342
08/21/2014  09:56:00       34.408       39.479       30.088       54.198       44.716       34.782     2937.431     1999.513     1209.756        0.490        0.307       52.369       30.288        0.334      345.396       22.896      862.338
08/21/2014  09:57:00       44.028       47.582       24.641       43.184       33.377       29.758     1864.894     1113.993      885.568        0.434        0.193       64.826       21.284        0.108      345.630       23.299      862.328
08/21/2014  09:58:00       17.407       43.603       65.678       44.114       45.534       24.923     1946.051     2073.316      621.159        0.558        0.232       46.949       13.132        0.078      346.079       24.070      862.328
08/21/2014  09:59:00       65.203       45.754        9.277       42.295       34.883       32.731     1788.884     1216.826     1071.303        0.525        0.204       79.655       21.661        0.074      345.319       22.765      862.327
08/21/2014  10:00:00       33.370       65.557       57.071       42.979       38.078       31.562     1847.232     1449.896      996.172        0.648        0.215       73.561       27.405        0.139      345.495       23.067      862.332
08/21/2014  10:01:00       46.122      109.692      115.891       64.532       57.670       42.417     4164.321     3325.794     1799.187        1.844        0.464      118.994       34.424        0.084      345.292       22.718      862.324
08/21/2014  10:02:00       90.942       93.510       23.315       40.127       40.116       36.425     1610.216     1609.318     1326.798        1.105        0.227      130.440       18.715        0.021      344.831       21.929      862.340
08/21/2014  10:03:00       41.110       65.174        3.996       34.784       38.616       31.685     1209.919     1491.186     1003.951        0.483        0.185       77.056       23.343        0.092      345.073       22.342      862.331
08/21/2014  10:04:00       69.218       59.593        7.488       45.668       32.632       31.063     2085.522     1064.821      964.918        0.626        0.206       91.337       20.271        0.049      345.071       22.340      862.334
08/21/2014  10:05:00        7.990       29.406       -1.612       51.768       44.227       29.803     2679.951     1955.995      888.245        0.323        0.276       30.472       20.203        0.440      345.272       22.685      862.338
08/21/2014  10:06:00      103.246       64.134       10.797       49.278       36.771       32.944     2428.272     1352.124     1085.311        0.988        0.243      121.544       25.013        0.042      345.241       22.632      862.334
08/21/2014  10:07:00       93.009       68.811        3.769       31.246       24.938       31.438      976.302      621.895      988.322        0.799        0.129      115.696       13.705        0.014      344.866       21.989      862.331
08/21/2014  10:08:00       90.105       56.816        8.731       38.422       37.285       34.984     1476.228     1390.207     1223.891        0.776        0.205      106.522       26.141        0.060      345.018       22.248      862.329
08/21/2014  10:09:00       23.717       54.941      -11.297       34.691       43.154       34.081     1203.473     1862.303     1161.543        0.397        0.211       59.841       28.560        0.228      345.223       22.600      862.335
08/21/2014  10:10:00       47.326       48.424       11.157       28.536       42.419       43.069      814.323     1799.409     1854.966        0.459        0.223       67.710       12.430        0.034      345.612       23.266      862.332
08/21/2014  10:11:00       76.538       73.957       76.304       62.968       50.805       43.149     3964.995     2581.196     1861.848        1.278        0.420      106.431       33.578        0.100      345.495       23.064      862.338
08/21/2014  10:12:00       93.302       99.265       83.841       82.047       69.421       65.244     6731.632     4819.310     4256.809        2.069        0.790      136.231       51.167        0.141      345.434       22.960      862.336
08/21/2014  10:13:00      102.529       50.686       12.359       60.679       59.153       34.743     3681.997     3499.037     1207.099        1.081        0.419      114.374       19.814        0.030      345.142       22.461      862.353
08/21/2014  10:14:00      103.863      111.702       -3.581       37.789       38.171       42.813     1428.017     1457.054     1832.985        1.400        0.236      152.528       31.401        0.042      345.177       22.522      862.363
08/21/2014  10:15:00       32.205       42.442       23.658       40.487       30.795       37.369     1639.173      948.342     1396.409        0.369        0.199       53.277       25.278        0.225      345.691       23.402      862.361
08/21/2014  10:16:00       -6.728       91.275        3.502       21.220       65.538       28.213      450.290     4295.228      796.000        0.696        0.277       91.523       35.699        0.152      345.677       23.380      862.351
08/21/2014  10:17:00       19.313       97.716        3.155       41.430       56.582       35.694     1716.437     3201.506     1274.052        0.806        0.310       99.606       40.681        0.167      345.923       23.803      862.354
08/21/2014  10:18:00       25.608      111.006        1.662       41.711       65.015       35.427     1739.798     4226.960     1255.062        1.010        0.361      113.921       33.863        0.088      345.558       23.175      862.337
08/21/2014  10:19:00       49.395      110.863       -5.429       39.817       49.283       39.920     1585.359     2428.788     1593.614        1.018        0.280      121.369       25.159        0.043      345.395       22.895      862.331
08/21/2014  10:20:00       75.359       76.043        3.655       72.695       50.755       31.164     5284.570     2576.060      971.186        1.015        0.442      107.059       27.659        0.067      345.486       23.052      862.314
08/21/2014  10:21:00      122.315       72.351        9.430       66.937       40.948       40.593     4480.500     1676.744     1647.761        1.404        0.390      142.111       34.035        0.057      345.501       23.076      862.314
08/21/2014  10:22:00       75.882       75.603        3.199       48.999       37.705       26.481     2400.935     1421.700      701.232        0.800        0.226      107.117       19.751        0.034      345.377       22.864      862.302
08/21/2014  10:23:00       27.467       65.461       44.889       48.184       37.285       36.015     2321.742     1390.183     1297.056        0.603        0.250       70.990       28.290        0.159      345.993       23.921      862.293
08/21/2014  10:24:00       73.657       81.466       34.202       54.427       42.070       46.110     2962.261     1769.907     2126.128        1.004        0.343      109.827       30.889        0.079      345.806       23.601      862.287
08/21/2014  10:25:00       53.420       63.994       -3.763       34.377       39.290       22.577     1181.812     1543.701      509.705        0.510        0.162       83.361       16.562        0.039      345.475       23.033      862.301
08/21/2014  10:26:00      -12.006       80.197        4.424       25.758       49.062       28.471      663.472     2407.040      810.583        0.524        0.194       81.091       26.575        0.107      345.831       23.643      862.287
08/21/2014  10:27:00        8.313      101.108        0.331       29.311       42.807       36.134      859.131     1832.455     1305.646        0.714        0.200      101.449       28.137        0.077      345.787       23.566      862.292
08/21/2014  10:28:00      -19.691       78.578        0.868       27.122       62.841       32.395      735.592     3948.996     1049.436        0.615        0.287       81.007       28.734        0.126      346.046       24.013      862.288
08/21/2014  10:29:00       27.343       23.420       28.382       30.713       28.879       25.029      943.308      834.001      626.470        0.225        0.120       36.002       19.727        0.300      346.437       24.686      862.296
08/21/2014  10:30:00       -1.887       17.537       16.856       25.612       29.932       19.673      655.972      895.914      387.038        0.127        0.097       17.638       11.067        0.394      346.220       24.311      862.294
08/21/2014  10:31:00       36.063       54.563       25.483       42.241       30.629       36.672     1784.271      938.161     1344.810        0.450        0.203       65.404       19.045        0.085      346.333       24.505      862.304
08/21/2014  10:32:00        0.892       32.106       61.435       46.221       58.015       39.089     2136.370     3365.714     1527.933        0.592        0.352       32.119       42.690        1.767      346.356       24.544      862.295
08/21/2014  10:33:00       41.741       -6.498       31.926       37.416       32.390       25.429     1399.985     1049.125      646.635        0.295        0.155       42.244       22.993        0.296      345.910       23.778      862.303
08/21/2014  10:34:00       93.286       75.140       59.869       47.619       43.424       42.328     2267.610     1885.643     1791.700        1.194        0.297      119.785       24.381        0.041      345.773       23.542      862.289
08/21/2014  10:35:00       63.514       60.327       78.018       74.191       65.042       56.924     5504.298     4230.437     3240.339        1.336        0.649       87.597       43.267        0.244      345.900       23.760      862.292
08/21/2014  10:36:00      104.335       51.138       39.225       63.088       52.666       41.201     3980.090     2773.706     1697.541        1.174        0.423      116.193       26.611        0.052      345.665       23.357      862.286
08/21/2014  10:37:00      137.536       92.879       48.669       59.021       37.856       49.357     3483.475     1433.072     2436.106        1.863        0.368      165.960       15.233        0.008      345.557       23.170      862.278
08/21/2014  10:38:00       70.574       47.212       19.436       71.800       74.027       29.565     5155.235     5480.020      874.068        0.955        0.575       84.910       33.975        0.160      345.801       23.591      862.272
08/21/2014  10:39:00       50.824     -106.408        3.936       54.913       48.923       35.020     3015.457     2393.470     1226.432        1.028        0.332      117.923       35.155        0.089      345.699       23.416      862.280
08/21/2014  10:40:00      -12.309        3.191       41.347       37.274       36.626       33.692     1389.377     1341.441     1135.175        0.287        0.193       12.715       26.061        4.201      346.465       24.731      862.254
08/21/2014  10:41:00       -3.770       -4.387       37.757       26.227       35.272       32.965      687.864     1244.131     1086.692        0.224        0.151        5.784       22.586       15.250      346.746       25.216      862.253
08/21/2014  10:42:00        5.784       28.491       56.276       27.276       37.975       19.289      743.961     1442.066      372.065        0.328        0.128       29.072       14.672        0.255      346.598       24.961      862.244
08/21/2014  10:43:00      -18.173       14.595       50.795       19.405       20.626       30.823      376.540      425.440      950.036        0.244        0.088       23.308       18.032        0.599      346.781       25.277      862.244
08/21/2014  10:44:00       -8.432      -17.089       27.622       24.544       46.646       33.348      602.408     2175.822     1112.112        0.251        0.195       19.056       23.612        1.535      346.594       24.955      862.236
08/21/2014  10:45:00       16.387       28.243       58.735       39.715       37.493       37.566     1577.285     1405.718     1411.191        0.445        0.220       32.653       24.791        0.576      346.664       25.075      862.233
08/21/2014  10:46:00        7.853      -32.528       -9.795       25.933       58.403       37.972      672.507     3410.920     1441.849        0.337        0.276       33.463       27.078        0.655      346.120       24.140      862.220
08/21/2014  10:47:00       11.457        8.080       48.963       37.074       39.412       37.776     1374.482     1553.334     1427.006        0.347        0.218       14.019       31.872        5.168      346.709       25.151      862.204
08/21/2014  10:48:00       31.929       39.335       79.524       48.264       44.092       32.705     2329.451     1944.091     1069.590        0.712        0.267       50.663       27.219        0.289      346.451       24.707      862.204
08/21/2014  10:49:00       44.561       29.861       52.347       43.632       58.750       40.406     1903.782     3451.591     1632.622        0.630        0.349       53.641       41.634        0.602      346.179       24.240      862.194
08/21/2014  10:50:00      -33.539      -43.563        3.217       57.155       42.296       30.066     3266.685     1788.967      903.957        0.450        0.298       54.978       25.890        0.222      346.149       24.191      862.196
08/21/2014  10:51:00       41.798      -80.857        2.038       59.150       92.471       46.954     3498.755     8550.927     2204.699        1.127        0.713       91.022       52.823        0.337      345.854       23.681      862.190
08/21/2014  10:52:00       19.112       36.176       55.378       38.573       35.977       30.947     1487.890     1294.322      957.715        0.424        0.187       40.914       25.092        0.376      346.292       24.434      862.191
08/21/2014  10:53:00       -1.402      -25.556       25.642       37.738       74.856       35.704     1424.131     5603.446     1274.763        0.481        0.415       25.594       42.377        2.741      346.409       24.636      862.177
08/21/2014  10:54:00       -8.230      -57.462       20.650       58.992       55.444       36.968     3480.084     3074.009     1366.657        0.586        0.396       58.048       25.646        0.195      346.187       24.255      862.179
08/21/2014  10:55:00      -90.470     -101.479       -1.649       79.444       46.164       45.259     6311.374     2131.084     2048.336        1.449        0.525      135.952       39.525        0.085      345.683       23.388      862.178
08/21/2014  10:56:00       32.737      -10.799      -17.846       51.951       82.295       29.435     2698.872     6772.526      866.436        0.592        0.517       34.472       21.671        0.395      345.574       23.202      862.180
08/21/2014  10:57:00      -40.794       11.791       -3.691       22.837       15.695       26.449      521.524      246.326      699.526        0.164        0.073       42.464       17.899        0.178      345.989       23.914      862.169
08/21/2014  10:58:00      -16.766       13.933       18.986       27.408       49.305       33.816      751.181     2430.992     1143.554        0.258        0.216       21.800       11.451        0.276      346.667       25.081      862.152
08/21/2014  10:59:00        5.916       30.820       71.862       36.890       70.695       45.177     1360.847     4997.843     2040.947        0.727        0.420       31.383       38.205        1.482      346.405       24.629      862.137
08/21/2014  11:00:00       97.667       72.191       35.479       68.765       38.765       34.332     4728.632     1502.740     1178.704        1.171        0.371      121.451       16.321        0.018      346.282       24.416      862.128
08/21/2014  11:01:00      116.497       79.819       15.674       51.926       31.432       33.645     2696.315      987.977     1131.972        1.250        0.241      141.219       14.493        0.011      345.832       23.644      862.131
08/21/2014  11:02:00      109.233       80.920       20.179       31.986       27.961       38.719     1023.086      781.829     1499.143        1.109        0.165      135.941       25.774        0.036      345.760       23.521      862.126
08/21/2014  11:03:00       70.530       60.986       18.686       26.512       26.064       27.280      702.884      679.323      744.197        0.558        0.106       93.240       14.003        0.023      345.824       23.631      862.118
08/21/2014  11:04:00       37.958      -33.971       27.034       69.343       73.063       63.060     4808.509     5338.148     3976.534        0.872        0.706       50.939       66.040        1.681      346.674       25.091      862.108
08/21/2014  11:05:00       50.066       55.687       93.689       76.657      124.620       95.321     5876.259    15530.112     9086.095        2.243        1.525       74.884      105.716        1.993      346.434       24.677      862.078
08/21/2014  11:06:00       98.941       76.985       78.725       58.471       77.643       60.499     3418.896     6028.371     3660.153        1.751        0.655      125.364       55.994        0.199      345.955       23.855      862.083
08/21/2014  11:07:00       14.517       17.391       24.328      116.376       53.338       67.250    13543.352     2844.917     4522.582        1.100        1.046       22.654       76.175       11.307      345.865       23.700      862.059
08/21/2014  11:08:00      -32.067       50.345      -14.261       32.609       34.724       36.397     1063.367     1205.760     1324.757        0.368        0.180       59.690       26.175        0.192      346.164       24.214      862.016
08/21/2014  11:09:00       49.205       41.390       28.396       35.940       36.387       35.757     1291.684     1324.023     1278.593        0.442        0.195       64.299       30.974        0.232      346.578       24.927      862.003
08/21/2014  11:10:00       11.365       32.415        4.843       35.335       27.345       29.292     1248.578      747.771      858.025        0.203        0.143       34.350       17.427        0.257      346.583       24.936      861.984
08/21/2014  11:11:00      100.939       73.405       16.494       46.799       37.607       31.201     2190.171     1414.278      973.473        1.021        0.229      124.807        6.441        0.003      346.408       24.633      861.976
08/21/2014  11:12:00       -5.997       83.331      -12.149       47.155       39.077       40.423     2223.640     1527.007     1634.036        0.626        0.269       83.546       20.756        0.062      346.461       24.726      861.962
08/21/2014  11:13:00       55.434       49.470        6.073       39.022       41.737       33.026     1522.715     1742.006     1090.699        0.496        0.218       74.299       14.868        0.040      346.376       24.580      861.948
08/21/2014  11:14:00       65.191       38.888       20.942       32.698       24.998       30.272     1069.157      624.876      916.365        0.441        0.131       75.909       11.186        0.022      346.356       24.546      861.942
08/21/2014  11:15:00       48.777       45.493       13.717       25.969       26.876       32.060      674.389      722.316     1027.859        0.353        0.121       66.700       16.068        0.058      346.287       24.427      861.927
08/21/2014  11:16:00       30.392       33.286       13.307       27.404       26.280       33.161      750.990      690.662     1099.676        0.237        0.127       45.074       21.527        0.228      346.864       25.420      861.920
08/21/2014  11:17:00       46.102       44.472       13.137       23.391       25.491       29.389      547.152      649.784      863.721        0.317        0.103       64.056       19.145        0.089      346.727       25.182      861.904
08/21/2014  11:18:00       25.911       58.698       34.203       22.322       29.181       29.925      498.269      851.549      895.495        0.377        0.112       64.163       17.710        0.076      346.679       25.100      861.905
08/21/2014  11:19:00        2.292       49.932       77.473       25.531       41.185       24.767      651.851     1696.219      613.403        0.573        0.148       49.984       23.061        0.213      347.288       26.149      861.881
08/21/2014  11:20:00       -9.139       21.766       50.252       35.648       39.909       32.648     1270.771     1592.754     1065.902        0.351        0.196       23.606       23.464        0.988      347.297       26.164      861.871
08/21/2014  11:21:00      -24.658      -56.869       11.265       33.914       53.485       37.243     1150.173     2860.697     1387.055        0.468        0.270       61.985       16.377        0.070      346.977       25.615      861.844
08/21/2014  11:22:00      -36.308      -74.100       -0.042       52.392       59.724       43.457     2744.970     3566.917     1888.520        0.750        0.410       82.517       35.472        0.185      346.586       24.941      861.848
08/21/2014  11:23:00      -92.810      -76.692        3.467       70.242       41.385       32.577     4933.979     1712.738     1061.239        1.111        0.385      120.397       37.019        0.095      346.286       24.424      861.834
08/21/2014  11:24:00      -79.871      -67.702       -4.507       34.712       41.088       32.115     1204.921     1688.254     1031.355        0.745        0.196      104.704       17.630        0.028      346.205       24.286      861.844
08/21/2014  11:25:00      -65.268      -23.114      -20.180       15.666       33.634       24.552      245.434     1131.246      602.814        0.359        0.099       69.240       21.966        0.101      346.045       24.011      861.846
08/21/2014  11:26:00      -44.600       44.130       10.320       33.087       34.461       29.662     1094.745     1187.563      879.821        0.360        0.158       62.742       20.147        0.103      346.608       24.979      861.828
08/21/2014  11:27:00       -8.468       41.733       22.101       28.391       38.259       31.228      806.051     1463.775      975.175        0.277        0.162       42.584       24.914        0.342      347.369       26.288      861.811
08/21/2014  11:28:00       -9.220      -19.233        0.287       20.793       31.707       31.719      432.362     1005.343     1006.067        0.145        0.122       21.329       18.890        0.784      346.700       25.135      861.805
08/21/2014  11:29:00      -21.898      -25.677        1.536       15.784       25.004       16.075      249.140      625.191      258.416        0.114        0.057       33.746        8.973        0.071      346.481       24.760      861.803
08/21/2014  11:30:00      -36.541      -61.390       21.067       34.246       39.874       27.767     1172.820     1589.909      770.987        0.454        0.177       71.443       16.248        0.052      346.707       25.148      861.788
08/21/2014  11:31:00        3.968      -48.307        2.173       72.445       54.325       43.933     5248.214     2951.255     1930.152        0.624        0.506       48.470       20.995        0.188      347.092       25.811      861.775
08/21/2014  11:32:00      -35.945     -110.589       22.950       80.354       90.726       53.912     6456.839     8231.140     2906.482        1.582        0.880      116.284       39.861        0.118      346.967       25.595      861.755
08/21/2014  11:33:00        4.016      -45.893        8.627       59.352       74.961       54.253     3522.610     5619.112     2943.346        0.714        0.604       46.069       59.357        1.660      347.211       26.016      861.738
08/21/2014  11:34:00       20.544      -35.386       41.236       36.353       63.933       43.797     1321.518     4087.429     1918.165        0.535        0.366       40.917       36.194        0.782      347.088       25.805      861.721
08/21/2014  11:35:00       23.026      -29.552       25.652       49.918       93.146       60.592     2491.781     8676.168     3671.376        0.845        0.742       37.463       67.820        3.277      346.981       25.621      861.709
08/21/2014  11:36:00        6.374        6.115       49.333       32.853       33.381       24.633     1079.316     1114.296      606.798        0.266        0.140        8.833        7.209        0.666      347.543       26.589      861.694
08/21/2014  11:37:00       75.961      -76.082       -0.819       53.326       60.540       44.704     2843.712     3665.053     1998.492        1.003        0.425      107.511       34.662        0.104      346.957       25.578      861.694
08/21/2014  11:38:00       51.016       57.964       35.261       43.974       37.270       42.144     1933.721     1389.078     1776.116        0.615        0.255       77.218       24.065        0.097      346.831       25.362      861.652
08/21/2014  11:39:00       -6.072       63.298      105.855       28.566       50.351       27.728      816.000     2535.211      768.826        0.968        0.206       63.588       25.165        0.157      347.453       26.435      861.650
08/21/2014  11:40:00       -6.995      -58.124        4.322       36.255       70.922       38.309     1314.427     5029.931     1467.605        0.563        0.391       58.544       41.295        0.498      347.134       25.884      861.664
08/21/2014  11:41:00      -75.866      -93.555       -0.281       54.358       44.064       26.845     2954.843     1941.626      720.665        1.006        0.281      120.450       20.347        0.029      346.669       25.082      861.668
08/21/2014  11:42:00      -76.778      -28.927        9.820       61.147       32.155       30.064     3738.983     1033.945      903.837        0.625        0.284       82.047       29.981        0.134      346.902       25.484      861.645
08/21/2014  11:43:00      -18.527       -4.563       18.514       36.325       19.008       26.537     1319.521      361.297      704.191        0.155        0.119       19.081       22.740        1.420      347.617       26.718      861.624
08/21/2014  11:44:00       -3.902       64.805        3.688       29.058       47.650       31.622      844.378     2270.536      999.950        0.417        0.206       64.923       22.229        0.117      347.456       26.438      861.602
08/21/2014  11:45:00      -29.432      -35.715       15.375       43.623       58.312       30.036     1902.972     3400.302      902.170        0.429        0.310       46.280       15.759        0.116      347.362       26.277      861.571
08/21/2014  11:46:00        1.680      -80.133       -1.765       55.205       47.983       35.500     3047.594     2302.405     1260.267        0.652        0.331       80.150       27.341        0.116      347.143       25.899      861.573
08/21/2014  11:47:00      -42.676      -30.491       11.374       40.013       68.132       34.113     1601.068     4641.916     1163.693        0.514        0.370       52.449       37.353        0.507      347.108       25.838      861.542
08/21/2014  11:48:00        2.080      -18.323       44.381       64.289       68.792       51.199     4133.046     4732.276     2621.306        0.690        0.574       18.441       46.351        6.318      347.387       26.320      861.528
08/21/2014  11:49:00      124.189     -158.670      -23.598       82.225       56.723       40.786     6761.024     3217.447     1663.490        2.640        0.582      201.492       41.424        0.042      346.907       25.490      861.509
08/21/2014  11:50:00       63.923     -107.179        2.778       66.873       66.844       56.501     4471.973     4468.136     3192.353        1.385        0.607      124.794       55.797        0.200      347.323       26.209      861.499
08/21/2014  11:51:00      -85.605     -125.209      -11.909       60.012       59.596       29.625     3601.420     3551.697      877.624        1.559        0.402      151.676       17.913        0.014      346.739       25.203      861.496
08/21/2014  11:52:00       -3.606     -109.286      -10.965       59.523       96.656       46.812     3542.978     9342.308     2191.403        1.357        0.754      109.345       43.792        0.160      347.204       26.003      861.481
08/21/2014  11:53:00      120.671     -125.012       -7.413       79.559      105.420       60.718     6329.714    11113.421     3686.692        2.568        1.056      173.751       63.288        0.133      347.231       26.047      861.477
08/21/2014  11:54:00       97.795       29.239       26.022       52.383      109.445       46.513     2743.967    11978.309     2163.456        1.399        0.844      102.072       48.554        0.226      346.740       25.204      861.440
08/21/2014  11:55:00      -39.496     -201.756      -19.768       71.027       69.714       33.847     5044.806     4859.992     1145.594        2.685        0.553      205.585       30.438        0.022      346.777       25.265      861.437
08/21/2014  11:56:00       37.975     -160.080      -15.998       70.617       74.799       40.844     4986.803     5594.876     1668.241        1.978        0.612      164.523       36.192        0.048      347.131       25.876      861.436
08/21/2014  11:57:00      -25.009      -69.548       -7.583       56.200       72.183       36.174     3158.465     5210.400     1308.525        0.760        0.484       73.908       38.710        0.274      347.394       26.332      861.407
08/21/2014  11:58:00       -9.667      -55.186       27.365       64.778       83.179       48.845     4196.135     6918.827     2385.835        0.869        0.675       56.027       31.961        0.325      347.548       26.598      861.392
08/21/2014  11:59:00       48.178      -66.837       48.208      102.463      115.782       76.642    10498.617    13405.413     5873.967        1.944        1.489       82.391       75.624        0.842      347.561       26.619      861.361
08/21/2014  12:00:00       54.286     -220.488       -4.072      113.118      158.870       98.115    12795.756    25239.769     9626.545        4.961        2.383      227.073       90.249        0.158      347.281       26.134      861.331
08/21/2014  12:01:00       30.157      -95.486      -11.431      100.526       82.290       48.009    10105.499     6771.700     2304.837        1.467        0.959      100.135       37.254        0.138      347.475       26.471      861.358
08/21/2014  12:02:00       69.743     -125.811      -26.970       75.444       86.346       58.227     5691.869     7455.554     3390.427        1.898        0.827      143.849       49.549        0.119      347.248       26.077      861.348
08/21/2014  12:03:00      154.246     -203.409      -16.621       70.015       82.131       51.618     4902.072     6745.496     2664.439        3.987        0.716      255.278       41.626        0.027      347.000       25.650      861.359
08/21/2014  12:04:00      115.465     -150.117      -20.204       72.421       80.786       59.856     5244.873     6526.426     3582.742        2.581        0.768      189.386       51.451        0.074      347.032       25.705      861.350
08/21/2014  12:05:00       23.324       21.966       44.291       66.429       88.519       73.598     4412.804     7835.534     5416.733        1.032        0.883       32.039       69.664        4.728      347.355       26.264      861.320
08/21/2014  12:06:00       29.075       33.806       79.684       49.032       64.809       48.318     2404.163     4200.211     2334.628        0.864        0.447       44.589       46.395        1.083      347.374       26.298      861.299
08/21/2014  12:07:00      119.339      -44.433       38.281       95.967       77.850       62.474     9209.684     6060.697     3902.970        1.842        0.959      127.342       62.247        0.239      347.404       26.348      861.283
08/21/2014  12:08:00       81.172      -37.642       54.454       67.198      100.540       72.618     4515.557    10108.248     5273.411        1.543        0.995       89.475       71.806        0.644      347.427       26.387      861.283
08/21/2014  12:09:00       57.311       95.154       78.806       44.450       37.736       40.031     1975.839     1423.987     1602.485        1.177        0.250      111.081       30.368        0.075      347.232       26.051      861.263
08/21/2014  12:10:00       18.910       38.198       22.870       29.698       31.759       31.957      881.953     1008.605     1021.278        0.263        0.146       42.622       19.091        0.201      347.641       26.757      861.241
08/21/2014  12:11:00       32.123      -54.510       12.876       53.635       69.994       38.820     2876.684     4899.194     1506.995        0.672        0.464       63.271       47.532        0.564      347.896       27.199      861.248
08/21/2014  12:12:00       25.888       10.068       85.695       64.331       82.718       63.813     4138.527     6842.306     4072.095        1.158        0.753       27.776       39.431        2.015      347.956       27.302      861.226
08/21/2014  12:13:00      -16.261     -106.974       46.778       65.244      100.815       66.591     4256.744    10163.672     4434.421        1.637        0.943      108.203       46.996        0.189      347.700       26.858      861.204
08/21/2014  12:14:00       -4.969     -146.960      -47.779       90.983       75.816       35.573     8277.944     5748.113     1265.404        1.960        0.765      147.044       33.620        0.052      347.246       26.075      861.214
08/21/2014  12:15:00        0.444      -38.180       -3.663       54.091       70.434       36.108     2925.864     4961.012     1303.766        0.533        0.460       38.183       41.673        1.191      347.285       26.144      861.206
08/21/2014  12:16:00      -46.868      -23.067       10.311       63.437       34.852       29.324     4024.310     1214.640      859.913        0.447        0.305       52.237       34.457        0.435      347.883       27.175      861.207
08/21/2014  12:17:00      -41.544      -23.549       15.987       54.215       48.766       38.658     2939.301     2378.085     1494.420        0.467        0.341       47.754       26.835        0.316      347.889       27.185      861.202
08/21/2014  12:18:00       10.940      -74.559        1.200       92.491       76.275       56.466     8554.500     5817.900     3188.428        1.162        0.878       75.357       45.908        0.371      347.574       26.642      861.215
08/21/2014  12:19:00      -44.861      -47.004       12.813       64.254      115.954       67.584     4128.565    13445.254     4567.612        1.326        1.107       64.976       48.327        0.553      347.496       26.507      861.198
08/21/2014  12:20:00       -4.083     -177.587      -30.467       81.333       93.946       62.106     6615.036     8825.859     3857.138        2.589        0.965      177.634       43.744        0.061      347.354       26.261      861.193
08/21/2014  12:21:00        5.399      -13.302       37.453       63.931       67.929       42.559     4087.174     4614.379     1811.275        0.606        0.526       14.356       29.844        4.321      347.800       27.031      861.174
08/21/2014  12:22:00       31.594     -113.632      -29.329       80.312       67.729       35.723     6449.998     4587.242     1276.110        1.354        0.616      117.942       33.960        0.083      347.746       26.938      861.172
08/21/2014  12:23:00      -34.703      -61.254       12.277       45.314       66.251       46.969     2053.330     4389.197     2206.054        0.688        0.432       70.402       45.961        0.426      348.101       27.552      861.175
08/21/2014  12:24:00        0.977     -106.916        3.047       83.270       93.736       39.606     6933.919     8786.429     1568.616        1.436        0.864      106.921       37.390        0.122      347.748       26.941      861.181
08/21/2014  12:25:00       93.750     -233.280      -45.733       71.898      103.373       56.495     5169.333    10686.032     3191.715        4.217        0.952      251.413       42.829        0.029      347.334       26.226      861.150
08/21/2014  12:26:00       92.173     -192.192      -25.366       93.964       94.597       51.963     8829.287     8948.685     2700.116        3.327        1.024      213.152       47.765        0.050      347.633       26.742      861.122
08/21/2014  12:27:00       68.907      -68.124       61.449      118.289      149.203       75.068    13992.354    22261.553     5635.163        2.752        2.094       96.897      103.156        1.133      347.769       26.978      861.109
08/21/2014  12:28:00      100.772      -93.032       31.025      116.213      173.869       83.329    13505.457    30230.415     6943.800        3.522        2.534      137.150      115.994        0.715      347.704       26.865      861.095
08/21/2014  12:29:00      138.253     -141.044      -20.434      107.932      119.196       92.201    11649.422    14207.673     8501.070        3.688        1.718      197.503      101.452        0.264      347.449       26.425      861.077
08/21/2014  12:30:00       47.974      -28.019       47.524       76.173      100.757       70.039     5802.392    10151.926     4905.492        1.310        1.043       55.557       80.395        2.094      347.732       26.916      861.060
08/21/2014  12:31:00      121.906      -97.393        7.657      107.098      131.798       80.486    11469.917    17370.770     6478.034        2.985        1.766      156.033      107.192        0.472      347.503       26.517      861.031
08/21/2014  12:32:00      101.697      -71.494       24.984       85.411       98.300       46.692     7295.076     9662.976     2180.115        1.760        0.957      124.312       52.673        0.180      347.587       26.664      861.026
08/21/2014  12:33:00       68.582      -42.257       74.684       96.085      104.798       74.316     9232.390    10982.624     5522.885        1.890        1.287       80.555       72.568        0.812      348.004       27.384      861.000
08/21/2014  12:34:00       46.327       -7.165       65.855       69.799      113.812       63.107     4871.845    12953.149     3982.553        1.417        1.090       46.878       62.620        1.784      348.142       27.621      860.980
08/21/2014  12:35:00      106.005     -101.209       10.384       78.672       91.386       73.436     6189.232     8351.437     5392.818        2.076        0.997      146.561       70.645        0.232      347.711       26.876      860.974
08/21/2014  12:36:00      111.793     -111.525       11.904       54.579       85.668       55.957     2978.828     7339.027     3131.239        1.926        0.672      157.910       60.861        0.149      347.435       26.400      860.969
08/21/2014  12:37:00       61.485       25.012       83.770       74.509      138.054       83.202     5551.533    19058.830     6922.584        2.147        1.577       66.378       88.999        1.798      347.722       26.896      860.944
08/21/2014  12:38:00       57.746      -40.252       16.404       67.225       64.824       55.887     4519.222     4202.176     3123.352        0.853        0.592       70.391       51.530        0.536      347.530       26.565      860.938
08/21/2014  12:39:00       35.955        7.280       51.514       45.602      108.506       68.485     2079.559    11773.581     4690.191        1.127        0.927       36.684       72.792        3.937      347.677       26.818      860.922
08/21/2014  12:40:00      -28.932       29.838       -0.727       34.257       47.973       20.966     1173.524     2301.438      439.579        0.282        0.196       41.562       15.836        0.145      347.497       26.509      860.878
08/21/2014  12:41:00       -1.887       -6.115       25.317       16.862       32.572       26.450      284.328     1060.911      699.586        0.136        0.102        6.400       21.929       11.741      348.345       27.974      860.849
08/21/2014  12:42:00       11.562      -21.437       60.347       39.267      108.018       63.004     1541.861    11667.898     3969.561        1.070        0.859       24.357       57.917        5.654      348.303       27.902      860.833
08/21/2014  12:43:00      141.923     -106.828       -5.001      105.591      118.085       86.781    11149.532    13944.071     7530.950        3.210        1.631      177.635       83.918        0.223      347.750       26.944      860.817
08/21/2014  12:44:00      108.245     -127.392       44.179      118.841      165.682       97.706    14123.276    27450.424     9546.443        4.050        2.556      167.170      111.299        0.443      347.775       26.987      860.810
08/21/2014  12:45:00      157.875     -205.008      -18.592      140.358      162.661       94.434    19700.425    26458.681     8917.755        6.118        2.754      258.752      100.445        0.151      347.819       27.061      860.798
08/21/2014  12:46:00      -64.808     -109.903       20.213       78.128       68.354       54.227     6104.046     4672.242     2940.601        1.520        0.686      127.589       21.873        0.029      348.225       27.765      860.806
08/21/2014  12:47:00       24.839       40.187      123.794       73.431      144.047       88.640     5392.146    20749.404     7857.038        2.577        1.700       47.244       96.243        4.150      348.148       27.630      860.806
08/21/2014  12:48:00      100.138      -82.289       49.967       97.644      125.324      102.529     9534.388    15706.032    10512.290        2.752        1.788      129.611       91.211        0.495      348.012       27.395      860.800
08/21/2014  12:49:00      150.022     -158.920      -26.515       80.596      107.040       64.750     6495.711    11457.543     4192.589        3.530        1.107      218.545       73.777        0.114      347.642       26.756      860.812
08/21/2014  12:50:00       36.154       19.634       87.459       73.256      140.645       78.105     5366.378    19781.115     6100.388        2.029        1.562       41.141       93.125        5.124      348.218       27.753      860.804
08/21/2014  12:51:00       11.090       45.680      124.608       59.496       90.306       67.049     3539.810     8155.176     4495.536        1.696        0.810       47.007       55.965        1.417      348.132       27.604      860.795
08/21/2014  12:52:00       -7.060     -119.765        8.070       92.279       92.555       54.198     8515.489     8566.441     2937.463        1.724        1.001      119.973       55.314        0.213      347.904       27.209      860.823
08/21/2014  12:53:00      -43.793     -137.418      -10.546       98.299       74.606       34.831     9662.596     5565.983     1213.200        1.867        0.822      144.227       17.348        0.014      347.986       27.352      860.824
08/21/2014  12:54:00      -85.126     -146.002       11.529       96.621       90.075       53.842     9335.615     8113.470     2898.955        2.452        1.017      169.006       51.611        0.093      347.797       27.024      860.825
08/21/2014  12:55:00      -74.148       -0.489       -0.003      100.703       55.576       37.422    10141.003     3088.667     1400.376        1.006        0.732       74.150       34.710        0.219      348.017       27.407      860.812
08/21/2014  12:56:00      112.852     -145.001       -7.819       90.255      120.482       41.794     8145.907    14515.973     1746.714        2.911        1.220      183.741       48.933        0.071      347.721       26.893      860.802
08/21/2014  12:57:00       12.999       18.650       12.463       50.323       81.799       54.813     2532.421     6691.008     3004.448        0.645        0.611       22.733       50.271        4.890      347.789       27.014      860.772
08/21/2014  12:58:00      -71.440     -139.270       -4.910       53.515       96.830       38.442     2863.878     9376.097     1477.787        1.912        0.686      156.524       36.021        0.053      347.584       26.659      860.792
08/21/2014  12:59:00      -15.454      -91.276        7.859       30.877       47.222       34.622      953.379     2229.948     1198.667        0.651        0.219       92.575       28.875        0.097      347.558       26.613      860.772
08/21/2014  13:00:00      -34.353       -6.900       18.275       33.280       55.802       26.935     1107.589     3113.873      725.502        0.325        0.247       35.039       19.226        0.301      347.643       26.762      860.746
08/21/2014  13:01:00       13.286       40.104        4.493       53.247       26.573       32.358     2835.222      706.108     1047.009        0.320        0.229       42.248       30.353        0.516      347.988       27.358      860.718
08/21/2014  13:02:00       -6.178       27.936       20.831       34.616       20.244       29.316     1198.273      409.811      859.451        0.186        0.123       28.611       15.759        0.303      348.529       28.293      860.702
08/21/2014  13:03:00       -1.863       15.133       32.125       44.187       53.965       40.042     1952.459     2912.219     1603.332        0.386        0.323       15.248       36.630        5.771      348.519       28.275      860.687
08/21/2014  13:04:00       75.908     -174.032      -22.669       55.048       58.909       44.192     3030.268     3470.314     1952.921        2.251        0.423      189.867       39.682        0.044      347.800       27.030      860.685
08/21/2014  13:05:00      -79.761     -118.947      -12.119       43.864       60.936       28.473     1924.059     3713.238      810.700        1.355        0.322      143.213       25.424        0.032      347.636       26.751      860.670
08/21/2014  13:06:00     -139.094       30.565        5.744       32.281       28.204       23.219     1042.051      795.494      539.111        1.135        0.119      142.413       20.773        0.021      347.514       26.538      860.663
08/21/2014  13:07:00        3.749       30.266       28.537       47.373       22.372       26.399     2244.240      500.488      696.913        0.259        0.172       30.497       10.546        0.120      348.422       28.107      860.651
08/21/2014  13:08:00       -1.140       30.701       53.431       26.109       36.197       34.415      681.666     1310.206     1184.395        0.349        0.159       30.722       29.028        0.893      348.596       28.408      860.632
08/21/2014  13:09:00       -3.169      -76.133       11.394       52.454       64.342       38.567     2751.419     4139.898     1487.425        0.716        0.419       76.199       38.771        0.259      348.254       27.816      860.603
08/21/2014  13:10:00      -60.465     -120.644        6.346       78.076       77.922       52.855     6095.858     6071.776     2793.678        1.660        0.748      134.949       51.035        0.143      348.246       27.801      860.600
08/21/2014  13:11:00        1.428      -85.911      -15.975       45.843       85.249       32.816     2101.550     7267.347     1076.890        0.904        0.522       85.923       33.080        0.148      348.069       27.496      860.614
08/21/2014  13:12:00       36.155       79.429       73.014       71.713       53.520       47.528     5142.692     2864.377     2258.867        1.160        0.513       87.271       33.614        0.148      348.420       28.102      860.573
08/21/2014  13:13:00     -129.749       -3.572       13.204      206.560      138.455       73.014    42667.185    19169.748     5331.113        4.208        3.358      129.798       97.522        0.565      348.168       27.665      860.542
08/21/2014  13:14:00     -152.129       22.329       -7.376       80.304       37.540       27.828     6448.665     1409.239      774.384        1.616        0.432      153.759       26.083        0.029      348.106       27.558      860.609
08/21/2014  13:15:00     -107.377      -61.707       -2.256      119.549       60.927       34.552    14292.046     3712.064     1193.842        1.727        0.960      123.845       45.024        0.132      348.492       28.229      860.622
08/21/2014  13:16:00     -116.982     -195.341       -0.896      125.955       86.000       57.279    15864.613     7395.978     3280.921        3.919        1.327      227.690       50.607        0.049      348.249       27.803      860.630
08/21/2014  13:17:00     -113.347     -194.743       -8.366       96.500       90.098       57.157     9312.154     8117.730     3266.923        3.577        1.035      225.327       48.496        0.046      348.061       27.480      860.625
08/21/2014  13:18:00      -64.715     -195.069      -10.836       68.775      112.763       46.017     4730.051    12715.523     2117.594        3.096        0.978      205.524       44.329        0.047      348.274       27.848      860.667
08/21/2014  13:19:00      -40.951     -311.375      -16.086      116.501      143.937       59.531    13572.584    20717.762     3543.995        6.835        1.892      314.056       45.534        0.021      347.947       27.283      860.672
08/21/2014  13:20:00      -61.660     -180.307       -4.344       67.340       95.273       54.985     4534.663     9076.974     3023.385        2.648        0.832      190.559       54.039        0.080      348.056       27.470      860.702
08/21/2014  13:21:00      -64.321      -72.213       14.865       66.061       90.898       39.750     4363.999     8262.463     1580.073        1.189        0.710       96.706       46.852        0.235      348.288       27.874      860.687
08/21/2014  13:22:00      -85.703     -160.989        2.361       59.447      102.604       38.884     3533.957    10527.581     1511.985        2.442        0.779      182.380       39.801        0.048      347.819       27.063      860.671
08/21/2014  13:23:00       68.447       -1.093       43.168       69.087      144.413       72.040     4772.990    20855.113     5189.813        1.868        1.541       68.455       82.612        1.456      348.009       27.391      860.645
08/21/2014  13:24:00       16.113       45.141       -3.759       57.176       44.207       47.203     3269.085     1954.296     2228.144        0.488        0.373       47.930       40.097        0.700      347.751       26.949      860.616
08/21/2014  13:25:00      -24.566       35.451        8.433       53.299       29.297       42.461     2840.750      858.336     1802.926        0.372        0.275       43.131       29.241        0.460      348.178       27.685      860.588
08/21/2014  13:26:00       -6.647       36.918       15.284       21.544       37.921       19.481      464.130     1438.026      379.491        0.196        0.114       37.512       19.157        0.261      348.742       28.660      860.558
08/21/2014  13:27:00       35.604       86.621        0.556       43.175       44.180       31.785     1864.064     1951.870     1010.286        0.680        0.241       93.653       25.717        0.075      348.313       27.918      860.532
08/21/2014  13:28:00      139.050       40.786       44.113       99.352       69.262       61.744     9870.830     4797.197     3812.268        2.071        0.924      144.908       38.198        0.069      348.372       28.018      860.511
08/21/2014  13:29:00       56.254      -12.346       41.281       55.685       87.172       48.805     3100.844     7599.005     2381.963        0.905        0.654       57.593       42.018        0.532      348.636       28.476      860.478
08/21/2014  13:30:00       14.832      -90.259       13.557       66.543      114.382       47.851     4427.931    13083.303     2289.672        1.417        0.990       91.470       39.275        0.184      348.409       28.085      860.454
08/21/2014  13:31:00       22.366      -15.557       16.075       29.819       52.477       25.630      889.156     2753.876      656.877        0.265        0.215       27.244       23.139        0.721      348.709       28.604      860.440
08/21/2014  13:32:00      104.315     -128.545      -14.195       89.074       94.859       49.303     7934.213     8998.282     2430.827        2.348        0.968      165.546       58.687        0.126      348.573       28.365      860.426
08/21/2014  13:33:00      100.534     -159.855       -2.030       48.488       71.225       54.460     2351.098     5073.008     2965.851        2.303        0.519      188.840       46.401        0.060      348.564       28.349      860.426
08/21/2014  13:34:00       43.288       19.858       82.102       82.020       82.427       46.177     6727.280     6794.217     2132.343        1.233        0.783       47.626       35.514        0.556      348.882       28.903      860.411
08/21/2014  13:35:00       50.416      -72.117        2.487       58.231       50.101       29.198     3390.806     2510.080      852.532        0.725        0.338       87.992       28.452        0.105      348.164       27.661      860.398
08/21/2014  13:36:00       35.151      -87.337       18.046       51.973       73.864       42.941     2701.190     5455.829     1843.945        0.959        0.500       94.145       41.995        0.199      348.500       28.240      860.369
08/21/2014  13:37:00      -13.552      -67.056      -11.053       49.490       50.364       21.314     2449.245     2536.500      454.277        0.512        0.272       68.412        8.883        0.017      348.468       28.187      860.345
08/21/2014  13:38:00      -72.703      -77.854        6.123       85.124       72.587       38.612     7246.138     5268.851     1490.903        1.269        0.700      106.522       37.072        0.121      348.545       28.318      860.376
08/21/2014  13:39:00     -122.907     -129.221       -6.669       94.805       69.146       42.489     8988.008     4781.124     1805.279        2.371        0.779      178.337       27.010        0.023      348.456       28.164      860.405
08/21/2014  13:40:00     -174.236     -141.928      -11.607      102.332       93.699       53.407    10471.768     8779.443     2852.327        3.637        1.105      224.726       44.206        0.039      348.190       27.703      860.405
08/21/2014  13:41:00     -110.393     -140.264       -0.344      117.293       79.148       59.314    13757.745     6264.481     3518.172        2.770        1.177      178.495       47.872        0.072      348.435       28.127      860.415
08/21/2014  13:42:00      -65.924     -123.012       -7.374       78.641       77.389       56.678     6184.409     5989.011     3212.346        1.746        0.769      139.564       37.816        0.073      348.842       28.833      860.430
08/21/2014  13:43:00       12.641     -112.191        7.809      138.265      123.543       77.229    19117.108    15262.809     5964.293        2.657        2.017      112.901       86.038        0.581      348.890       28.915      860.412
08/21/2014  13:44:00       30.484     -112.277       42.532       96.201      171.441      116.884     9254.660    29391.856    13661.923        3.382        2.615      116.341      128.355        1.217      348.901       28.933      860.328
08/21/2014  13:45:00       73.973      -94.025       10.233       80.644       92.099       48.135     6503.388     8482.146     2316.975        1.586        0.865      119.636       60.304        0.254      348.798       28.755      860.402
08/21/2014  13:46:00      -93.039      -99.724       -1.759       89.988       82.674       42.218     8097.883     6834.981     1782.397        1.766        0.836      136.386       39.815        0.085      348.746       28.665      860.406
08/21/2014  13:47:00      -60.350     -174.940        5.027      114.510       97.864       48.103    13112.487     9577.283     2313.874        2.963        1.250      185.057       45.227        0.060      348.400       28.066      860.396
08/21/2014  13:48:00     -190.777      -65.583        9.534      162.174       85.028       53.968    26300.426     7229.685     2912.581        3.861        1.822      201.735       55.597        0.076      348.840       28.827      860.390
08/21/2014  13:49:00      -82.671      -64.398        4.206       88.275       63.252       43.091     7792.504     4000.764     1856.827        1.232        0.683      104.793       20.075        0.037      348.917       28.963      860.373
08/21/2014  13:50:00     -161.314      -33.127       21.461      185.904      104.808       64.250    34560.193    10984.687     4128.120        3.862        2.484      164.680       83.789        0.259      349.207       29.463      860.374
08/21/2014  13:51:00     -138.845     -191.939       -4.033      127.212      124.629       65.029    16182.847    15532.341     4228.776        4.603        1.797      236.893       49.875        0.044      348.913       28.953      860.419
08/21/2014  13:52:00     -229.219     -218.794       -0.505      160.670      128.455       60.171    25814.957    16500.671     3620.562        7.317        2.297      316.879       66.915        0.045      348.616       28.438      860.408
08/21/2014  13:53:00     -283.303     -201.113        0.127      163.058      151.093       74.995    26587.767    22828.977     5624.325        8.786        2.752      347.429       68.795        0.039      348.675       28.541      860.401
08/21/2014  13:54:00     -281.206     -147.548        2.635      151.702      112.999       67.608    23013.635    12768.785     4570.848        7.060        2.018      317.565       61.649        0.038      348.509       28.252      860.417
08/21/2014  13:55:00     -283.584     -125.773       -7.183      131.280      137.088       65.824    17234.327    18793.136     4332.849        6.832        2.018      310.224       68.872        0.049      348.547       28.320      860.392
08/21/2014  13:56:00     -420.827     -108.826      -15.607      187.031      141.427       77.440    34980.720    20001.582     5996.943       12.507        3.049      434.671       79.651        0.034      348.388       28.043      860.358
08/21/2014  13:57:00     -276.734      -74.123       -2.294      131.188       87.266       53.244    17210.248     7615.416     2834.892        5.487        1.383      286.489       62.963        0.048      348.483       28.207      860.310
08/21/2014  13:58:00      -72.513      -63.192       13.296       98.996       72.392       37.046     9800.114     5240.582     1372.386        1.292        0.821       96.184       25.182        0.069      348.711       28.606      860.323
08/21/2014  13:59:00      -35.581     -124.226        3.663       97.009       81.117       42.262     9410.828     6579.984     1786.065        1.724        0.889      129.222       45.760        0.125      348.738       28.653      860.298
08/21/2014  14:00:00     -158.895      -86.682        2.239      164.237      119.178       61.791    26973.714    14203.504     3818.079        3.887        2.250      181.001       52.778        0.085      349.068       29.220      860.292
08/21/2014  14:01:00     -208.139     -286.093      -12.171      122.674      176.223       74.820    15048.858    31054.530     5597.968        8.850        2.585      353.795       72.476        0.042      348.711       28.604      860.268
08/21/2014  14:02:00     -163.545     -287.318       -7.346      139.272      150.880       73.776    19396.679    22764.918     5442.965        7.847        2.380      330.604       70.880        0.046      348.688       28.562      860.240
08/21/2014  14:03:00     -267.324     -145.878       12.527      143.906      155.259       70.668    20708.814    24105.363     4993.965        7.134        2.490      304.537       72.063        0.056      348.870       28.878      860.248
08/21/2014  14:04:00     -296.062     -171.160      -16.993      133.243      101.839       61.374    17753.586    10371.167     3766.790        7.456        1.595      341.977       58.727        0.029      348.501       28.240      860.239
08/21/2014  14:05:00     -147.212     -135.732        8.449      125.575       72.099       56.253    15768.990     5198.286     3164.448        3.214        1.207      200.237       65.576        0.107      348.653       28.502      860.223
08/21/2014  14:06:00      -99.568      -48.764       11.036      106.336       58.967       44.003    11307.361     3477.122     1936.233        1.456        0.836      110.868       51.599        0.217      349.046       29.186      860.194
08/21/2014  14:07:00      -30.729     -157.440      -12.183      143.234      118.673       74.675    20515.965    14083.312     5576.392        3.302        2.009      160.411       58.731        0.134      348.776       28.717      860.140
08/21/2014  14:08:00     -214.200     -217.109        4.865      124.258      181.306       68.364    15439.975    32871.920     4673.659        7.300        2.649      304.988       65.582        0.046      349.015       29.131      860.141
08/21/2014  14:09:00     -381.794     -243.311       -8.858      151.365      116.975       67.685    22911.326    13683.043     4581.222       12.310        2.059      452.733       63.420        0.020      348.433       28.120      860.127
08/21/2014  14:10:00     -130.550     -146.802       -0.109      158.928       89.180       52.125    25258.040     7953.029     2717.016        3.725        1.796      196.454       49.896        0.065      348.858       28.860      860.117
08/21/2014  14:11:00     -183.365     -299.142       -3.362      197.112      172.202       95.387    38853.031    29653.639     9098.753       10.035        3.880      350.868       65.521        0.035      348.820       28.790      860.112
08/21/2014  14:12:00     -230.766     -323.501       -5.624      177.590      163.005       89.635    31538.133    26570.477     8034.371       11.203        3.307      397.373       84.849        0.046      348.568       28.355      860.127
08/21/2014  14:13:00     -252.155     -240.107       -9.559      145.476      146.468       85.161    21163.385    21452.965     7252.348        8.559        2.493      348.186       71.131        0.042      348.542       28.309      860.140
08/21/2014  14:14:00     -319.769     -167.649      -11.054      132.049       96.238       56.199    17436.887     9261.839     3158.282        8.016        1.493      361.052       61.338        0.029      348.523       28.277      860.152
08/21/2014  14:15:00     -203.467     -165.369      -10.010      139.808       89.756       62.109    19546.259     8056.157     3857.580        5.015        1.573      262.194       62.149        0.056      348.453       28.157      860.152
08/21/2014  14:16:00     -282.411     -183.483      -14.224      173.351      139.680       64.960    30050.423    19510.417     4219.755        8.369        2.689      336.781       81.112        0.058      348.767       28.699      860.125
08/21/2014  14:17:00     -356.495     -149.989       -4.018      168.020      131.121       64.814    28230.745    17192.797     4200.807        9.960        2.481      386.762       55.233        0.020      348.556       28.334      860.123
08/21/2014  14:18:00     -188.169     -144.176      -11.055      112.670      111.145       37.266    12694.616    12353.208     1388.769        4.137        1.322      237.053       39.431        0.028      348.488       28.216      860.151
08/21/2014  14:19:00      -64.335     -224.306       -1.493       72.050       89.951       46.421     5191.225     8091.233     2154.887        3.494        0.772      233.350       41.158        0.031      348.508       28.252      860.124
08/21/2014  14:20:00     -192.125      -51.329      -24.888       51.514       62.283       28.874     2653.738     3879.118      833.697        2.376        0.368      198.863       27.433        0.019      348.298       27.889      860.091
08/21/2014  14:21:00      -38.272     -124.992       -5.872       72.879      128.683       30.002     5311.420    16559.290      900.144        1.994        1.139      130.720       33.534        0.066      348.630       28.465      860.060
08/21/2014  14:22:00     -219.183     -194.520       -3.556      183.206      106.696       76.865    33564.501    11384.068     5908.227        6.836        2.543      293.051       67.273        0.053      348.911       28.951      860.065
08/21/2014  14:23:00     -224.323      -48.648       -4.057      167.274      112.167       70.111    27980.508    12581.431     4915.570        4.908        2.274      229.537       69.450        0.092      348.794       28.748      860.091
08/21/2014  14:24:00     -116.769     -167.985        3.510      112.938      149.672       57.688    12755.102    22401.818     3327.889        4.017        1.924      204.583       66.123        0.104      348.682       28.552      860.090
08/21/2014  14:25:00      -14.180      -72.821        9.066       58.971       55.486       39.848     3477.594     3078.697     1587.843        0.686        0.407       74.189       30.663        0.171      349.020       29.141      860.058
08/21/2014  14:26:00     -119.702     -199.020      -16.531      109.262      106.716       49.090    11938.127    11388.231     2409.864        3.997        1.287      232.244       46.199        0.040      348.677       28.545      860.068
08/21/2014  14:27:00     -175.165     -175.109       -7.567       92.910       79.997       35.675     8632.264     6399.447     1272.680        3.885        0.815      247.681       33.893        0.019      348.511       28.257      860.032
08/21/2014  14:28:00     -340.114     -271.321      -11.426      170.398      154.781       79.896    29035.367    23957.269     6383.303       12.439        2.969      435.078       92.593        0.045      348.544       28.314      860.047
08/21/2014  14:29:00     -167.687      -60.679       32.301      172.559      110.355       66.971    29776.477    12178.315     4485.069        3.963        2.322      178.328       84.741        0.226      348.937       28.996      860.049
08/21/2014  14:30:00     -193.437     -287.716      -16.314      160.136      125.850       60.428    25643.487    15838.217     3651.552        8.279        2.257      346.697       51.517        0.022      348.519       28.270      860.056
08/21/2014  14:31:00     -154.623     -215.413      -13.409      125.168      104.433       69.262    15667.033    10906.166     4797.172        5.092        1.569      265.163       55.641        0.044      348.756       28.680      860.017
08/21/2014  14:32:00     -246.038     -253.350      -21.650      160.519      111.945       79.560    25766.503    12531.725     6329.735        8.490        2.231      353.158       77.319        0.048      348.559       28.340      859.982
08/21/2014  14:33:00     -155.600     -344.377      -19.279      150.118      104.409       60.196    22535.517    10901.163     3623.579        9.011        1.853      377.898       48.007        0.016      348.761       28.689      859.956
08/21/2014  14:34:00     -135.181     -253.720       -6.090      151.141      122.295       66.845    22843.527    14956.177     4468.274        6.247        2.113      287.485       56.223        0.038      348.836       28.819      859.940
08/21/2014  14:35:00     -195.580     -100.749       14.991      194.705      151.397       73.930    37909.994    22921.124     5465.649        5.745        3.315      220.004       88.350        0.161      349.225       29.496      859.921
08/21/2014  14:36:00     -158.796     -154.023       15.622      135.414      117.495       61.890    18336.833    13805.075     3830.397        4.257        1.799      221.223       58.775        0.071      349.108       29.291      859.950
08/21/2014  14:37:00     -255.872     -180.585      -17.061      167.731      112.586       58.887    28133.572    12675.677     3467.650        7.132        2.214      313.179       52.149        0.028      349.023       29.144      859.932
08/21/2014  14:38:00     -336.625     -202.563      -13.440      179.558      103.577       66.599    32240.900    10728.165     4435.419       10.096        2.370      392.872       79.334        0.041      349.109       29.294      859.891
08/21/2014  14:39:00     -346.582     -183.851      -18.771      148.788      128.906       76.366    22137.887    16616.824     5831.735        9.942        2.229      392.327       72.677        0.034      348.902       28.935      859.911
08/21/2014  14:40:00     -374.265     -162.037      -13.335      161.473      109.590       66.055    26073.553    12009.897     4363.243       10.447        2.122      407.836       65.333        0.026      348.893       28.917      859.906
08/21/2014  14:41:00     -225.203      -41.201       -1.747      118.432      137.855       70.360    14026.129    19004.111     4950.534        4.519        1.899      228.941       80.129        0.123      349.176       29.409      859.880
08/21/2014  14:42:00     -111.469     -146.281       21.496      133.826      144.264       73.139    17909.382    20812.129     5349.250        3.917        2.204      183.911       70.866        0.148      349.300       29.625      859.871
08/21/2014  14:43:00     -438.995     -240.113      -19.268      156.765      128.056       67.819    24575.372    16398.454     4599.416       14.815        2.279      500.371       65.995        0.017      348.731       28.638      859.849
08/21/2014  14:44:00     -130.145     -198.866       -8.750      124.834       97.468       59.013    15583.514     9500.044     3482.534        4.256        1.428      237.667       67.663        0.081      348.870       28.878      859.848
08/21/2014  14:45:00     -271.332     -226.870        5.195      148.443      117.967       72.170    22035.338    13916.275     5208.576        8.313        2.058      353.682       50.977        0.021      348.933       28.986      859.865
08/21/2014  14:46:00     -166.618     -233.604      -12.015       94.570      142.846       59.678     8943.530    20404.876     3561.502        5.769        1.645      286.937       48.746        0.029      348.907       28.943      859.856
08/21/2014  14:47:00     -118.229     -215.668      -25.471      126.942       91.137       57.363    16114.297     8306.039     3290.545        4.442        1.386      245.949       50.569        0.042      349.007       29.116      859.863
08/21/2014  14:48:00     -165.347     -204.735      -34.302      122.905      122.029       46.596    15105.528    14890.955     2171.173        5.129        1.608      263.165       39.712        0.023      348.599       28.410      859.869
08/21/2014  14:49:00       30.561     -122.559      -21.567      100.522       80.934       70.457    10104.709     6550.247     4964.124        1.902        1.081      126.312       55.692        0.194      348.986       29.082      859.816
08/21/2014  14:50:00      -19.716      -86.255       -7.258       99.915       74.745       51.359     9983.055     5586.767     2637.727        1.304        0.910       88.479       51.288        0.336      348.844       28.838      859.813
08/21/2014  14:51:00      -54.543     -157.502       -2.103      172.155      111.539       60.848    29637.198    12440.904     3702.483        3.677        2.289      166.679       40.532        0.059      348.806       28.769      859.818
08/21/2014  14:52:00     -100.691     -353.474      -11.958      133.218      112.486       64.398    17747.040    12653.133     4147.089        8.488        1.727      367.536       54.274        0.022      348.678       28.545      859.816
08/21/2014  14:53:00     -271.254     -238.555       -6.872      230.705      176.604       76.958    53224.628    31188.976     5922.508       11.042        4.517      361.230       71.641        0.039      349.005       29.111      859.777
08/21/2014  14:54:00     -415.926     -311.282       -6.298      223.791      176.937      113.913    50082.462    31306.660    12976.103       18.213        4.718      519.511      127.291        0.060      348.891       28.914      859.741
08/21/2014  14:55:00     -340.045     -159.244        1.799      226.786      120.089       94.333    51432.005    14421.258     8898.716       10.786        3.738      375.485      104.605        0.078      349.035       29.164      859.733
08/21/2014  14:56:00     -365.247     -108.197       -8.082      181.642      206.499       96.360    32993.687    42641.975     9285.335       11.503        4.246      380.936      100.307        0.069      348.904       28.938      859.726
08/21/2014  14:57:00     -306.189     -106.002        0.040      150.539      120.170       53.699    22661.858    14440.942     2883.540        7.248        1.999      324.019       59.535        0.034      348.821       28.793      859.733
08/21/2014  14:58:00     -264.651     -156.150       -4.218      124.887      114.944       63.650    15596.817    13212.013     4051.284        6.364        1.643      307.283       64.027        0.043      349.034       29.162      859.723
08/21/2014  14:59:00     -442.231     -201.142      -11.357      142.628      129.782       72.635    20342.837    16843.419     5275.870       13.930        2.123      485.825       72.560        0.022      348.834       28.814      859.717
08/21/2014  15:00:00     -361.648     -225.408      -11.344      166.811      124.655       67.245    27826.020    15538.953     4521.849       11.480        2.394      426.143       60.220        0.020      348.645       28.490      859.693
08/21/2014  15:01:00     -395.303     -190.833       -3.700      198.382      145.898       74.794    39355.295    21286.169     5594.155       12.945        3.312      438.955       98.428        0.050      348.866       28.873      859.641
08/21/2014  15:02:00     -440.103     -223.676       -3.526      244.443      191.149      108.986    59752.405    36538.039    11877.900       17.593        5.408      493.682      113.397        0.053      348.807       28.770      859.613
08/21/2014  15:03:00     -513.915     -382.257      -12.496      184.400      146.866       90.269    34003.468    21569.576     8148.535       23.704        3.186      640.491       95.171        0.022      348.617       28.440      859.615
08/21/2014  15:04:00     -296.122     -228.832       -0.897      171.316      173.708       79.677    29349.202    30174.461     6348.498       10.295        3.294      374.236       95.732        0.065      349.013       29.127      859.641
08/21/2014  15:05:00     -173.568     -267.356      -15.654      149.976      138.717       73.180    22492.861    19242.381     5355.360        7.446        2.355      318.755       75.932        0.057      348.710       28.601      859.649
08/21/2014  15:06:00     -326.487     -130.445       -2.399      116.223       88.603       57.513    13507.884     7850.468     3307.734        7.414        1.233      351.582       60.869        0.030      348.788       28.735      859.643
08/21/2014  15:07:00     -313.623     -102.734      -20.494      188.633      148.812       74.964    35582.478    22145.128     5619.643        8.633        3.167      330.021       73.295        0.049      349.094       29.267      859.698
08/21/2014  15:08:00     -484.876     -197.505      -19.609      185.372      149.924       87.553    34362.823    22477.215     7665.505       16.949        3.225      523.558       90.523        0.030      348.685       28.557      859.700
08/21/2014  15:09:00     -364.991     -226.315       -7.187      178.541       97.361       60.056    31876.722     9479.123     3606.777       11.472        2.248      429.461       63.900        0.022      348.546       28.317      859.718
08/21/2014  15:10:00     -287.162     -129.247      -11.471      159.981      101.241       61.478    25594.047    10249.835     3779.552        6.945        1.981      314.908       65.500        0.043      348.524       28.277      859.669
08/21/2014  15:11:00     -290.318     -117.274       -7.222      112.544       92.521       58.811    12666.203     8560.063     3458.728        6.138        1.234      313.109       47.339        0.023      348.670       28.531      859.622
08/21/2014  15:12:00     -171.834     -240.461        4.634      110.711      135.256       67.066    12256.816    18294.058     4497.822        6.120        1.752      295.548       68.052        0.053      348.857       28.857      859.617
08/21/2014  15:13:00     -190.983     -173.173       17.475      219.785      160.900       80.699    48305.567    25888.936     6512.386        7.372        4.035      257.805       95.817        0.138      348.814       28.780      859.610
08/21/2014  15:14:00       -9.183     -116.970      -26.123      144.548      119.785       60.006    20894.047    14348.427     3600.741        2.664        1.942      117.330       42.286        0.130      348.991       29.090      859.578
08/21/2014  15:15:00     -149.328     -146.559        0.462      159.719      121.597       74.609    25510.124    14785.883     5566.571        4.481        2.293      209.233       85.479        0.167      349.048       29.188      859.576
08/21/2014  15:16:00     -120.903     -188.158       -1.587      140.843      121.830       52.963    19836.749    14842.598     2805.087        4.375        1.874      223.654       54.893        0.060      349.082       29.247      859.573
08/21/2014  15:17:00     -228.412     -239.637       -5.594      214.643      166.295       80.111    46071.617    27653.901     6417.782        9.487        4.007      331.056       68.485        0.043      348.993       29.091      859.588
08/21/2014  15:18:00     -220.521     -154.574       10.508      138.958      144.261       66.173    19309.412    20811.349     4378.918        5.856        2.225      269.300       72.473        0.072      349.033       29.161      859.566
08/21/2014  15:19:00     -461.662     -224.928        4.370      259.991      202.813      102.150    67595.074    41133.128    10434.535       19.143        5.958      513.540      106.570        0.043      348.894       28.920      859.574
08/21/2014  15:20:00     -355.022     -203.748       -5.268      195.771      233.132       81.988    38326.361    54350.411     6721.954       13.347        4.970      409.333       87.358        0.046      348.723       28.622      859.587
08/21/2014  15:21:00     -351.354     -274.052       15.956      218.193      186.091       87.690    47608.113    34629.929     7689.456       14.435        4.496      445.594       87.538        0.039      348.798       28.754      859.573
08/21/2014  15:22:00     -354.068     -236.155      -24.096      171.491      114.008       64.117    29409.111    12997.717     4111.028       11.411        2.326      425.597       68.470        0.026      348.742       28.655      859.587
08/21/2014  15:23:00     -235.661      -40.786        7.874      156.204      125.129       61.020    24399.798    15657.384     3723.444        5.051        2.189      239.165       71.615        0.090      349.158       29.379      859.564
08/21/2014  15:24:00     -217.487       12.437      -14.100      217.861      142.159       81.472    47463.542    20209.268     6637.712        6.097        3.716      217.843      100.829        0.214      349.265       29.562      859.574
08/21/2014  15:25:00     -224.570      -85.434       11.906      187.461      113.978       72.733    35141.736    12991.065     5290.117        5.564        2.671      240.272       86.668        0.130      349.343       29.698      859.607
08/21/2014  15:26:00     -274.337      -99.068       -2.193      228.331       98.110       65.022    52135.094     9625.600     4227.899        7.552        3.299      291.677       89.180        0.093      349.305       29.632      859.630
08/21/2014  15:27:00     -263.627     -131.585       -9.810      177.569      150.648       76.930    31530.853    22694.753     5918.230        7.351        3.007      294.642       88.526        0.090      349.166       29.390      859.635
08/21/2014  15:28:00     -396.608      -14.541      -17.823      201.103      144.676       78.001    40442.507    20931.187     6084.216       11.263        3.373      396.874       77.584        0.038      349.110       29.295      859.639
08/21/2014  15:29:00     -361.764       33.400      -40.946      154.403      107.573       64.075    23840.340    11571.918     4105.590        8.658        1.976      363.303       59.870        0.027      348.679       28.548      859.572
08/21/2014  15:30:00     -395.703     -242.294       -8.668      225.532      183.783       88.023    50864.538    33776.023     7748.016       15.386        4.619      463.991       91.086        0.039      349.034       29.162      859.581
08/21/2014  15:31:00     -379.520     -179.147       -7.788      153.848      111.019       64.380    23669.192    12325.153     4144.756       10.816        2.007      419.678       73.385        0.031      349.120       29.311      859.623
08/21/2014  15:32:00     -387.567      -49.301      -18.340      172.040      136.433       96.022    29597.889    18613.898     9220.184       10.519        2.872      390.690       97.893        0.063      348.984       29.075      859.643
08/21/2014  15:33:00     -338.507      -23.277      -15.821      141.177      103.886       57.211    19930.906    10792.299     3273.139        7.468        1.700      339.306       67.777        0.040      349.072       29.228      859.631
08/21/2014  15:34:00     -135.437      -54.071       -0.742       97.590       96.420       49.277     9523.810     9296.893     2428.241        2.125        1.062      145.832       53.430        0.134      349.240       29.521      859.625
08/21/2014  15:35:00     -122.477      -98.325       14.970      107.562       71.945       49.407    11569.630     5176.141     2441.046        2.204        0.959      157.061       38.754        0.061      349.333       29.683      859.620
08/21/2014  15:36:00     -132.989     -124.969       -9.367       69.753       70.971       40.946     4865.482     5036.884     1676.539        2.248        0.579      182.492       33.363        0.033      349.256       29.548      859.597
08/21/2014  15:37:00     -232.975     -155.002      -19.745      108.540      134.763       64.863    11780.942    18161.198     4207.155        5.641        1.707      279.827       55.596        0.039      349.194       29.441      859.578
08/21/2014  15:38:00     -465.412     -275.496      -10.689      253.395      152.701       97.726    64209.196    23317.615     9550.374       19.483        4.854      540.839      117.911        0.048      348.971       29.052      859.568
08/21/2014  15:39:00     -350.136     -207.577       -2.686      215.832      158.687       75.103    46583.570    25181.716     5640.403       12.153        3.870      407.042       77.051        0.036      349.066       29.217      859.628
08/21/2014  15:40:00     -248.965     -170.152       13.131      153.628      106.827       64.941    23601.427    11412.008     4217.346        6.516        1.962      301.555       75.284        0.062      349.056       29.201      859.648
08/21/2014  15:41:00     -147.426     -251.338       -8.620      105.550      103.058       50.660    11140.895    10620.877     2566.418        5.465        1.216      291.385       39.494        0.018      348.804       28.765      859.651
08/21/2014  15:42:00     -157.458     -179.408        3.497       95.050      122.218       50.185     9034.578    14937.130     2518.510        4.174        1.325      238.705       45.354        0.036      348.887       28.909      859.642
08/21/2014  15:43:00     -139.541     -264.347        9.045      144.347      140.427       74.440    20836.011    19719.745     5541.304        6.776        2.305      298.916       67.636        0.051      348.877       28.890      859.666
08/21/2014  15:44:00     -152.151     -235.848       14.265      136.276      142.391       74.887    18571.078    20275.291     5608.127        6.171        2.223      280.667       61.460        0.048      349.039       29.172      859.673
08/21/2014  15:45:00     -264.870     -183.264       11.596      160.308      143.339       81.907    25698.620    20545.959     6708.703        7.840        2.648      322.090       81.137        0.063      349.051       29.192      859.663
08/21/2014  15:46:00     -212.306     -368.997      -14.457      113.249      168.666       69.218    12825.378    28448.306     4791.140       11.374        2.303      425.714       53.442        0.016      349.062       29.211      859.679
08/21/2014  15:47:00     -230.789     -304.747      -19.887      154.709      123.591       73.235    23934.944    15274.678     5363.433        9.554        2.229      382.275       58.341        0.023      348.873       28.883      859.663
08/21/2014  15:48:00     -187.697     -229.800        6.003      138.490      137.903       68.166    19179.367    19017.151     4646.633        6.545        2.142      296.712       71.233        0.058      348.839       28.825      859.646
08/21/2014  15:49:00     -185.172     -180.721      -11.012      113.984      169.297       64.249    12992.450    28661.443     4127.949        5.642        2.289      258.745       54.387        0.044      348.964       29.041      859.624
08/21/2014  15:50:00     -204.240     -108.934       12.450      112.850      144.908       61.690    12735.197    20998.277     3805.608        4.563        1.877      231.474       56.369        0.059      349.272       29.574      859.605
08/21/2014  15:51:00     -367.642     -174.992       12.571      245.602      168.074       92.048    60320.208    28248.813     8472.751       13.147        4.852      407.164      113.285        0.077      349.160       29.382      859.612
08/21/2014  15:52:00     -495.350     -224.403      -14.853      304.878      199.283      116.199    92950.677    39713.702    13502.322       22.103        7.308      543.809      132.931        0.060      348.939       28.999      859.619
08/21/2014  15:53:00     -379.692     -288.142      -12.582      190.923      179.677       94.691    36451.721    32283.739     8966.314       15.251        3.885      476.647      106.397        0.050      348.655       28.506      859.665
08/21/2014  15:54:00     -332.612     -274.406      -20.587      187.829      135.880       69.002    35279.793    18463.299     4761.334       12.242        2.925      431.195       73.757        0.029      348.668       28.528      859.628
08/21/2014  15:55:00     -223.358      -58.226       -7.624      127.491      100.851       69.924    16253.857    10171.016     4889.436        4.232        1.566      230.823       68.962        0.089      348.975       29.062      859.624
08/21/2014  15:56:00     -306.954      -40.571        8.119      193.760      136.120       90.356    37542.782    18528.547     8164.247        8.007        3.212      309.624       98.186        0.101      349.000       29.104      859.595
08/21/2014  15:57:00     -124.416     -233.616        4.735      138.069      183.593       67.811    19063.110    33706.496     4598.377        6.371        2.868      264.680       63.106        0.057      349.142       29.349      859.628
08/21/2014  15:58:00     -281.167     -299.943       -7.519      175.733      179.045       92.098    30882.211    32056.983     8482.010       12.023        3.571      411.122       65.925        0.026      348.956       29.027      859.631
08/21/2014  15:59:00     -265.782     -340.200       20.093      196.881      202.949       97.618    38762.204    41188.205     9529.240       13.811        4.474      431.713      104.943        0.059      348.773       28.711      859.620
08/21/2014  16:00:00     -260.194     -349.194       -3.529      193.449      177.303      101.799    37422.380    31436.450    10362.997       13.442        3.961      435.473       91.868        0.045      348.845       28.834      859.628
08/21/2014  16:01:00     -278.642     -401.962      -16.355      175.300      160.639       86.041    30729.984    25804.920     7403.121       15.170        3.197      489.096       84.792        0.030      348.747       28.665      859.615
08/21/2014  16:02:00     -235.876     -264.643        7.364      241.209      190.385       88.819    58181.646    36246.447     7888.857       11.400        5.116      354.504       99.330        0.079      348.975       29.060      859.618
08/21/2014  16:03:00     -243.897     -209.448      -14.275      180.819      101.920       67.677    32695.380    10387.588     4580.234        7.560        2.383      321.488       68.057        0.045      348.955       29.026      859.618
08/21/2014  16:04:00     -292.467     -195.309      -18.991      123.208      101.073       66.617    15180.270    10215.670     4437.806        7.693        1.492      351.686       51.564        0.021      348.905       28.938      859.606
08/21/2014  16:05:00     -165.562     -218.246       10.582      133.284      149.343       64.499    17764.643    22303.310     4160.081        5.968        2.211      273.938       69.850        0.065      349.020       29.138      859.599
08/21/2014  16:06:00     -190.723     -225.445        8.652      151.567      118.334       71.843    22972.510    14002.917     5161.476        6.470        2.107      295.297       66.323        0.050      349.005       29.111      859.604
08/21/2014  16:07:00     -279.317     -188.668        9.327      159.955      114.524       69.430    25585.761    13115.848     4820.479        7.860        2.176      337.066       72.232        0.046      348.979       29.068      859.579
08/21/2014  16:08:00     -153.804     -411.320       -2.931      119.050      184.321       81.941    14172.989    33974.111     6714.320       12.384        2.743      439.135       80.621        0.034      348.889       28.912      859.557
08/21/2014  16:09:00     -335.672     -273.405        1.843      210.627      159.371      100.215    44363.854    25399.022    10042.979       13.360        3.990      432.928      103.159        0.057      348.956       29.027      859.539
08/21/2014  16:10:00     -634.819     -409.189       -6.806      284.189      216.740      122.736    80763.529    46976.159    15064.100       35.661        7.140      755.269      132.309        0.031      348.710       28.600      859.520
08/21/2014  16:11:00     -511.590     -377.724        6.017      305.502      252.583      131.475    93331.576    63797.964    17285.663       28.939        8.721      635.924      163.930        0.066      348.609       28.426      859.519
08/21/2014  16:12:00     -490.175     -287.786       13.984      255.299      189.724      100.614    65177.784    35995.257    10123.224       21.727        5.565      568.412      109.944        0.037      348.664       28.522      859.523
08/21/2014  16:13:00     -307.982     -156.216       17.724      191.529      135.605       82.569    36683.240    18388.771     6817.630        9.072        3.094      345.335       90.641        0.069      348.894       28.919      859.584
08/21/2014  16:14:00     -414.264     -366.203        0.174      250.690      195.014      119.244    62845.600    38030.461    14219.016       21.038        5.755      552.919      135.895        0.060      348.780       28.723      859.615
08/21/2014  16:15:00     -319.450     -278.907        8.400      225.969      158.811      103.681    51062.032    25220.837    10749.832       13.345        4.352      424.073      114.806        0.073      348.452       28.156      859.630
08/21/2014  16:16:00     -177.113     -100.715        2.949      170.510       94.822       76.418    29073.621     8991.139     5839.778        4.270        2.195      203.746       85.811        0.177      348.760       28.690      859.621
08/21/2014  16:17:00     -297.878     -126.408       -9.839      141.728      108.048       58.724    20086.685    11674.454     3448.561        7.000        1.760      323.589       45.694        0.020      348.659       28.513      859.626
08/21/2014  16:18:00     -362.768     -263.121      -12.294      287.195      234.833      106.463    82480.852    55146.577    11334.287       17.494        7.448      448.144      116.871        0.068      348.681       28.551      859.587
08/21/2014  16:19:00     -542.269     -316.051      -10.241      204.389      168.219      100.726    41774.958    28297.572    10145.751       23.712        4.011      627.650      101.010        0.026      348.512       28.259      859.605
08/21/2014  16:20:00     -344.126     -178.963        2.513      218.024      169.575       79.391    47534.455    28755.572     6302.859       11.651        4.130      387.880       91.817        0.056      348.693       28.572      859.622
08/21/2014  16:21:00     -341.084     -247.182      -26.223      202.952      204.197       89.409    41189.430    41696.445     7993.965       13.448        4.544      421.234       94.877        0.051      348.699       28.581      859.625
08/21/2014  16:22:00     -494.041     -300.718       -4.789      216.940      182.187      109.414    47062.749    33192.035    11971.389       21.336        4.611      578.366       96.500        0.028      348.634       28.471      859.610
08/21/2014  16:23:00     -376.501     -256.244       -9.273      174.683      147.789       81.400    30513.994    21841.531     6625.984       13.323        2.949      455.428       91.757        0.041      348.603       28.416      859.611
08/21/2014  16:24:00     -407.974     -283.563      -18.859      180.174      129.067       92.840    32462.590    16658.369     8619.282       15.246        2.887      496.841      101.608        0.042      348.606       28.421      859.586
08/21/2014  16:25:00     -278.495     -182.421       -6.794      142.790      148.510       73.062    20388.979    22055.119     5337.984        7.932        2.389      332.922       74.339        0.050      348.715       28.610      859.576
08/21/2014  16:26:00     -273.601     -149.064      -31.106      164.570      167.497       79.538    27083.416    28055.201     6326.358        7.974        3.073      311.573       88.590        0.081      348.838       28.824      859.558
08/21/2014  16:27:00     -388.189     -266.620        5.590      214.725      212.879       84.981    46106.762    45317.339     7221.772       16.021        4.932      470.932      101.511        0.046      348.844       28.834      859.546
08/21/2014  16:28:00     -312.435     -134.577        8.751      169.881      182.630       99.190    28859.460    33353.712     9838.639        9.391        3.603      340.186       91.892        0.073      348.996       29.097      859.558
08/21/2014  16:29:00     -395.184     -216.035      -11.177      234.332      178.527       88.369    54911.711    31871.932     7809.077       14.876        4.730      450.380       98.394        0.048      348.738       28.648      859.581
08/21/2014  16:30:00     -355.902     -242.515      -20.828      180.805      139.799       71.039    32690.543    19543.887     5046.604       12.159        2.864      430.674       64.490        0.022      348.822       28.794      859.568
08/21/2014  16:31:00     -178.006      -53.639       32.034      161.872      175.831      103.708    26202.418    30916.561    10755.353        5.172        3.394      185.911      107.962        0.337      349.124       29.318      859.597
08/21/2014  16:32:00     -365.490     -121.493        6.543      229.916      166.840       80.428    52861.156    27835.750     6468.591       11.776        4.358      385.153       94.044        0.060      348.901       28.934      859.632
08/21/2014  16:33:00     -348.998     -168.219        9.835      228.006      159.783       92.203    51986.963    25530.704     8501.479       11.809        4.301      387.424      105.707        0.074      348.860       28.862      859.665
08/21/2014  16:34:00     -435.278     -180.155      -21.535      235.959      178.312       89.799    55676.474    31795.164     8063.822       15.894        4.777      471.087      107.164        0.052      348.584       28.382      859.652
08/21/2014  16:35:00     -380.739      -84.165        0.895      199.746      138.689       84.443    39898.581    19234.774     7130.656       10.914        3.313      389.931       97.311        0.062      348.654       28.504      859.604
08/21/2014  16:36:00     -437.910     -250.806       -8.663      198.512      170.692       90.718    39407.195    29135.621     8229.813       16.574        3.839      504.647       89.480        0.031      348.665       28.525      859.621
08/21/2014  16:37:00     -323.680     -158.575        9.810      227.715      153.132       83.917    51853.915    23449.476     7042.026       10.616        4.117      360.437       96.496        0.072      348.632       28.467      859.628
08/21/2014  16:38:00     -245.739     -170.935       12.557      188.626      147.283       71.704    35579.952    21692.279     5141.414        7.608        3.121      299.344       81.518        0.074      348.845       28.835      859.651
08/21/2014  16:39:00     -306.042     -315.986       -0.527      190.772      190.676       91.579    36394.046    36357.216     8386.708       13.731        4.057      439.896       85.577        0.038      348.568       28.357      859.627
08/21/2014  16:40:00     -316.192     -264.872      -15.068      159.518      149.647       71.292    25445.907    22394.182     5082.551       11.163        2.646      412.474       73.627        0.032      348.620       28.446      859.629
08/21/2014  16:41:00     -236.455     -198.596        0.809      154.819      113.309       70.156    23969.077    12838.982     4921.901        6.853        2.086      308.790       78.337        0.064      348.827       28.804      859.640
08/21/2014  16:42:00     -209.639     -198.681        2.406      193.302      127.583       61.647    37365.779    16277.491     3800.346        7.042        2.872      288.830       77.647        0.072      348.858       28.858      859.647
08/21/2014  16:43:00     -174.399     -207.863       14.541      127.212      122.954       58.713    16182.943    15117.649     3447.204        5.428        1.737      271.334       54.699        0.041      348.804       28.764      859.645
08/21/2014  16:44:00     -317.779     -154.769      -16.428      181.855      187.524       87.927    33071.343    35165.127     7731.166       10.057        3.798      353.465       91.261        0.067      348.815       28.783      859.618
08/21/2014  16:45:00     -423.175     -303.324       -1.756      227.851      145.845      101.697    51915.885    21270.651    10342.190       17.729        4.176      520.656      110.159        0.045      348.695       28.575      859.640
08/21/2014  16:46:00     -343.391     -222.685        8.072      183.146      111.070       68.656    33542.481    12336.614     4713.607       10.907        2.530      409.275       54.315        0.018      348.758       28.685      859.634
08/21/2014  16:47:00     -165.119     -160.782       -4.404      110.261      169.765       69.787    12157.437    28820.302     4870.250        4.948        2.292      230.467       78.158        0.115      348.840       28.826      859.629
08/21/2014  16:48:00     -240.384     -161.890        5.461      213.414      147.211       72.115    45545.624    21670.941     5200.523        7.821        3.621      289.815       87.659        0.091      348.906       28.941      859.661
08/21/2014  16:49:00     -446.678     -299.567      -17.443      197.275      179.815       96.211    38917.589    32333.361     9256.489       18.502        4.025      537.830      107.856        0.040      348.711       28.603      859.646
08/21/2014  16:50:00     -390.949     -194.159      -24.705      212.564      159.763       83.677    45183.436    25524.174     7001.762       13.441        3.885      436.507       94.183        0.047      348.734       28.645      859.672
08/21/2014  16:51:00     -444.810     -217.375       -0.907      227.385      204.289       96.767    51703.776    41733.802     9363.944       17.393        5.140      495.084      112.999        0.052      348.453       28.157      859.659
08/21/2014  16:52:00     -342.499     -158.511        4.529      171.359      145.919       82.964    29363.922    21292.342     6882.968        9.998        2.877      377.401       85.129        0.051      348.613       28.434      859.683
08/21/2014  16:53:00     -363.782     -162.875      -23.773      176.571      136.473       69.959    31177.219    18624.834     4894.193       10.705        2.735      398.580       70.199        0.031      348.485       28.211      859.698
08/21/2014  16:54:00     -423.389     -296.663        4.907      241.444      192.120       92.910    58295.005    36910.211     8632.245       18.554        5.192      516.979       90.875        0.031      348.494       28.227      859.674
08/21/2014  16:55:00     -442.742     -324.564       -0.221      240.819      198.681      119.368    57994.005    39474.199    14248.766       20.652        5.586      548.964      134.023        0.060      348.497       28.234      859.661
08/21/2014  16:56:00     -348.097     -197.617       14.915      262.759      191.194      102.255    69042.144    36555.286    10456.042       13.823        5.803      400.280       96.830        0.059      348.504       28.245      859.717
08/21/2014  16:57:00     -498.840     -399.112      -25.168      243.842      221.670      109.811    59458.854    49137.689    12058.420       26.469        6.033      638.852      128.519        0.040      348.371       28.016      859.720
08/21/2014  16:58:00     -431.489     -237.384       -7.223      195.872      184.295      104.584    38365.980    33964.728    10937.748       16.291        4.163      492.477      111.082        0.051      348.398       28.062      859.709
08/21/2014  16:59:00     -285.033     -242.498        4.629      154.460      148.226       81.575    23857.963    21970.980     6654.505        9.627        2.624      374.231       77.931        0.043      348.530       28.290      859.739
08/21/2014  17:00:00     -374.620     -139.597      -12.144      176.879      162.820       73.288    31286.035    26510.287     5371.072       11.156        3.158      399.785       68.710        0.030      348.676       28.542      859.772
08/21/2014  17:01:00     -498.785      -71.032      -31.610      170.918      129.905       78.879    29212.941    16875.204     6221.842       15.356        2.615      503.818       85.808        0.029      348.535       28.298      859.808
08/21/2014  17:02:00     -313.355      -31.892       -4.975      125.561      115.991       67.119    15765.675    13453.815     4504.927        6.647        1.686      314.973       61.954        0.039      348.608       28.424      859.801
08/21/2014  17:03:00     -319.235     -110.067      -11.825      207.037      160.395       73.443    42864.355    25726.432     5393.869        9.406        3.699      337.677       99.301        0.086      348.536       28.301      859.795
08/21/2014  17:04:00     -167.515     -173.874       -3.012      122.407      148.037       59.637    14983.563    21915.036     3556.552        4.937        2.023      241.440       58.127        0.058      348.611       28.431      859.808
08/21/2014  17:05:00     -231.318     -212.856        5.302      158.027      157.275       79.327    24972.577    24735.558     6292.797        7.741        2.800      314.349       49.815        0.025      348.737       28.648      859.794
08/21/2014  17:06:00     -328.913     -246.585       -0.512      211.879      208.669       84.179    44892.560    43542.902     7086.093       13.224        4.776      411.081      110.210        0.072      348.667       28.527      859.818
08/21/2014  17:07:00     -253.758     -190.563       -8.707      226.562      144.171       83.875    51330.123    20785.356     7035.013        8.995        3.958      317.344       62.744        0.039      348.650       28.499      859.810
08/21/2014  17:08:00     -461.212     -160.203      -22.798      257.143      142.022       89.859    66122.566    20170.227     8074.577       16.662        4.718      488.243       97.427        0.040      348.519       28.270      859.794
08/21/2014  17:09:00     -325.181     -215.203        4.958      184.825      136.337       77.236    34160.359    18587.642     5965.395       10.538        2.936      389.942       89.044        0.052      348.607       28.422      859.806
08/21/2014  17:10:00     -311.649     -197.654      -16.283      186.704      155.928       85.466    34858.490    24313.677     7304.406       10.145        3.324      369.043       99.603        0.073      348.547       28.319      859.810
08/21/2014  17:11:00     -268.777     -151.651        6.572      182.170      144.223       70.380    33185.998    20800.332     4953.282        7.710        2.947      308.608       76.978        0.062      348.668       28.529      859.809
08/21/2014  17:12:00     -451.058     -264.560       -9.614      225.062      137.554       96.314    50652.694    18921.149     9276.310       17.618        3.943      522.920      102.617        0.039      348.443       28.140      859.802
08/21/2014  17:13:00     -381.072     -215.882       -9.500      177.390      171.183       78.620    31467.378    29303.525     6181.170       12.942        3.348      437.973       69.340        0.025      348.555       28.334      859.801
08/21/2014  17:14:00     -312.231     -181.172       -3.333      173.552      133.550       81.527    30120.147    17835.710     6646.699        9.245        2.730      360.987       73.336        0.041      348.636       28.473      859.840
08/21/2014  17:15:00     -379.356     -217.232       -8.661      195.304      177.450       75.234    38143.603    31488.367     5660.186       13.322        3.765      437.150       76.952        0.031      348.499       28.237      859.870
08/21/2014  17:16:00     -444.994     -293.866      -15.343      226.633      182.948       91.778    51362.629    33470.035     8423.132       18.892        4.663      533.270      110.920        0.043      348.323       27.932      859.877
08/21/2014  17:17:00     -379.505     -241.697      -17.847      146.229      143.073       83.243    21382.849    20469.873     6929.358       12.576        2.439      449.935       61.268        0.019      348.358       27.992      859.892
08/21/2014  17:18:00     -516.442     -141.144      -20.994      156.356      172.987       87.377    24447.133    29924.368     7634.800       17.453        3.100      535.383       86.771        0.026      348.253       27.811      859.896
08/21/2014  17:19:00     -355.279     -139.184      -10.944      170.631      139.451       84.426    29114.965    19446.639     7127.773       10.069        2.784      381.570       93.001        0.059      348.406       28.075      859.876
08/21/2014  17:20:00     -229.315      -87.958       11.725      175.425       95.219       63.200    30774.044     9066.703     3994.210        5.214        2.192      245.606       72.599        0.087      348.551       28.327      859.908
08/21/2014  17:21:00     -417.929     -224.061      -30.689      138.562      149.848       70.657    19199.367    22454.493     4992.479       13.622        2.332      474.202       73.534        0.024      348.284       27.864      859.907
08/21/2014  17:22:00     -152.406     -172.418       15.582      176.020      132.549       81.293    30982.878    17569.201     6608.598        5.417        2.758      230.121       88.741        0.149      348.507       28.250      859.897
08/21/2014  17:23:00     -378.404     -271.645      -42.463      205.937      179.827       86.802    42410.198    32337.821     7534.515       15.052        4.114      465.812       88.424        0.036      348.354       27.984      859.860
08/21/2014  17:24:00     -326.810     -204.416      -14.660      166.335      145.364       68.882    27667.469    21130.571     4744.744       10.116        2.677      385.474       78.678        0.042      348.581       28.378      859.868
08/21/2014  17:25:00     -274.188     -217.540        6.890      210.723      190.836       90.520    44404.172    36418.358     8193.851       10.577        4.451      350.003       99.727        0.081      348.626       28.457      859.894
08/21/2014  17:26:00     -392.340     -264.784       -9.470      263.741      151.821      108.306    69559.249    23049.479    11730.179       16.421        5.217      473.330      122.242        0.067      348.432       28.120      859.909
08/21/2014  17:27:00     -393.667     -202.255       -4.234      200.585      156.040       83.694    40234.393    24348.518     7004.670       13.373        3.579      442.584       88.377        0.040      348.361       27.997      859.918
08/21/2014  17:28:00     -293.175     -180.721        2.119      187.927      154.118       75.874    35316.554    23752.207     5756.877        9.171        3.241      344.401       81.872        0.057      348.364       28.003      859.896
08/21/2014  17:29:00     -185.018      -68.772       10.202      142.409      128.343       67.862    20280.241    16471.875     4605.261        4.020        2.068      197.386       83.404        0.179      348.498       28.234      859.907
08/21/2014  17:30:00     -307.800     -179.200       -0.620      177.713      151.601       70.202    31581.738    22982.766     4928.322        9.316        2.975      356.164       76.456        0.046      348.480       28.202      859.878
08/21/2014  17:31:00     -468.445     -231.474      -23.627      180.560      180.795       89.000    32602.076    32686.862     7921.013       17.338        3.660      522.514       93.496        0.032      348.373       28.017      859.866
08/21/2014  17:32:00     -418.055     -173.602       -9.392      282.387      154.848       99.717    79742.274    23977.965     9943.536       15.931        5.683      452.667      125.673        0.077      348.395       28.055      859.874
08/21/2014  17:33:00     -404.773     -181.518       -6.016      225.266      148.255       94.141    50744.908    21979.413     8862.539       13.919        4.079      443.610      114.356        0.066      348.334       27.951      859.904
08/21/2014  17:34:00     -396.051     -178.784      -12.330      296.296      205.638      125.462    87791.032    42286.862    15740.696       16.737        7.291      434.534      143.887        0.110      348.267       27.835      859.875
08/21/2014  17:35:00     -436.979     -277.473      -14.790      179.866      171.966       90.913    32351.703    29572.219     8265.189       16.916        3.509      517.631       84.945        0.027      348.300       27.890      859.865
08/21/2014  17:36:00     -339.438     -279.383       -4.519      235.329      183.387      112.079    55379.965    33630.649    12561.787       14.741        5.079      439.628      119.824        0.074      348.253       27.810      859.879
08/21/2014  17:37:00     -495.712     -237.822        9.182      250.842      154.051       93.219    62921.908    23731.765     8689.814       19.884        4.767      549.809      107.311        0.038      348.262       27.827      859.890
08/21/2014  17:38:00     -453.713     -282.768       -5.922      227.372      140.325       92.271    51698.026    19691.203     8513.985       18.286        3.995      534.615      100.671        0.035      348.252       27.808      859.921
08/21/2014  17:39:00     -404.735     -249.434        3.896      231.840      180.361       95.649    53749.648    32530.170     9148.639       16.072        4.771      475.423      110.519        0.054      348.283       27.861      859.934
08/21/2014  17:40:00     -301.647     -215.629      -16.947      195.597      110.778       63.644    38258.186    12271.701     4050.598        9.617        2.729      370.792       68.792        0.034      348.223       27.759      859.968
08/21/2014  17:41:00     -177.911     -135.388       -1.838      141.321       95.869       60.150    19971.699     9190.793     3617.994        4.138        1.639      223.567       59.471        0.071      348.396       28.057      859.971
08/21/2014  17:42:00     -364.009     -244.624      -12.978      193.614      116.772       82.169    37486.259    13635.693     6751.685       12.518        2.894      438.570       97.581        0.050      348.282       27.860      859.981
08/21/2014  17:43:00     -158.562      -39.916       16.968      138.488       97.036       59.832    19178.830     9415.911     3579.907        2.959        1.609      163.509       61.322        0.141      348.440       28.135      859.968
08/21/2014  17:44:00     -314.775      -94.119       15.377      187.397      150.045       82.687    35117.458    22513.485     6837.104        8.631        3.223      328.545       82.795        0.064      348.347       27.975      859.967
08/21/2014  17:45:00     -418.116     -333.187       -9.870      273.143      213.704       99.823    74607.012    45669.551     9964.622       20.806        6.512      534.635      127.623        0.057      348.250       27.806      859.959
08/21/2014  17:46:00     -530.268     -373.683      -15.679      228.059      168.071       95.603    52011.011    28248.002     9140.015       25.522        4.470      648.709      103.232        0.025      348.087       27.523      859.952
08/21/2014  17:47:00     -446.065     -156.494      -15.586      210.728      203.326       85.539    44406.265    41341.459     7316.956       15.837        4.653      472.721      103.246        0.048      348.181       27.686      859.966
08/21/2014  17:48:00     -321.022     -257.604        3.788      229.821      184.199       90.613    52817.497    33929.340     8210.631       13.217        4.748      411.600      102.547        0.062      348.198       27.715      860.000
08/21/2014  17:49:00     -372.836     -262.704       18.103      242.469      146.296       96.423    58791.241    21402.652     9297.457       14.890        4.475      456.092      104.459        0.052      348.160       27.650      860.009
08/21/2014  17:50:00     -510.775     -288.190       -9.548      220.187      164.659       98.496    48482.443    27112.439     9701.516       21.465        4.265      586.468       99.085        0.029      348.001       27.375      860.045
08/21/2014  17:51:00     -337.446     -215.741       14.717      171.074      154.410       88.130    29266.323    23842.501     7766.944       11.074        3.044      400.517       93.184        0.054      348.029       27.423      860.031
08/21/2014  17:52:00     -322.813     -235.337        2.065      194.576      129.361       92.710    37859.862    16734.298     8595.157       11.138        3.159      399.490      110.349        0.076      348.028       27.423      860.006
08/21/2014  17:53:00     -296.785     -150.574      -14.427      181.635      125.228       64.421    32991.185    15682.173     4150.089        8.188        2.641      332.797       69.960        0.044      348.088       27.524      859.986
08/21/2014  17:54:00     -192.541     -172.695        8.204      177.637      142.237       78.166    31554.865    20231.446     6109.921        6.242        2.895      258.642       85.169        0.108      348.180       27.685      859.994
08/21/2014  17:55:00     -300.561     -202.314        4.656      179.386      141.351       82.769    32179.510    19980.068     6850.669        9.514        2.951      362.309       95.546        0.070      348.231       27.772      859.984
08/21/2014  17:56:00     -387.750     -203.552      -29.299      170.105      149.458       89.947    28935.570    22337.643     8090.541       12.599        2.968      437.931       86.420        0.039      348.124       27.587      860.008
08/21/2014  17:57:00     -299.324     -114.593        3.875      168.599      145.032       91.881    28425.509    21034.289     8442.055        8.031        2.895      320.509       82.516        0.066      348.119       27.579      859.999
08/21/2014  17:58:00     -342.970     -300.968       -1.916      184.895      139.252       87.320    34186.287    19391.004     7624.719       13.470        3.060      456.301       98.130        0.046      348.103       27.551      859.996
08/21/2014  17:59:00     -240.564     -127.628       13.274      204.250      132.874       82.637    41717.991    17655.425     6828.883        7.026        3.310      272.323       89.093        0.107      348.180       27.684      859.982
08/21/2014  18:00:00     -315.848     -189.927        6.804      172.242      161.792       89.901    29667.446    26176.731     8082.128        9.989        3.196      368.555      100.985        0.075      348.165       27.659      859.996
08/21/2014  18:01:00     -281.849     -202.528       -9.737      164.253      138.829       77.487    26978.927    19273.617     6004.236        8.639        2.613      347.068       72.705        0.044      348.212       27.741      859.990
08/21/2014  18:02:00     -255.882      -47.974        0.137      161.593      126.959       74.867    26112.386    16118.646     5605.088        5.780        2.392      260.341       80.368        0.095      348.257       27.818      859.990
08/21/2014  18:03:00     -258.480     -149.524      -18.881      148.448      128.732       58.181    22036.772    16571.841     3385.025        6.575        2.100      298.612       48.109        0.026      348.300       27.892      859.995
08/21/2014  18:04:00     -348.943     -134.819       -5.652      172.228      127.492       75.369    29662.461    16254.124     5680.523        9.577        2.580      374.082       80.085        0.046      348.149       27.630      859.994
08/21/2014  18:05:00     -244.216     -148.186        2.276      225.815      174.758       99.892    50992.239    30540.233     9978.384        8.654        4.576      285.658      108.243        0.144      348.118       27.578      859.984
08/21/2014  18:06:00     -351.362     -122.526       -0.028      201.798      127.756       76.221    40722.251    16321.518     5809.711       10.065        3.143      372.113       87.327        0.055      348.108       27.560      859.987
08/21/2014  18:07:00     -382.864     -223.741       -7.840      195.033      139.013       79.589    38037.952    19324.560     6334.338       13.019        3.185      443.446       87.221        0.039      347.965       27.313      859.990
08/21/2014  18:08:00     -343.093     -197.123       -8.325      206.931      160.833       92.481    42820.606    25867.228     8552.711       11.692        3.862      395.689      100.290        0.064      347.957       27.298      859.968
08/21/2014  18:09:00     -209.948     -183.342        3.511      147.844      155.772       77.974    21857.813    24264.761     6079.882        6.494        2.610      278.734       70.199        0.063      348.077       27.506      860.002
08/21/2014  18:10:00     -417.382     -207.203      -18.087      219.665      188.691       89.438    48252.604    35604.391     7999.120       15.464        4.593      465.984      103.158        0.049      347.975       27.330      860.000
08/21/2014  18:11:00     -281.311     -223.320       -6.748      209.452      127.351       86.380    43870.079    16218.270     7461.444        9.829        3.377      359.177       82.955        0.053      347.987       27.351      859.991
08/21/2014  18:12:00     -337.678     -258.408       -8.150      186.975      169.986       96.125    34959.580    28895.364     9239.930       12.697        3.655      425.207      100.744        0.056      347.947       27.282      860.002
08/21/2014  18:13:00     -396.756     -309.507      -35.972      130.520      190.817       76.617    17035.369    36411.191     5870.150       15.690        2.966      503.200       73.804        0.022      347.958       27.301      860.006
08/21/2014  18:14:00     -429.274     -334.280      -19.561      204.476      185.660      102.731    41810.498    34469.742    10553.650       19.160        4.342      544.077      107.438        0.039      347.941       27.270      860.007
08/21/2014  18:15:00     -317.814     -203.459        2.661      187.512      146.221       67.907    35160.720    21380.604     4611.353       10.177        3.058      377.361       89.078        0.056      347.995       27.365      860.014
08/21/2014  18:16:00     -467.952     -292.818      -20.431      226.236      141.853       90.530    51182.589    20122.190     8195.760       19.230        3.975      552.016      107.183        0.038      347.862       27.135      860.002
08/21/2014  18:17:00     -286.484     -182.094        0.040      168.504      128.021       72.054    28393.582    16389.477     5191.795        8.259        2.499      339.457       74.278        0.048      347.921       27.237      859.997
08/21/2014  18:18:00     -263.862     -146.434       -9.977      144.440       93.266       59.075    20862.903     8698.483     3489.905        6.210        1.653      301.771       68.022        0.051      347.978       27.336      859.988
08/21/2014  18:19:00     -320.009     -178.412      -12.321      185.778      156.369       71.116    34513.526    24451.177     5057.435        9.919        3.201      366.383       78.958        0.046      347.968       27.319      859.986
08/21/2014  18:20:00     -347.533     -211.055       -8.444      158.216      124.308       67.331    25032.189    15452.438     4533.429       10.520        2.251      406.600       75.711        0.035      347.977       27.333      859.971
08/21/2014  18:21:00     -283.623     -131.565       -7.424      125.889      180.965       71.924    15847.917    32748.171     5173.026        7.578        2.688      312.652       64.924        0.043      348.024       27.415      859.978
08/21/2014  18:22:00     -173.342      -52.637       11.286      116.047      107.111       51.330    13467.008    11472.723     2634.726        3.025        1.379      181.158       50.526        0.078      348.124       27.589      859.996
08/21/2014  18:23:00     -368.778     -145.454       -6.288      206.959      144.806       72.320    42831.980    20968.785     5230.202       11.310        3.452      396.427       81.686        0.042      348.047       27.454      859.990
08/21/2014  18:24:00     -403.579     -153.903      -17.626      143.003      173.003       80.259    20449.886    29930.164     6441.461       12.184        2.841      431.929       81.082        0.035      347.946       27.280      860.006
08/21/2014  18:25:00     -301.693     -126.746      -11.946      152.881      102.080       65.107    23372.557    10420.415     4238.926        7.262        1.902      327.236       73.317        0.050      347.962       27.309      859.989
08/21/2014  18:26:00     -280.259      -43.177        9.070      116.717      122.001       68.068    13622.767    14884.142     4633.227        5.681        1.657      283.565       63.667        0.050      347.973       27.326      859.994
08/21/2014  18:27:00     -263.544     -187.480       11.200      147.881      127.443       77.455    21868.841    16241.796     5999.253        7.441        2.205      323.426       85.865        0.070      347.954       27.295      860.013
08/21/2014  18:28:00     -145.036     -147.649       23.901      144.133      138.628       71.845    20774.304    19217.616     5161.658        4.427        2.258      206.968       78.209        0.143      347.933       27.258      860.009
08/21/2014  18:29:00     -312.774      -63.862       -1.350      239.656      153.159       81.526    57435.090    23457.634     6646.520        9.471        4.377      319.227       93.345        0.086      347.952       27.292      860.040
08/21/2014  18:30:00     -427.507     -231.408       -8.585      254.668      168.604      100.895    64855.651    28427.355    10179.748       16.990        5.173      486.119      107.513        0.049      347.752       26.946      860.045
08/21/2014  18:31:00     -377.073     -215.109      -13.914      199.306      152.927       82.233    39722.713    23386.770     6762.293       12.925        3.494      434.115       95.595        0.048      347.770       26.977      860.026
08/21/2014  18:32:00     -409.515     -295.282      -23.557      160.438      158.258       83.987    25740.465    25045.613     7053.756       15.663        2.892      504.870       83.399        0.027      347.751       26.943      860.037
08/21/2014  18:33:00     -350.174     -256.181      -15.392      172.397      136.189       92.003    29720.709    18547.341     8464.473       12.260        2.837      433.879       96.506        0.049      347.721       26.892      860.025
08/21/2014  18:34:00     -338.749     -202.405       -1.774      149.361      136.525       63.423    22308.739    18639.185     4022.501       10.034        2.249      394.612       62.829        0.025      347.742       26.929      860.020
08/21/2014  18:35:00     -362.122     -286.385      -13.347      183.721      173.656       78.999    33753.247    30156.257     6240.882       14.172        3.508      461.680       81.852        0.031      347.722       26.893      860.018
08/21/2014  18:36:00     -266.576     -158.625       -3.890      195.271      140.607       79.391    38130.786    19770.318     6302.999        8.021        3.210      310.201       76.446        0.061      347.734       26.915      860.024
08/21/2014  18:37:00     -335.865     -200.475       -4.811      181.728      164.920       80.033    33025.040    27198.512     6405.268       10.981        3.331      391.146       88.102        0.051      347.737       26.920      860.044
08/21/2014  18:38:00     -510.516     -255.797       -5.058      222.176      194.194       95.689    49362.003    37711.351     9156.480       21.114        4.811      571.015      110.322        0.037      347.683       26.826      860.031
08/21/2014  18:39:00     -368.390     -174.844       10.074      221.280      181.429      102.023    48965.014    32916.541    10408.774       12.932        4.615      407.777      101.056        0.061      347.640       26.752      860.038
08/21/2014  18:40:00     -256.927     -130.467       -0.982      202.532      142.273       86.181    41019.117    20241.625     7427.232        7.585        3.434      288.155       93.416        0.105      347.681       26.824      860.036
08/21/2014  18:41:00     -445.342     -222.859       -8.333      205.058      164.181       90.599    42048.933    26955.444     8208.107       16.262        3.861      497.992       90.502        0.033      347.608       26.697      860.067
08/21/2014  18:42:00     -445.579     -183.144      -13.431      209.432      145.629       99.971    43861.746    21207.784     9994.211       15.365        3.753      481.749      108.116        0.050      347.591       26.667      860.048
08/21/2014  18:43:00     -335.847     -226.923        3.918      208.249      179.572      102.123    43367.516    32246.268    10429.039       12.516        4.302      405.323      118.885        0.086      347.591       26.668      860.046
08/21/2014  18:44:00     -231.256     -178.571       -3.135      130.056      125.232       81.984    16914.561    15683.113     6721.454        6.234        1.966      292.176       78.208        0.072      347.619       26.717      860.056
08/21/2014  18:45:00     -369.319     -198.338        5.790      224.138      180.125      108.166    50237.678    32444.915    11699.871       13.506        4.719      419.207      111.841        0.071      347.560       26.615      860.073
08/21/2014  18:46:00     -302.612     -246.707       -2.174      165.380      150.066       86.495    27350.415    22519.708     7481.405       10.489        2.868      390.434       91.876        0.055      347.592       26.671      860.068
08/21/2014  18:47:00     -231.957     -158.284        5.201      131.837       94.465       67.117    17380.992     8923.685     4504.641        5.484        1.540      280.817       59.741        0.045      347.608       26.698      860.089
08/21/2014  18:48:00     -282.335     -236.292      -10.135      203.751      182.365      103.556    41514.304    33256.960    10723.876       11.056        4.275      368.167      111.740        0.092      347.557       26.610      860.077
08/21/2014  18:49:00     -371.100      -76.538        8.164      198.409      162.545      101.266    39366.143    26420.839    10254.843       10.983        3.802      378.911      109.395        0.083      347.554       26.605      860.095
08/21/2014  18:50:00     -439.702     -280.766      -22.353      208.399      172.388       78.750    43430.272    29717.597     6201.556       17.599        3.967      521.697       86.242        0.027      347.501       26.512      860.115
08/21/2014  18:51:00     -318.635     -219.725       -2.863      166.309      160.409       67.300    27658.539    25731.125     4529.275       10.386        2.896      387.049       78.417        0.041      347.543       26.585      860.117
08/21/2014  18:52:00     -357.438     -242.405      -18.884      199.194      132.648       85.063    39678.253    17595.560     7235.665       12.568        3.225      431.882       96.692        0.050      347.460       26.442      860.119
08/21/2014  18:53:00     -257.996     -186.357      -10.044      149.087      125.611       64.618    22226.877    15778.197     4175.503        7.178        2.109      318.262       57.794        0.033      347.473       26.465      860.121
08/21/2014  18:54:00     -272.981     -209.254       -9.980      168.089      135.090       82.940    28254.056    18249.400     6879.005        8.588        2.669      343.956       86.935        0.064      347.486       26.486      860.131
08/21/2014  18:55:00     -347.614     -169.344       -3.126      198.385      183.298       75.546    39356.452    33598.035     5707.208       11.408        3.933      386.668       88.553        0.052      347.462       26.444      860.124
08/21/2014  18:56:00     -288.302     -125.848       11.764      217.676      147.771       78.918    47382.726    21836.285     6228.006        8.726        3.772      314.572       90.428        0.083      347.463       26.447      860.149
08/21/2014  18:57:00     -345.097     -125.054      -10.686      136.774      132.235       61.089    18707.149    17485.995     3731.845        8.738        1.996      367.057       62.990        0.029      347.441       26.408      860.156
08/21/2014  18:58:00     -319.330     -210.972        5.977      193.497      151.746       84.126    37441.140    23026.711     7077.181       10.702        3.377      382.728       91.172        0.057      347.432       26.393      860.148
08/21/2014  18:59:00     -374.032     -220.514       -6.453      224.810      157.856       93.155    50539.480    24918.477     8677.779       13.633        4.207      434.196      117.641        0.073      347.374       26.294      860.138
08/21/2014  19:00:00     -418.177     -265.356       -6.896      243.405      184.769       96.879    59245.890    34139.647     9385.507       17.403        5.139      495.263      108.068        0.048      347.364       26.276      860.151
08/21/2014  19:01:00     -317.228     -195.721        0.246      192.262      131.957       90.382    36964.862    17412.770     8168.936       10.073        3.127      372.747      101.410        0.074      347.368       26.283      860.169
08/21/2014  19:02:00     -312.342     -171.977      -10.448      189.876      131.186       89.801    36053.025    17209.831     8064.247        9.427        3.066      356.558       99.210        0.077      347.367       26.281      860.179
08/21/2014  19:03:00     -194.529      -42.666       -4.873      142.336      119.717       66.250    20259.597    14332.066     4389.083        3.933        1.949      199.152       54.676        0.075      347.391       26.323      860.183
08/21/2014  19:04:00     -406.110     -179.774      -22.968      191.545      174.113       75.707    36689.323    30315.329     5731.510       13.524        3.637      444.121       85.169        0.037      347.317       26.195      860.184
08/21/2014  19:05:00     -365.446     -200.971       -7.125      215.369      140.040       90.326    46383.628    19611.337     8158.797       12.406        3.708      417.061      113.787        0.074      347.333       26.222      860.164
08/21/2014  19:06:00     -328.771     -160.796      -13.270      209.493      128.566       74.559    43887.489    16529.106     5559.119       10.004        3.299      365.986       96.443        0.069      347.314       26.190      860.169
08/21/2014  19:07:00     -305.515     -104.066        1.080      176.090      145.010       82.375    31007.816    21027.977     6785.570        8.148        2.941      322.752       90.149        0.078      347.333       26.223      860.190
08/21/2014  19:08:00     -389.717     -175.012        0.543      224.688      194.045       99.028    50484.602    37653.477     9806.496       14.021        4.897      427.211      110.602        0.067      347.281       26.132      860.193
08/21/2014  19:09:00     -317.886     -181.398      -15.423       98.978      116.322       59.974     9796.725    13530.870     3596.911        8.055        1.346      366.001       48.196        0.017      347.301       26.165      860.207
08/21/2014  19:10:00     -146.105     -115.331       -2.208      130.562       94.383       73.128    17046.472     8908.134     5347.729        3.297        1.565      186.140       72.674        0.152      347.323       26.207      860.220
08/21/2014  19:11:00     -217.111      -60.794        3.058      131.207       80.898       47.487    17215.314     6544.535     2254.998        3.842        1.301      225.462       56.983        0.064      347.283       26.138      860.224
08/21/2014  19:12:00     -390.126     -152.281      -15.217      153.959      129.397       81.598    23703.442    16743.634     6658.221       11.135        2.355      418.793       74.117        0.031      347.239       26.060      860.237
08/21/2014  19:13:00     -219.427     -170.582        6.525      153.552      108.330       86.156    23578.189    11735.358     7422.880        6.000        2.137      277.933       85.236        0.094      347.224       26.034      860.213
08/21/2014  19:14:00     -282.420      -88.954        1.616      242.905      164.609       76.965    59002.869    27095.983     5923.555        8.983        4.601      296.098       92.054        0.097      347.214       26.018      860.209
08/21/2014  19:15:00     -348.578     -205.921        2.203      195.717      209.197       92.200    38305.207    43763.208     8500.853       12.722        4.528      404.858       97.643        0.058      347.195       25.985      860.225
08/21/2014  19:16:00     -318.728     -135.610        3.184      160.848      164.592       82.602    25872.230    27090.636     6823.118        8.987        2.989      346.377       79.698        0.053      347.193       25.982      860.239
08/21/2014  19:17:00     -289.136     -152.734       -9.691      237.460      151.572       85.971    56387.092    22974.128     7391.088        9.687        4.338      326.997       96.218        0.087      347.172       25.946      860.254
08/21/2014  19:18:00     -272.617     -196.469        9.574      192.933      140.736       79.937    37223.274    19806.613     6389.934        8.820        3.171      336.036       97.344        0.084      347.169       25.941      860.255
08/21/2014  19:19:00     -281.365     -200.183       17.000      195.082      120.408       96.544    38056.924    14498.199     9320.656        9.069        3.094      345.311       94.723        0.075      347.141       25.892      860.248
08/21/2014  19:20:00     -252.673     -153.481      -17.854      171.843      143.135       71.472    29530.049    20487.579     5108.313        7.141        2.756      295.635       70.955        0.058      347.135       25.883      860.260
08/21/2014  19:21:00     -408.510     -167.486        7.940      191.626      183.448       93.686    36720.529    33653.083     8777.063       13.706        3.958      441.511      105.172        0.057      347.100       25.821      860.261
08/21/2014  19:22:00     -363.012     -183.891      -13.084      128.748      120.307       67.325    16575.990    14473.690     4532.681       10.067        1.779      406.932       62.610        0.024      347.101       25.822      860.297
08/21/2014  19:23:00     -291.449     -198.815      -16.570      173.412      145.918       73.971    30071.736    21292.045     5471.656        9.078        2.842      352.803       80.036        0.051      347.088       25.800      860.314
08/21/2014  19:24:00     -357.294     -231.471       -2.569      219.840      128.352       87.114    48329.771    16474.245     7588.907       12.680        3.620      425.721      112.442        0.070      347.045       25.727      860.317
08/21/2014  19:25:00     -245.374     -104.386        9.764      146.601      128.745       74.509    21491.875    16575.356     5551.559        5.740        2.181      266.655       74.252        0.078      347.057       25.748      860.344
08/21/2014  19:26:00     -479.645     -212.496      -15.319      288.458      150.912       97.034    83208.226    22774.326     9415.661       19.540        5.770      524.608      128.100        0.060      347.016       25.677      860.338
08/21/2014  19:27:00     -362.656     -126.256      -21.458      174.884      165.761       68.620    30584.391    27476.690     4708.670       10.533        3.138      384.005       63.320        0.027      346.999       25.648      860.371
08/21/2014  19:28:00     -272.265      -97.940       -6.118      165.063      170.106       78.847    27245.848    28935.952     6216.847        7.307        3.120      289.345       71.951        0.062      346.973       25.602      860.394
08/21/2014  19:29:00     -237.445     -176.108      -14.957      108.655      115.051       57.775    11805.946    13236.799     3337.997        5.799        1.419      295.625       56.245        0.036      346.986       25.624      860.430
08/21/2014  19:30:00     -112.745      -64.126        2.982      132.533       85.890       55.790    17565.075     7377.115     3112.496        2.244        1.403      129.705       42.694        0.108      346.953       25.570      860.444
08/21/2014  19:31:00     -131.867     -110.214       11.513      130.002       96.950       61.051    16900.427     9399.235     3727.229        2.984        1.501      171.861       74.254        0.187      346.938       25.545      860.471
08/21/2014  19:32:00     -166.113      -63.804       -2.056      137.313       96.389       59.786    18854.883     9290.863     3574.369        3.169        1.586      177.945       61.579        0.120      346.980       25.616      860.489
08/21/2014  19:33:00     -271.347      -55.356      -10.558      145.749       95.581       69.380    21242.643     9135.747     4813.600        5.599        1.760      276.936       76.716        0.077      346.891       25.461      860.516
08/21/2014  19:34:00     -472.288      -26.617      -33.428      191.361      178.429       69.989    36619.019    31836.976     4898.406       14.910        3.668      473.037       81.140        0.029      346.894       25.466      860.505
08/21/2014  19:35:00     -333.172     -146.904       -7.404      129.093       90.340       69.772    16664.920     8161.227     4868.080        8.116        1.485      364.122       69.061        0.036      346.879       25.440      860.513
08/21/2014  19:36:00     -538.476      -77.906      -27.499      245.341      189.223       94.903    60192.254    35805.298     9006.503       20.087        5.250      544.082      115.532        0.045      346.868       25.421      860.500
08/21/2014  19:37:00     -386.183     -201.879        8.732      208.139      180.410       98.973    43321.836    32547.724     9795.714       13.780        4.283      435.766      116.281        0.071      346.864       25.416      860.499
08/21/2014  19:38:00     -265.750     -113.369       19.713      271.842      200.462       88.223    73898.063    40185.033     7783.327       10.284        6.093      288.921      123.781        0.184      346.872       25.429      860.495
08/21/2014  19:39:00     -270.355     -108.471        0.701      153.950      171.864       87.466    23700.748    29537.343     7650.380        7.286        3.044      291.303       88.956        0.093      346.839       25.373      860.525
08/21/2014  19:40:00     -263.229      -32.376      -14.296      151.290      107.721       87.768    22888.813    11603.781     7703.281        5.636        2.110      265.213       77.053        0.084      346.831       25.359      860.532
08/21/2014  19:41:00     -206.777     -100.874        6.919      118.936      115.145       59.921    14145.749    13258.387     3590.481        4.198        1.550      230.070       57.756        0.063      346.796       25.299      860.557
08/21/2014  19:42:00     -316.155     -139.065      -14.498      238.869      171.593       86.238    57058.582    29444.107     7437.054       10.670        4.697      345.388      117.810        0.116      346.805       25.315      860.564
08/21/2014  19:43:00     -167.737      -24.948        1.694      105.842       86.830       42.072    11202.608     7539.393     1770.044        2.463        1.026      169.583       44.582        0.069      346.777       25.267      860.558
08/21/2014  19:44:00     -222.895      -76.099        3.059      116.574       76.489       53.848    13589.457     5850.564     2899.660        3.891        1.117      235.528       49.939        0.045      346.745       25.209      860.567
08/21/2014  19:45:00     -333.283     -129.452        2.647      112.051       74.428       55.849    12555.350     5539.476     3119.155        7.452        1.061      357.540       49.332        0.019      346.737       25.196      860.570
08/21/2014  19:46:00     -290.778      -59.218       -5.869      115.374       95.034       50.088    13311.144     9031.393     2508.835        5.647        1.243      296.747       43.180        0.021      346.724       25.175      860.565
08/21/2014  19:47:00     -228.391      -84.551       -4.200      112.777       91.558       48.749    12718.684     8382.935     2376.475        4.140        1.174      243.539       46.532        0.037      346.705       25.141      860.575
08/21/2014  19:48:00     -244.115      -46.629        0.145      104.035      125.920       60.580    10823.248    15855.746     3669.919        4.605        1.517      248.528       51.413        0.043      346.688       25.111      860.580
08/21/2014  19:49:00     -305.874      -54.871       -9.747      129.011       92.287       52.688    16643.810     8516.854     2776.077        6.230        1.397      310.757       62.252        0.040      346.676       25.091      860.590
08/21/2014  19:50:00     -372.710      -21.859      -28.738      181.072       93.370       59.725    32786.985     8717.988     3567.049        9.264        2.254      373.350       74.024        0.039      346.667       25.075      860.600
08/21/2014  19:51:00     -219.222      -69.788        4.849      106.524      127.728       63.867    11347.322    16314.457     4079.031        4.234        1.587      230.063       57.336        0.062      346.649       25.045      860.606
08/21/2014  19:52:00     -206.275      -46.455       -4.252       83.615       91.342       53.424     6991.406     8343.329     2854.112        3.145        0.909      211.441       46.823        0.049      346.659       25.062      860.632
08/21/2014  19:53:00     -294.621      -26.672      -11.231      144.546      112.688       60.872    20893.662    12698.610     3705.393        6.246        1.865      295.826       71.504        0.058      346.637       25.024      860.647
08/21/2014  19:54:00     -224.411      -67.349       -9.867       84.254       67.868       45.555     7098.818     4606.107     2075.271        3.438        0.689      234.300       40.603        0.030      346.604       24.970      860.678
08/21/2014  19:55:00     -191.979      -39.415       -3.263       97.996       63.313       37.344     9603.307     4008.497     1394.589        2.671        0.750      195.983       32.497        0.027      346.592       24.947      860.703
08/21/2014  19:56:00     -233.972      -60.490       -0.461      100.500       81.008       46.004    10100.164     6562.269     2116.400        3.859        0.939      241.665       49.339        0.042      346.584       24.933      860.704
08/21/2014  19:57:00     -315.226      -25.883      -26.111       94.316       90.026       46.227     8895.515     8104.757     2136.974        5.992        0.957      316.287       42.915        0.018      346.594       24.952      860.715
08/21/2014  19:58:00     -203.641     -124.826      -15.914       69.566       61.012       36.316     4839.496     3722.479     1318.859        3.359        0.494      238.854       32.583        0.019      346.564       24.899      860.721
08/21/2014  19:59:00     -240.261      -64.025       -4.061      139.879       80.358       47.755    19566.241     6457.357     2280.580        4.507        1.415      248.646       61.245        0.061      346.527       24.836      860.726
08/21/2014  20:00:00     -369.130      -80.616      -31.333      113.408       82.400       50.598    12861.417     6789.784     2560.111        8.297        1.111      377.831       53.729        0.020      346.576       24.919      860.717
08/21/2014  20:01:00     -222.830      -63.415      -14.236       98.280       76.107       41.036     9658.986     5792.205     1683.986        3.550        0.857      231.678       37.995        0.027      346.511       24.809      860.725
08/21/2014  20:02:00     -160.399      -86.829        4.898       87.896       77.496       42.830     7725.685     6005.565     1834.373        2.443        0.778      182.393       46.436        0.065      346.484       24.762      860.739
08/21/2014  20:03:00     -191.099      -91.255       -6.905      148.584       71.829       54.634    22077.165     5159.394     2984.861        3.755        1.511      211.770       63.621        0.090      346.478       24.754      860.743
08/21/2014  20:04:00     -274.162      -91.556      -23.104      136.080      111.754       63.420    18517.688    12488.889     4022.042        5.955        1.751      289.045       57.974        0.040      346.467       24.731      860.725
08/21/2014  20:05:00     -174.334       -1.848       -4.440       72.283       70.603       40.346     5224.868     4984.824     1627.776        2.112        0.592      174.344       31.793        0.033      346.456       24.714      860.745
08/21/2014  20:06:00     -317.054      -29.386      -21.236       84.297      107.819       54.205     7105.987    11625.013     2938.166        6.175        1.083      318.413       43.992        0.019      346.461       24.721      860.744
08/21/2014  20:07:00     -268.218     -117.739        3.869      120.933       90.770       62.583    14624.712     8239.241     3916.580        5.629        1.339      292.922       59.806        0.042      346.426       24.663      860.752
08/21/2014  20:08:00     -268.825      -39.050      -23.554      107.716       88.271       49.681    11602.753     7791.688     2468.192        4.810        1.093      271.646       53.832        0.039      346.433       24.673      860.749
08/21/2014  20:09:00     -280.934      -66.256      -10.624      106.485      111.640       52.090    11339.037    12463.585     2713.358        5.497        1.326      288.641       48.823        0.029      346.413       24.638      860.765
08/21/2014  20:10:00     -201.317      -65.996      -12.101      121.322       86.814       56.207    14719.010     7536.668     3159.173        3.522        1.271      211.858       65.074        0.094      346.402       24.622      860.771
08/21/2014  20:11:00     -200.155      -25.401      -22.272      136.257       68.002       50.087    18565.941     4624.275     2508.752        3.345        1.285      201.760       66.228        0.108      346.388       24.597      860.778
08/21/2014  20:12:00     -202.447      -39.847      -13.805       90.863       93.186       44.865     8256.113     8683.721     2012.896        3.085        0.948      206.331       50.710        0.060      346.374       24.570      860.772
08/21/2014  20:13:00     -295.985      -55.751      -23.869      101.323       69.539       49.487    10266.352     4835.653     2448.984        5.441        0.878      301.190       45.491        0.023      346.382       24.585      860.784
08/21/2014  20:14:00     -247.204      -32.245       -9.097      108.207       75.067       46.507    11708.799     5635.119     2162.942        4.087        0.975      249.298       45.685        0.034      346.343       24.518      860.791
08/21/2014  20:15:00     -110.966      -89.211        2.179      101.026       78.138       48.359    10206.310     6105.542     2338.576        1.946        0.933      142.380       50.571        0.126      346.316       24.475      860.800
08/21/2014  20:16:00     -156.406      -50.216       -2.267       83.242       91.437       42.624     6929.244     8360.758     1816.778        2.204        0.855      164.270       38.795        0.056      346.331       24.498      860.812
08/21/2014  20:17:00     -163.822      -15.918      -12.681       89.852       66.247       41.028     8073.339     4388.632     1683.328        2.070        0.707      164.593       44.390        0.073      346.303       24.452      860.805
08/21/2014  20:18:00     -115.538      -45.231        0.623       63.030       66.012       38.654     3972.826     4357.595     1494.118        1.261        0.491      124.076       36.941        0.089      346.277       24.409      860.822
08/21/2014  20:19:00     -196.946      -43.112       -6.370       85.626       93.084       42.448     7331.742     8664.546     1801.849        2.924        0.890      201.609       38.815        0.037      346.248       24.355      860.825
08/21/2014  20:20:00     -165.601      -62.426       11.204       84.401       89.412       53.351     7123.448     7994.482     2846.316        2.470        0.898      176.976       50.320        0.081      346.230       24.325      860.825
08/21/2014  20:21:00     -304.367      -31.355        5.627      180.454      135.069       70.962    32563.826    18243.508     5035.668        7.474        2.792      305.978       83.565        0.075      346.254       24.366      860.830
08/21/2014  20:22:00     -277.045      -70.616       -8.585      107.818       71.851       44.861    11624.748     5162.632     2012.469        5.030        0.940      285.903       48.027        0.028      346.237       24.336      860.848
08/21/2014  20:23:00     -130.903      -72.004       14.109      127.838       73.847       48.364    16342.452     5453.317     2339.071        2.332        1.207      149.400       60.273        0.163      346.232       24.328      860.883
08/21/2014  20:24:00     -279.963      -89.304      -21.669      122.660      113.379       49.820    15045.594    12854.727     2482.043        5.860        1.519      293.862       48.191        0.027      346.239       24.340      860.896
08/21/2014  20:25:00      -61.793      -22.859        6.972       98.704       59.280       46.976     9742.490     3514.173     2206.759        0.992        0.773       65.885       55.067        0.699      346.198       24.272      860.911
08/21/2014  20:26:00     -180.320       17.329      -14.031       81.365       53.143       39.147     6620.254     2824.158     1532.503        2.199        0.549      181.150       33.693        0.035      346.229       24.323      860.914
08/21/2014  20:27:00     -106.900      -56.846       -4.662       53.961       47.201       27.723     2911.800     2227.909      768.584        1.029        0.295      121.075       26.205        0.047      346.153       24.196      860.930
08/21/2014  20:28:00     -101.467      -28.915        6.494       53.654       45.124       36.025     2878.740     2036.214     1297.813        0.869        0.311      105.507       31.166        0.087      346.133       24.161      860.939
08/21/2014  20:29:00     -208.775      -29.398      -20.787      137.835       65.981       47.199    18998.395     4353.546     2227.733        3.523        1.279      210.835       68.386        0.105      346.161       24.207      860.955
08/21/2014  20:30:00     -232.077     -118.835       -5.116       94.842       71.921       44.685     8994.943     5172.560     1996.773        4.208        0.808      260.733       45.296        0.030      346.167       24.216      860.956
08/21/2014  20:31:00     -261.582     -121.624       -7.397      170.283      143.697       64.157    28996.451    20648.833     4116.130        6.851        2.688      288.474       72.068        0.062      346.162       24.209      860.959
08/21/2014  20:32:00     -277.477      -64.742      -28.231      111.424       82.381       46.283    12415.247     6786.704     2142.127        5.166        1.067      284.930       41.922        0.022      346.149       24.185      860.967
08/21/2014  20:33:00     -120.512      -36.238       -1.598       82.709       72.637       42.533     6840.754     5276.138     1809.050        1.488        0.696      125.842       47.277        0.141      346.107       24.115      860.977
08/21/2014  20:34:00      -96.835      -11.589       18.164      104.906       81.020       56.379    11005.183     6564.271     3178.565        1.529        1.037       97.526       61.035        0.392      346.049       24.015      860.982
08/21/2014  20:35:00     -139.281      -87.932       14.771      128.170      120.116       57.399    16427.524    14427.880     3294.627        3.074        1.708      164.716       67.192        0.166      346.099       24.101      861.001
08/21/2014  20:36:00     -149.182     -104.080       18.907      139.571      122.193       63.875    19479.998    14931.033     4079.955        3.596        1.925      181.900       61.844        0.116      346.067       24.045      860.994
08/21/2014  20:37:00     -285.675       13.272       -4.178      121.180       96.918       57.310    14684.595     9393.148     3284.388        5.458        1.368      285.983       57.737        0.041      346.096       24.096      861.008
08/21/2014  20:38:00      -86.249      -93.040        3.717      116.745      104.492       54.257    13629.348    10918.500     2943.826        2.179        1.375      126.868       56.663        0.199      346.102       24.106      861.004
08/21/2014  20:39:00     -158.086      -14.115        5.619      127.857      102.720       56.414    16347.405    10551.348     3182.578        2.765        1.504      158.715       52.191        0.108      346.072       24.054      860.999
08/21/2014  20:40:00     -148.041     -125.621        0.071      131.054       79.562       66.617    17175.137     6330.174     4437.874        3.281        1.397      194.156       51.407        0.070      346.069       24.049      861.021
08/21/2014  20:41:00     -209.672      -75.091      -14.139      107.381       83.082       58.802    11530.584     6902.544     3457.623        3.584        1.095      222.713       64.068        0.083      346.064       24.039      861.035
08/21/2014  20:42:00     -151.561      -51.635       -8.017       86.601       51.686       39.044     7499.785     2671.410     1524.430        1.870        0.585      160.115       38.099        0.057      346.021       23.967      861.040
08/21/2014  20:43:00     -223.203      -25.151       -8.922       90.010       66.967       40.379     8101.802     4484.630     1630.426        3.237        0.711      224.616       37.278        0.028      346.005       23.937      861.061
08/21/2014  20:44:00     -220.191      -44.692       -1.400      127.612       74.699       52.871    16284.763     5579.968     2795.331        3.757        1.233      224.681       53.659        0.057      345.959       23.860      861.070
08/21/2014  20:45:00     -216.145      -42.173        4.461      131.485       81.046       49.288    17288.379     6568.480     2429.330        3.740        1.314      220.221       48.241        0.048      345.948       23.841      861.079
08/21/2014  20:46:00     -216.267      -43.221       -5.614      122.602      101.303       57.306    15031.215    10262.230     3284.020        3.862        1.429      220.543       64.428        0.085      345.966       23.872      861.070
08/21/2014  20:47:00     -234.178      -91.326       -9.551       78.902       88.883       42.323     6225.572     7900.147     1791.242        3.959        0.796      251.355       24.484        0.009      345.935       23.820      861.096
08/21/2014  20:48:00     -186.502     -198.228        3.671      160.084      175.862       65.619    25626.852    30927.317     4305.880        6.746        3.043      272.171       76.502        0.079      345.969       23.877      861.085
08/21/2014  20:49:00     -154.345     -129.906       -1.977      120.403       88.686       56.367    14496.945     7865.293     3177.244        3.312        1.277      201.738       49.018        0.059      345.928       23.807      861.095
08/21/2014  20:50:00     -106.590      -55.392       -3.697       76.064       54.430       35.208     5785.701     2962.582     1239.615        1.221        0.499      120.124       41.032        0.117      345.890       23.743      861.106
08/21/2014  20:51:00     -125.880      -37.249       -2.884       94.383       68.814       40.881     8908.183     4735.355     1671.295        1.628        0.766      131.275       32.804        0.062      345.890       23.743      861.114
08/21/2014  20:52:00     -219.410     -123.021       -0.846      117.241      134.021       51.250    13745.444    17961.530     2626.586        4.880        1.717      251.545       49.322        0.038      345.894       23.746      861.119
08/21/2014  20:53:00     -219.623      -72.397        1.048      103.241      126.495       66.052    10658.744    16000.975     4362.908        4.224        1.551      231.247       67.808        0.086      345.837       23.647      861.142
08/21/2014  20:54:00     -206.355      -93.206      -12.155      142.529      103.665       53.565    20314.630    10746.512     2869.196        4.267        1.697      226.428       63.022        0.077      345.831       23.639      861.151
08/21/2014  20:55:00     -285.881      -18.110      -17.737      126.172      117.529       57.806    15919.419    13813.033     3341.585        5.772        1.654      286.454       61.045        0.045      345.822       23.625      861.187
08/21/2014  20:56:00     -193.608       17.927        8.912      127.559       86.607       54.876    16271.326     7500.826     3011.347        3.233        1.339      194.436       50.849        0.068      345.787       23.565      861.209
08/21/2014  20:57:00     -154.537      -59.919        0.013       80.842       73.923       45.850     6535.381     5464.574     2102.213        2.078        0.705      165.747       43.632        0.069      345.822       23.624      861.230
08/21/2014  20:58:00     -129.335      -39.815        1.980       87.031       67.686       38.785     7574.396     4581.441     1504.255        1.599        0.683      135.325       38.528        0.081      345.798       23.585      861.234
08/21/2014  20:59:00     -189.343      -35.141        4.266      100.750       88.928       45.711    10150.541     7908.205     2089.532        2.862        1.007      192.576       52.807        0.075      345.777       23.548      861.241
08/21/2014  21:00:00     -248.119      -88.394      -10.227      117.437       87.902       48.436    13791.491     7726.713     2346.051        4.667        1.193      263.394       58.000        0.048      345.794       23.577      861.254
08/21/2014  21:01:00     -268.637      -31.879      -16.098      118.163       76.009       49.533    13962.449     5777.368     2453.533        4.781        1.110      270.522       51.855        0.037      345.769       23.533      861.250
08/21/2014  21:02:00     -247.581       19.644       11.110      206.777      113.564       79.132    42756.830    12896.889     6261.896        6.185        3.096      248.359       94.521        0.145      345.723       23.455      861.234
08/21/2014  21:03:00     -377.133      -21.012      -25.089      177.154      100.936       66.574    31383.681    10187.989     4432.158        9.464        2.300      377.718       79.004        0.044      345.711       23.434      861.231
08/21/2014  21:04:00     -268.549      -35.396      -19.663      133.726      105.485       57.201    17882.743    11126.984     3272.005        5.301        1.614      270.871       65.207        0.058      345.690       23.399      861.220
08/21/2014  21:05:00     -307.899     -118.964       -7.269      111.702       91.152       58.385    12477.421     8308.739     3408.787        6.660        1.210      330.082       50.618        0.024      345.678       23.376      861.196
08/21/2014  21:06:00     -341.091      -98.890      -13.859      137.468      102.596       71.964    18897.370    10525.974     5178.831        8.045        1.730      355.137       80.703        0.052      345.679       23.379      861.192
08/21/2014  21:07:00     -301.744      -94.678      -14.870      187.290      104.354       67.412    35077.624    10889.792     4544.406        7.536        2.526      316.249       67.756        0.046      345.698       23.411      861.204
08/21/2014  21:08:00     -112.285      -78.712        7.242      142.403      102.350       53.600    20278.693    10475.425     2872.913        2.623        1.681      137.126       55.563        0.164      345.653       23.337      861.179
08/21/2014  21:09:00     -324.843      -43.573       -3.051      223.029      163.828       84.656    49742.076    26839.635     7166.606        9.557        4.187      327.752       84.746        0.067      345.679       23.379      861.188
08/21/2014  21:10:00     -446.951      -34.896      -17.233      206.491      149.030       89.811    42638.530    22210.058     8066.082       13.708        3.646      448.311      104.105        0.054      345.662       23.350      861.184
08/21/2014  21:11:00     -346.882       21.029      -14.961      159.399      116.497       67.389    25408.186    13571.469     4541.340        8.225        2.176      347.519       66.560        0.037      345.653       23.332      861.200
08/21/2014  21:12:00     -373.196      -87.530      -10.000      196.933      144.168       80.494    38782.690    20784.414     6479.256       10.653        3.302      383.324       91.929        0.058      345.668       23.359      861.187
08/21/2014  21:13:00     -449.740     -138.361      -25.865      172.890      133.846       84.659    29891.104    17914.881     7167.161       13.852        2.749      470.542       83.661        0.032      345.646       23.322      861.196
08/21/2014  21:14:00     -316.182      -53.542       -7.283      222.649      125.308       76.300    49572.497    15702.005     5821.747        8.698        3.555      320.683      103.579        0.104      345.629       23.293      861.199
08/21/2014  21:15:00     -146.116      -53.043        3.731      101.609       97.210       60.717    10324.288     9449.795     3686.565        2.381        1.173      155.446       54.960        0.125      345.624       23.285      861.190
08/21/2014  21:16:00      -88.711      -44.740       30.684      105.350       77.654       48.860    11098.596     6030.185     2387.315        1.516        0.976       99.354       52.124        0.275      345.590       23.228      861.182
08/21/2014  21:17:00     -104.995      -36.419        8.468      125.012       97.709       63.396    15628.068     9547.101     4019.011        2.080        1.460      111.132       66.600        0.359      345.553       23.165      861.175
08/21/2014  21:18:00     -255.516       -5.420       -6.022      131.823       74.502       64.053    17377.174     5550.484     4102.732        4.619        1.352      255.573       66.015        0.067      345.558       23.172      861.189
08/21/2014  21:19:00     -288.702      -59.657        1.614      220.525      135.279       79.006    48631.368    18300.372     6241.903        8.003        3.659      294.801      104.676        0.126      345.549       23.155      861.165
08/21/2014  21:20:00     -127.150        0.774        1.834      120.372       86.964       68.848    14489.491     7562.746     4740.002        2.148        1.340      127.152       50.730        0.159      345.558       23.174      861.165
08/21/2014  21:21:00     -245.921     -113.969      -11.516      174.067      122.772       70.864    30299.346    15072.988     5021.667        6.199        2.520      271.046       77.545        0.082      345.550       23.158      861.179
08/21/2014  21:22:00     -343.688     -120.063      -11.833      189.950      134.649       72.671    36081.051    18130.305     5281.131        9.607        2.975      364.056       91.173        0.063      345.520       23.106      861.182
08/21/2014  21:23:00     -174.196       -0.391       -1.915       97.698       84.936       57.387     9544.923     7214.079     3293.317        2.520        1.003      174.197       49.796        0.082      345.456       22.995      861.179
08/21/2014  21:24:00     -301.130       13.207      -13.796      123.596       83.565       49.538    15275.956     6983.146     2453.971        5.787        1.236      301.419       56.938        0.036      345.489       23.052      861.165
08/21/2014  21:25:00     -175.334      -43.096       -4.922       83.534       65.060       44.511     6977.856     4232.810     1981.272        2.291        0.660      180.552       39.714        0.048      345.448       22.984      861.184
08/21/2014  21:26:00      -85.015      -52.717       11.738      121.077      101.954       45.673    14659.534    10394.601     2085.995        1.864        1.357      100.033       59.066        0.349      345.451       22.988      861.149
08/21/2014  21:27:00     -185.718        3.305       -2.898      112.696       56.182       48.065    12700.444     3156.384     2310.212        2.634        0.908      185.748       55.498        0.089      345.407       22.914      861.152
08/21/2014  21:28:00     -115.902        3.858       13.805       80.023       58.095       49.596     6403.685     3374.988     2459.768        1.294        0.612      115.966       43.118        0.138      345.390       22.886      861.141
08/21/2014  21:29:00      -79.887      -70.631       14.553       87.933      102.890       45.873     7732.141    10586.265     2104.374        1.600        1.021      106.633       44.344        0.173      345.438       22.967      861.151
08/21/2014  21:30:00        1.170        6.902       17.774       55.919       43.106       37.126     3126.900     1858.119     1378.346        0.336        0.318        7.000       33.633       23.082      345.337       22.795      861.145
08/21/2014  21:31:00       -7.498      -54.234       -1.434       71.492       47.496       26.124     5111.099     2255.867      682.489        0.552        0.402       54.750       13.218        0.058      345.401       22.903      861.143
08/21/2014  21:32:00     -278.430      -55.172      -31.307      114.806       73.568       59.769    13180.399     5412.266     3572.320        5.185        1.108      283.843       55.047        0.038      345.379       22.864      861.140
08/21/2014  21:33:00     -267.185      -68.738       -4.161      160.172       98.022       71.655    25654.999     9608.326     5134.416        5.826        2.020      275.886       74.484        0.073      345.375       22.857      861.137
08/21/2014  21:34:00     -114.416     -104.793        5.026      145.749      132.969       55.738    21242.724    17680.754     3106.727        3.306        2.102      155.153       54.431        0.123      345.366       22.844      861.131
08/21/2014  21:35:00     -141.450     -109.069        9.162      127.166       88.215       59.042    16171.260     7781.956     3485.988        2.971        1.372      178.617       59.684        0.112      345.373       22.854      861.134
08/21/2014  21:36:00     -157.734     -117.446       -7.983      130.036       95.455       57.348    16909.297     9111.576     3288.760        3.402        1.465      196.656       66.746        0.115      345.336       22.791      861.120
08/21/2014  21:37:00     -102.120      -31.222        4.403       72.083       45.834       36.279     5195.993     2100.772     1316.160        1.002        0.431      106.786       44.334        0.172      345.292       22.717      861.130
08/21/2014  21:38:00      -80.005      -82.793       15.690      117.835      110.693       57.715    13885.101    12253.012     3331.045        2.148        1.473      115.132       67.671        0.345      345.284       22.703      861.141
08/21/2014  21:39:00     -130.442      -74.958       -1.871      122.605       57.178       39.455    15032.026     3269.303     1556.658        2.124        0.993      150.445       41.034        0.074      345.293       22.718      861.150
08/21/2014  21:40:00      -77.011      -62.766       -2.297       84.757       77.720       32.914     7183.682     6040.415     1083.347        1.209        0.715       99.350       27.933        0.079      345.303       22.735      861.149
08/21/2014  21:41:00     -143.007      -51.035        5.375       88.843       99.603       53.283     7893.026     9920.685     2839.060        2.186        1.033      151.841       44.996        0.088      345.320       22.764      861.141
08/21/2014  21:42:00      -11.510      -37.056       23.729      105.337      117.215       60.151    11095.986    13739.381     3618.104        1.526        1.423       38.803       69.959        3.251      345.261       22.664      861.142
08/21/2014  21:43:00      -29.378      -82.847       10.492       48.929       72.450       35.123     2394.067     5249.022     1233.602        0.835        0.444       87.902       27.140        0.095      345.262       22.667      861.151
08/21/2014  21:44:00     -129.833      -42.920       -1.071      122.241       89.263       43.753    14942.886     7967.854     1914.327        2.176        1.241      136.743       46.192        0.114      345.277       22.691      861.145
08/21/2014  21:45:00     -379.233      -21.066      -18.432      191.376      126.508       62.645    36624.669    16004.366     3924.345       10.057        2.828      379.818       70.407        0.034      345.280       22.695      861.156
08/21/2014  21:46:00     -110.812      -24.627       23.782      113.836       82.070       47.305    12958.663     6735.435     2237.752        1.769        1.097      113.516       50.216        0.196      345.212       22.580      861.156
08/21/2014  21:47:00     -172.509     -111.206       -3.788       97.702       93.607       43.217     9545.758     8762.295     1867.739        3.115        1.009      205.247       44.980        0.048      345.245       22.635      861.153
08/21/2014  21:48:00     -253.637     -130.750       -5.048      148.433      165.071       71.116    22032.429    27248.422     5057.446        6.788        2.717      285.355       85.073        0.089      345.247       22.638      861.134
08/21/2014  21:49:00     -237.153      -93.403      -14.451      178.002      102.435       67.754    31684.878    10492.923     4590.660        5.596        2.338      254.884       62.609        0.060      345.231       22.610      861.114
08/21/2014  21:50:00     -176.791      -79.101       -2.524      127.976       98.040       59.973    16377.926     9611.912     3596.752        3.355        1.479      193.680       64.132        0.110      345.229       22.606      861.130
08/21/2014  21:51:00     -318.605     -135.518        1.158      149.041      124.931       77.573    22213.214    15607.879     6017.596        8.185        2.192      346.228       64.062        0.034      345.197       22.551      861.131
08/21/2014  21:52:00     -141.536      -77.656       18.505      132.126      106.987       58.567    17457.188    11446.260     3430.065        2.936        1.617      161.440       60.552        0.141      345.177       22.519      861.109
08/21/2014  21:53:00     -169.211      -52.051        1.658       94.767       91.645       50.470     8980.763     8398.842     2547.187        2.563        0.996      177.035       47.387        0.072      345.178       22.521      861.116
08/21/2014  21:54:00     -253.940      -76.675      -10.008      115.379       82.826       59.441    13312.246     6860.192     3533.260        4.708        1.185      265.263       54.624        0.042      345.190       22.539      861.106
08/21/2014  21:55:00     -215.114     -144.170        3.657      153.653      119.927       72.609    23609.129    14382.370     5272.033        5.516        2.163      258.958       81.885        0.100      345.169       22.505      861.092
08/21/2014  21:56:00     -321.163     -160.677      -17.325      149.086      108.403       68.287    22226.725    11751.190     4663.097        8.394        1.932      359.114       64.545        0.032      345.176       22.517      861.088
08/21/2014  21:57:00     -180.907      -38.538        6.227      147.552       86.068       59.553    21771.502     7407.702     3546.517        3.348        1.636      184.966       72.665        0.154      345.113       22.410      861.084
08/21/2014  21:58:00     -241.348      -98.109       -4.845      105.983       93.945       57.431    11232.460     8825.685     3298.292        4.562        1.168      260.527       52.399        0.040      345.164       22.495      861.074
08/21/2014  21:59:00     -202.915      -96.233       -7.416      128.620       95.286       49.125    16543.116     9079.517     2413.251        3.926        1.402      224.578       45.014        0.040      345.132       22.441      861.076
08/21/2014  22:00:00     -163.486      -14.497        3.492      143.391       90.864       56.774    20560.854     8256.354     3223.289        2.949        1.602      164.127       70.632        0.185      345.127       22.434      861.063
08/21/2014  22:01:00      -81.358       -9.175       12.056      136.747       71.276       53.596    18699.750     5080.246     2872.500        1.675        1.333       81.873       65.480        0.640      345.132       22.441      861.055
08/21/2014  22:02:00     -176.204      -43.878        1.064      106.279       77.205       53.245    11295.328     5960.536     2835.077        2.653        1.005      181.585       50.003        0.076      345.104       22.394      861.073
08/21/2014  22:03:00      -99.344      -78.326       20.448      124.766      137.182       77.027    15566.621    18818.901     5933.193        2.836        2.016      126.508       71.321        0.318      345.117       22.417      861.042
08/21/2014  22:04:00     -248.436      -37.370       -4.514      206.354      110.349       66.282    42582.040    12177.006     4393.250        6.113        2.958      251.231       57.026        0.052      345.097       22.384      861.037
08/21/2014  22:05:00     -322.405      -84.979      -17.203      184.947      134.993       68.090    34205.469    18223.107     4636.254        8.425        2.853      333.417       73.112        0.048      345.076       22.346      861.036
08/21/2014  22:06:00     -263.986     -152.472      -12.677      135.923      108.191       60.955    18475.155    11705.320     3715.531        6.349        1.695      304.855       55.030        0.033      345.072       22.337      861.026
08/21/2014  22:07:00     -223.609       -9.862       -3.551      129.013      109.392       68.886    16644.475    11966.692     4745.347        4.173        1.668      223.827       70.427        0.099      345.053       22.307      861.023
08/21/2014  22:08:00     -403.670      -73.345      -17.175      201.935      122.150       59.764    40777.760    14920.503     3571.777       11.394        2.964      410.279       68.498        0.028      345.041       22.286      861.029
08/21/2014  22:09:00     -394.982       -4.719      -15.650      194.467      148.285       79.645    37817.577    21988.470     6343.255       11.120        3.307      395.010       83.692        0.045      345.051       22.303      861.017
08/21/2014  22:10:00     -449.725     -104.494      -22.583      192.491      145.578       77.562    37052.912    21193.013     6015.812       13.896        3.213      461.705       88.184        0.036      345.070       22.335      860.997
08/21/2014  22:11:00     -350.615      -50.080        0.197      185.038      158.000       94.285    34238.943    24964.027     8889.743        9.675        3.405      354.174      109.699        0.096      345.078       22.349      861.007
08/21/2014  22:12:00     -257.383      -28.096      -11.620      229.697      159.977       81.785    52760.639    25592.680     6688.714        7.609        4.252      258.912       99.245        0.147      345.080       22.353      861.006
08/21/2014  22:13:00     -342.803     -106.480       -6.573      163.456      108.084       66.533    26717.834    11682.240     4426.629        8.585        2.141      358.959       71.594        0.040      345.069       22.333      861.007
08/21/2014  22:14:00     -287.670      -99.711      -17.747      170.014      153.355       69.407    28904.804    23517.827     4817.303        7.511        2.862      304.460       52.154        0.029      345.064       22.325      861.007
08/21/2014  22:15:00     -283.247      -33.888       -6.346      130.626       90.519       60.964    17063.025     8193.754     3716.649        5.519        1.449      285.267       67.909        0.057      345.047       22.296      861.013
08/21/2014  22:16:00     -377.062      -55.788      -34.900      197.413      109.271       68.794    38971.762    11940.084     4732.592       10.106        2.782      381.167       59.862        0.025      345.039       22.282      861.002
08/21/2014  22:17:00     -394.198      -26.511      -25.398      231.480      106.273       79.899    53582.982    11293.991     6383.863       11.399        3.563      395.088      101.805        0.066      345.017       22.245      860.990
08/21/2014  22:18:00     -221.083      -68.291       -1.566      172.959      132.460       62.966    29914.960    17545.610     3964.680        5.247        2.571      231.390       70.084        0.092      344.974       22.170      860.998
08/21/2014  22:19:00     -436.752      -65.707      -24.687      194.442      132.435       71.680    37807.712    17538.932     5138.062       12.807        3.024      441.667       79.559        0.032      345.006       22.225      860.989
08/21/2014  22:20:00     -330.466      -58.264      -14.566      180.408      128.572       86.478    32546.964    16530.863     7478.461        8.467        2.828      335.563       93.171        0.077      344.983       22.187      860.958
08/21/2014  22:21:00     -477.567      -46.998      -22.228      161.137      118.385       72.554    25965.196    14015.001     5264.077       13.800        2.262      479.874       82.278        0.029      344.973       22.168      860.961
08/21/2014  22:22:00     -431.583     -212.035      -21.327      145.367      160.387       74.837    21131.518    25723.838     5600.637       14.206        2.623      480.857       74.263        0.024      344.985       22.189      860.940
08/21/2014  22:23:00     -377.870      -44.138      -23.422      188.314      140.232       72.599    35462.179    19665.014     5270.568       10.283        3.020      380.439       57.193        0.023      344.978       22.177      860.946
08/21/2014  22:24:00     -340.574     -105.494      -28.002      133.431      102.545       75.696    17803.823    10515.480     5729.892        8.097        1.702      356.539       69.541        0.038      344.998       22.212      860.943
08/21/2014  22:25:00     -387.033      -48.264      -28.242      205.551      151.977       77.473    42251.088    23097.028     6002.116       11.212        3.568      390.031       89.301        0.052      344.950       22.129      860.934
08/21/2014  22:26:00     -273.473      -66.321       -8.118      159.230      125.461       69.712    25354.216    15740.498     4859.817        6.259        2.298      281.400       80.660        0.082      344.937       22.109      860.943
08/21/2014  22:27:00     -250.850     -132.434       10.386      185.248      134.897       73.142    34316.848    18197.178     5349.803        6.921        2.893      283.663       73.960        0.068      344.915       22.069      860.934
08/21/2014  22:28:00     -555.420       -9.715      -35.521      177.910      116.942       85.761    31652.091    13675.528     7354.963       18.125        2.634      555.505       87.948        0.025      344.929       22.092      860.934
08/21/2014  22:29:00     -301.657     -101.290       -6.316      137.323      114.546       60.561    18857.641    13120.891     3667.677        6.846        1.782      318.209       67.033        0.044      344.906       22.054      860.939
08/21/2014  22:30:00     -329.105      -26.883       -8.053      168.920      123.278       86.038    28533.822    15197.475     7402.458        8.011        2.557      330.201       91.307        0.076      344.888       22.024      860.929
08/21/2014  22:31:00     -367.125     -109.857      -20.737      138.351      129.041       80.004    19140.950    16651.690     6400.607        9.473        2.110      383.210       80.435        0.044      344.900       22.043      860.900
08/21/2014  22:32:00     -414.897      -72.815      -17.724      173.351      145.994       72.605    30050.667    21314.287     5271.509       11.719        2.832      421.239       81.893        0.038      344.897       22.038      860.906
08/21/2014  22:33:00     -253.176      -95.053       20.575      213.469      143.987       88.468    45569.207    20732.204     7826.551        7.383        3.706      270.432      107.645        0.158      344.859       21.975      860.898
08/21/2014  22:34:00     -270.342        9.168       -6.143      150.349      127.999       74.877    22604.695    16383.672     5606.559        5.889        2.230      270.498       80.600        0.089      344.855       21.967      860.887
08/21/2014  22:35:00     -331.411     -105.365       -3.971      139.131      118.189       64.448    19357.528    13968.540     4153.565        7.921        1.874      347.757       59.380        0.029      344.850       21.959      860.895
08/21/2014  22:36:00     -296.820      -77.960      -12.139      142.244      112.337       62.254    20233.330    12619.619     3875.536        6.552        1.836      306.887       70.770        0.053      344.828       21.921      860.889
08/21/2014  22:37:00     -286.006      -38.414       -3.646      182.585      108.035       76.554    33337.419    11671.548     5860.567        6.707        2.543      288.574       91.750        0.101      344.808       21.887      860.884
08/21/2014  22:38:00     -371.488      -78.953      -10.764      193.886      133.312       70.546    37591.783    17771.969     4976.808       10.233        3.017      379.786       83.302        0.048      344.848       21.956      860.886
08/21/2014  22:39:00     -296.261      -25.382       -1.836      186.085      117.606       78.276    34627.769    13831.201     6127.169        7.149        2.729      297.346       94.487        0.101      344.812       21.893      860.885
08/21/2014  22:40:00     -280.868      -50.347      -11.528      223.092      116.588       70.404    49770.194    13592.782     4956.754        7.492        3.416      285.345       81.897        0.082      344.836       21.934      860.884
08/21/2014  22:41:00     -349.593     -120.394       -4.064      175.012      156.130       86.820    30629.153    24376.473     7537.659        9.962        3.127      369.743       98.734        0.071      344.830       21.923      860.897
08/21/2014  22:42:00     -380.552      -39.744      -15.749      180.531      135.607       90.787    32591.476    18389.328     8242.224       10.292        2.961      382.622       92.406        0.058      344.811       21.889      860.891
08/21/2014  22:43:00     -343.385      -87.536      -25.783      134.897      116.122       70.785    18197.305    13484.335     5010.564        8.146        1.835      354.367       72.925        0.042      344.824       21.913      860.885
08/21/2014  22:44:00     -496.295      -82.272      -24.025      210.281      132.072       89.884    44218.248    17443.108     8079.211       16.168        3.487      503.068       95.199        0.036      344.815       21.899      860.881
08/21/2014  22:45:00     -410.404      -14.510      -24.310      203.531      144.024       86.625    41424.866    20742.952     7503.969       11.944        3.484      410.661       86.322        0.044      344.837       21.935      860.893
08/21/2014  22:46:00     -403.460     -202.891      -18.772      301.590      180.540      100.288    90956.812    32594.656    10057.597       16.893        6.680      451.602      112.236        0.062      344.843       21.946      860.878
08/21/2014  22:47:00     -485.560     -143.631      -22.046      194.113      152.165       89.550    37679.921    23154.133     8019.114       16.286        3.443      506.358       94.136        0.035      344.819       21.904      860.885
08/21/2014  22:48:00     -430.430     -112.321      -20.077      206.969      155.994       86.030    42836.125    24334.247     7401.245       13.642        3.729      444.844       99.957        0.050      344.819       21.907      860.890
08/21/2014  22:49:00     -373.925      -99.566      -14.909      164.308      162.910       89.070    26997.219    26539.767     7933.539       10.570        3.074      386.954       70.895        0.034      344.813       21.894      860.874
08/21/2014  22:50:00     -386.292      -33.922       -4.137      181.000      154.296       86.704    32761.159    23807.393     7517.580       10.722        3.204      387.778       86.369        0.050      344.782       21.841      860.863
08/21/2014  22:51:00     -279.228       12.301       -8.190      107.171      110.872       70.924    11485.723    12292.562     5030.224        5.349        1.440      279.499       63.656        0.052      344.751       21.788      860.859
08/21/2014  22:52:00     -425.444     -148.620       -4.880      208.658      179.424       95.520    43538.129    32193.085     9124.147       14.397        4.243      450.655      103.306        0.053      344.745       21.777      860.835
08/21/2014  22:53:00     -496.236      -80.037      -44.453      167.285      163.248       83.363    27984.235    26650.037     6949.395       15.810        3.079      502.649       95.111        0.036      344.745       21.778      860.841
08/21/2014  22:54:00     -339.224      -60.465       -8.036      206.480       99.265       70.277    42633.871     9853.480     4938.921        8.810        2.871      344.571       90.402        0.069      344.715       21.726      860.851
08/21/2014  22:55:00     -407.918     -125.659      -15.259      172.046      122.479       75.369    29599.870    15001.225     5680.468       11.634        2.514      426.834       80.849        0.036      344.711       21.719      860.839
08/21/2014  22:56:00     -231.152      -83.477       -3.049      140.929      120.533       62.919    19860.959    14528.137     3958.797        4.937        1.917      245.763       68.616        0.078      344.694       21.691      860.847
08/21/2014  22:57:00     -283.950     -138.537       -6.069      157.226      150.943       82.472    24719.961    22783.743     6801.561        7.707        2.715      315.943       78.166        0.061      344.680       21.667      860.830
08/21/2014  22:58:00     -351.066      -63.089       -6.779      177.053      120.540       81.814    31347.865    14529.983     6693.563        8.991        2.629      356.690       90.933        0.065      344.663       21.637      860.817
08/21/2014  22:59:00     -425.667       -0.205      -22.310      188.208      126.793       85.846    35422.192    16076.471     7369.495       12.027        2.943      425.667       94.315        0.049      344.672       21.653      860.830
08/21/2014  23:00:00     -480.008      -84.709      -29.054      198.231      127.820       75.903    39295.410    16338.032     5761.267       14.990        3.070      487.425       82.615        0.029      344.702       21.704      860.830
08/21/2014  23:01:00     -307.559     -101.158      -16.360      182.630      157.675       81.460    33353.578    24861.380     6635.671        8.496        3.243      323.768       92.591        0.082      344.688       21.681      860.835
08/21/2014  23:02:00     -278.862      -31.246       -9.416      124.988      118.504       64.301    15621.893    14043.294     4134.657        5.631        1.690      280.607       54.423        0.038      344.658       21.630      860.845
08/21/2014  23:03:00     -421.106      -46.316      -17.939      143.218      101.991       69.398    20511.458    10402.214     4816.061       10.776        1.786      423.645       72.249        0.029      344.672       21.653      860.863
08/21/2014  23:04:00     -365.475      -15.719        0.236      259.040      133.787       88.307    67101.752    17898.915     7798.138       11.329        4.640      365.813      117.389        0.103      344.667       21.646      860.864
08/21/2014  23:05:00     -274.123       15.845      -28.189      184.937      100.571       63.703    34201.810    10114.520     4058.058        6.227        2.419      274.580       75.968        0.077      344.661       21.634      860.871
08/21/2014  23:06:00     -298.193      -23.026        2.821      170.978      117.492       70.629    29233.631    13804.396     4988.524        6.873        2.401      299.080       83.420        0.078      344.664       21.640      860.905
08/21/2014  23:07:00     -236.433      -48.242       -0.898      124.177       98.285       72.873    15420.043     9659.932     5310.458        4.430        1.520      241.304       57.966        0.058      344.630       21.582      860.922
08/21/2014  23:08:00     -423.949      -13.692      -34.707      160.802      118.770       66.630    25857.418    14106.416     4439.564       11.276        2.220      424.170       72.159        0.029      344.661       21.635      860.944
08/21/2014  23:09:00     -313.831      -55.957      -27.412      140.825      121.795       67.652    19831.788    14833.986     4576.765        7.080        1.962      318.780       62.866        0.039      344.651       21.618      860.953
08/21/2014  23:10:00     -364.875      -45.738      -14.134      185.124      141.066       72.689    34270.797    19899.529     5283.655        9.743        2.973      367.730       71.775        0.038      344.666       21.642      860.973
08/21/2014  23:11:00     -329.923      -20.866      -11.104      110.755      105.523       65.431    12266.742    11135.126     4281.239        6.854        1.384      330.583       59.087        0.032      344.645       21.607      860.983
08/21/2014  23:12:00     -129.767      -53.301        3.291       84.907       72.289       43.300     7209.131     5225.756     1874.853        1.700        0.715      140.287       36.119        0.066      344.639       21.599      860.993
08/21/2014  23:13:00     -254.850      -64.278       -5.831      227.821      121.789       67.393    51902.252    14832.464     4541.810        7.018        3.564      262.831       90.407        0.118      344.655       21.624      860.995
08/21/2014  23:14:00     -266.777     -171.972      -10.826      174.011      153.387       85.350    30279.829    23527.605     7284.648        8.096        3.055      317.403       82.524        0.068      344.668       21.645      860.960
08/21/2014  23:15:00     -182.369     -106.302        0.493      125.473      118.165       55.789    15743.506    13962.911     3112.464        3.868        1.641      211.089       71.043        0.113      344.643       21.605      860.964
08/21/2014  23:16:00     -240.627      -66.309       -3.184      148.455      116.762       62.438    22039.016    13633.380     3898.459        5.093        1.979      249.596       69.243        0.077      344.682       21.672      860.965
08/21/2014  23:17:00     -204.178      -97.631        4.819      148.701       94.981       61.172    22111.991     9021.353     3741.993        4.305        1.744      226.319       60.202        0.071      344.652       21.619      860.967
08/21/2014  23:18:00     -291.960     -137.662       -6.133      142.985      145.923       72.357    20444.700    21293.610     5235.521        7.559        2.349      322.787       73.451        0.052      344.678       21.663      860.973
08/21/2014  23:19:00     -389.758     -164.491      -31.449      162.097      126.374       76.340    26275.497    15970.293     5827.757       11.401        2.404      423.047       66.152        0.024      344.690       21.684      860.996
08/21/2014  23:20:00     -245.937     -137.697        7.350      137.316      139.619       80.522    18855.554    19493.573     6483.787        6.216        2.242      281.861       77.105        0.075      344.668       21.645      861.011
08/21/2014  23:21:00     -229.052     -139.252       -6.688      136.714       88.294       63.213    18690.709     7795.783     3995.943        5.119        1.524      268.059       68.821        0.066      344.647       21.612      861.032
08/21/2014  23:22:00     -253.006      -87.390       -1.092      108.794       83.628       53.471    11836.162     6993.720     2859.177        4.667        1.084      267.674       54.483        0.041      344.646       21.608      861.059
08/21/2014  23:23:00     -318.811     -141.409      -12.237      126.976       89.717       52.509    16122.853     8049.202     2757.195        7.435        1.346      348.765       52.994        0.023      344.643       21.604      861.075
08/21/2014  23:24:00     -164.019      -60.683       13.657      157.013      109.076       65.099    24653.198    11897.523     4237.894        3.577        2.039      174.885       79.656        0.207      344.599       21.530      861.083
08/21/2014  23:25:00     -277.804       -6.330      -17.760      173.977       85.533       61.114    30268.034     7315.950     3734.939        5.942        2.066      277.877       77.667        0.078      344.613       21.553      861.103
08/21/2014  23:26:00     -191.574      -21.301        9.920      123.315      101.132       55.001    15206.643    10227.666     3025.144        3.285        1.423      192.754       68.211        0.125      344.628       21.578      861.119
08/21/2014  23:27:00     -239.336      -93.488       -2.657      131.966      105.640       60.888    17415.123    11159.879     3707.346        4.915        1.614      256.947       65.942        0.066      344.604       21.538      861.127
08/21/2014  23:28:00     -267.434     -119.600      -11.776       97.067       92.226       60.059     9422.050     8505.688     3607.040        5.375        1.077      292.959       58.536        0.040      344.619       21.563      861.142
08/21/2014  23:29:00     -172.025      -88.179        5.931      124.732       87.667       71.390    15558.089     7685.500     5096.490        3.287        1.417      193.308       67.731        0.123      344.572       21.482      861.148
08/21/2014  23:30:00     -333.618      -78.528      -22.015      163.545       80.452       49.247    26747.048     6472.583     2425.255        7.679        1.782      342.736       72.506        0.045      344.650       21.616      861.153
08/21/2014  23:31:00     -315.341      -70.110       -7.569      184.123      102.315       67.485    33901.208    10468.460     4554.247        7.666        2.446      323.040       92.149        0.081      344.640       21.598      861.155
08/21/2014  23:32:00     -354.295        1.502      -25.284      139.209       81.327       52.201    19379.047     6614.014     2724.904        7.744        1.436      354.298       49.854        0.020      344.649       21.612      861.152
08/21/2014  23:33:00     -249.154      -49.013      -11.866      112.313       82.958       46.125    12614.261     6882.010     2127.554        4.312        1.081      253.929       44.524        0.031      344.615       21.557      861.149
08/21/2014  23:34:00     -162.166      -58.848       -5.799       76.211       86.064       43.756     5808.048     7407.010     1914.559        2.246        0.756      172.513       28.304        0.027      344.569       21.480      861.146
08/21/2014  23:35:00     -268.099      -56.890      -17.657      122.850      103.302       56.344    15092.142    10671.348     3174.644        5.218        1.447      274.069       57.009        0.043      344.606       21.540      861.133
08/21/2014  23:36:00     -400.200      -60.974      -42.278      138.619      116.704       62.554    19215.100    13619.741     3912.941       10.120        1.837      404.818       59.291        0.021      344.639       21.597      861.121
08/21/2014  23:37:00     -367.659      -22.406      -21.779      148.632      120.840       73.670    22091.549    14602.284     5427.252        8.913        2.106      368.341       82.371        0.050      344.586       21.506      861.106
08/21/2014  23:38:00     -306.605     -115.948       -5.294      124.401      104.879       57.522    15475.626    10999.613     3308.762        6.863        1.489      327.796       41.420        0.016      344.580       21.496      861.081
08/21/2014  23:39:00     -349.605      -66.507      -24.425       88.466       83.404       48.515     7826.281     6956.197     2353.739        7.219        0.857      355.875       37.471        0.011      344.559       21.459      861.078
08/21/2014  23:40:00     -268.469      -49.613      -12.906      132.936       96.539       56.845    17672.067     9319.875     3231.365        5.246        1.511      273.015       69.492        0.065      344.513       21.382      861.081
08/21/2014  23:41:00     -259.044      -51.022       -0.313      144.403      101.071       52.430    20852.348    10215.257     2748.893        5.176        1.691      264.021       64.947        0.061      344.490       21.343      861.082
08/21/2014  23:42:00     -271.060      -49.250       -8.829      139.846      113.891       62.433    19557.027    12971.111     3897.896        5.619        1.821      275.498       71.441        0.067      344.479       21.323      861.080
08/21/2014  23:43:00     -346.169      -37.979      -17.224      103.609      115.839       59.649    10734.737    13418.560     3557.946        7.464        1.386      348.246       53.479        0.024      344.516       21.387      861.070
08/21/2014  23:44:00     -266.407      -23.187       -4.682      159.346      135.828       60.696    25391.029    18449.247     3683.970        5.952        2.376      267.414       67.021        0.063      344.485       21.333      861.062
08/21/2014  23:45:00     -333.617      -24.070      -24.566      128.038      115.677       59.795    16393.612    13381.224     3575.435        7.291        1.668      334.484       64.813        0.038      344.506       21.372      861.062
08/21/2014  23:46:00     -365.612      -80.776      -36.973      130.213      114.230       57.066    16955.505    13048.453     3256.493        8.741        1.663      374.429       63.887        0.029      344.509       21.375      861.057
08/21/2014  23:47:00     -267.811      -73.055      -13.498      137.182       87.571       64.924    18818.891     7668.747     4215.107        5.397        1.535      277.596       66.764        0.058      344.478       21.323      861.056
08/21/2014  23:48:00     -296.431      -99.586      -12.823      178.259       92.123       64.444    31776.164     8486.651     4152.985        7.118        2.221      312.712       76.132        0.059      344.487       21.337      861.039
08/21/2014  23:49:00     -374.627      -72.063      -19.189      117.644       93.505       64.597    13840.045     8743.094     4172.741        8.633        1.338      381.495       61.722        0.026      344.497       21.353      861.043
08/21/2014  23:50:00     -384.393      -68.683      -18.928      137.895      135.262       61.551    19014.903    18295.921     3788.477        9.696        2.055      390.481       70.949        0.033      344.503       21.364      861.041
08/21/2014  23:51:00     -369.548      -89.185      -19.634      140.530       94.607       58.334    19748.558     8950.429     3402.908        8.850        1.605      380.158       54.637        0.021      344.485       21.335      861.049
08/21/2014  23:52:00     -345.776     -108.186      -13.948      140.520      112.334       66.808    19745.829    12618.900     4463.278        8.414        1.841      362.305       68.683        0.036      344.487       21.336      861.053
08/21/2014  23:53:00     -279.768      -85.246      -25.899      162.335       86.495       62.190    26352.650     7481.361     3867.642        6.195        1.885      292.467       36.620        0.016      344.494       21.350      861.038
08/21/2014  23:54:00     -334.397     -126.516      -11.783       85.840       91.957       56.725     7368.427     8456.112     3217.752        7.350        0.952      357.530       45.808        0.016      344.472       21.310      861.032
08/21/2014  23:55:00     -265.376      -39.543      -28.573      115.618       72.084       51.125    13367.513     5196.150     2613.814        4.699        1.059      268.306       46.971        0.031      344.433       21.245      861.022
08/21/2014  23:56:00     -254.976     -112.385       -1.836      123.365       89.736       54.768    15218.833     8052.561     2999.533        5.195        1.314      278.645       58.719        0.044      344.414       21.213      861.011
08/21/2014  23:57:00     -254.892      -24.162      -13.808      113.658      104.993       51.189    12918.224    11023.461     2620.361        4.615        1.328      256.034       58.365        0.052      344.442       21.261      861.015
08/21/2014  23:58:00     -477.723       57.073      -41.660      109.816       84.128       45.199    12059.533     7077.480     2042.971       12.719        1.059      481.120       33.701        0.005      344.506       21.369      861.008
08/21/2014  23:59:00     -342.084     -102.258      -21.962      151.287      113.203       60.127    22887.744    12814.897     3615.287        8.363        1.966      357.041       68.588        0.037      344.419       21.222      861.004
